[[{"header":{"parameterUnit":"m.s-1","parameterCategory":1,"la1":30.6,"la2":29.2853,"lo1":-89.7004,"lo2":-87.6739,"dy":0.0162,"dx":0.0183,"nx":112,"ny":82,"refTime":"2023-04-06T12:00:00:Z","depth":0,"parameterNumber":2,"parameterNumberName":"U-component_of_WINDS"},"data":[0.0,0.0,0.0,0.0,0.0,0.0,0.0,0.0,0.0,0.0,0.0,0.0,0.0,0.0,0.0,0.0,0.0,0.0,0.0,0.0,0.0,0.0,0.0,0.0,0.0,0.0,0.0,0.0,0.0,0.0,0.0,0.0,0.0,0.0,0.0,0.0,0.0,0.0,0.0,0.0,0.0,0.0,0.0,0.0,0.0,0.0,0.0,0.0,0.0,0.0,0.0,0.0,0.0,0.0,0.0,0.0,0.0,0.0,0.0,0.0,0.0,0.0,0.0,0.0,0.0,0.0,0.0,0.0,0.0,0.0,0.0,0.0,0.0,0.0,0.0,0.0,0.0,0.0,0.0,0.0,0.0,0.0,0.0,0.0,0.0,0.0,0.0,0.0,0.0,0.0,1.5185,1.5342,1.4318,1.3544,1.3425,1.3467,1.3492,1.3492,0.0,0.0,0.0,0.0,0.0,0.0,0.0,0.0,0.0,0.0,0.0,0.0,0.0,0.0,0.0,0.0,0.0,0.0,0.0,0.0,0.0,0.0,0.0,0.0,0.0,0.0,0.0,0.0,0.0,0.0,0.0,0.0,0.0,0.0,0.0,0.0,0.0,0.0,0.0,0.0,0.0,0.0,0.0,0.0,0.0,0.0,0.0,0.0,0.0,0.0,0.0,0.0,0.0,0.0,0.0,0.0,0.0,0.0,0.0,0.0,0.0,0.0,0.0,0.0,0.0,0.0,0.0,0.0,0.0,0.0,0.0,0.0,0.0,0.0,0.0,0.0,0.0,0.0,0.0,0.0,0.0,0.0,0.0,0.0,0.0,0.0,0.0,0.0,0.0,0.0,0.0,0.0,0.0,0.0,0.0,0.0,0.0,0.0,0.0,0.0,0.0,0.0,0.0,0.0,1.3825,1.3769,1.3651,1.3601,1.3569,1.3734,1.3823,1.3823,0.0,0.0,0.0,0.0,0.0,0.0,0.0,0.0,0.0,0.0,0.0,0.0,0.0,0.0,0.0,0.0,0.0,0.0,0.0,0.0,0.0,0.0,0.0,0.0,0.0,0.0,0.0,0.0,0.0,0.0,0.0,0.0,0.0,0.0,0.0,0.0,0.0,0.0,0.0,0.0,0.0,0.0,0.0,0.0,0.0,0.0,0.0,0.0,0.0,0.0,0.0,0.0,0.0,0.0,0.0,0.0,0.0,0.0,0.0,0.0,0.0,0.0,0.0,0.0,0.0,0.0,0.0,0.0,0.0,0.0,0.0,0.0,0.0,0.0,0.0,0.0,0.0,0.0,0.0,0.0,0.0,0.0,0.0,0.0,0.0,0.0,0.0,0.0,0.0,0.0,0.0,0.0,0.0,0.0,0.0,0.0,0.0,0.0,0.0,0.0,0.0,0.0,0.0,1.4154,1.375,1.3669,1.3734,1.3747,1.3747,1.3855,1.3904,1.3904,1.375,0.0,0.0,0.0,0.0,0.0,0.0,0.0,0.0,0.0,0.0,0.0,0.0,0.0,0.0,0.0,0.0,0.0,0.0,0.0,0.0,0.0,0.0,0.0,0.0,0.0,0.0,0.0,0.0,0.0,0.0,0.0,0.0,0.0,0.0,0.0,0.0,0.0,0.0,0.0,0.0,0.0,0.0,0.0,0.0,0.0,0.0,0.0,0.0,0.0,0.0,0.0,0.0,0.0,0.0,0.0,0.0,0.0,0.0,0.0,0.0,0.0,0.0,0.0,0.0,0.0,0.0,0.0,0.0,0.0,0.0,0.0,0.0,0.0,0.0,0.0,0.0,0.0,0.0,0.0,0.0,0.0,0.0,0.0,0.0,0.0,0.0,0.0,0.0,0.0,0.0,0.0,0.0,0.0,0.0,0.0,0.0,0.0,0.0,0.0,0.0,0.0,0.0,1.3642,1.3774,1.3654,1.3654,1.3654,1.3654,1.3654,1.3654,1.3654,1.3654,0.0,0.0,0.0,0.0,0.0,0.0,0.0,0.0,0.0,0.0,0.0,0.0,0.0,0.0,0.0,0.0,0.0,0.0,0.0,0.0,0.0,0.0,0.0,0.0,0.0,0.0,0.0,0.0,0.0,0.0,0.0,0.0,0.0,0.0,0.0,0.0,0.0,0.0,0.0,0.0,0.0,0.0,0.0,0.0,0.0,0.0,0.0,0.0,0.0,0.0,0.0,0.0,0.0,0.0,0.0,0.0,0.0,0.0,0.0,0.0,0.0,0.0,0.0,0.0,0.0,0.0,0.0,0.0,0.0,0.0,0.0,0.0,0.0,0.0,0.0,0.0,0.0,0.0,0.0,0.0,0.0,0.0,0.0,0.0,0.0,0.0,0.0,0.0,0.0,0.0,0.0,0.0,0.0,0.0,0.0,0.0,0.0,0.0,0.0,0.0,0.0,0.0,1.3321,1.3439,1.2911,1.2896,1.2896,1.2896,1.2896,1.2896,1.2896,1.2896,0.0,0.0,0.0,0.0,0.0,0.0,0.0,0.0,0.0,0.0,0.0,0.0,0.0,0.0,0.0,0.0,0.0,0.0,0.0,0.0,0.0,0.0,0.0,0.0,0.0,0.0,0.0,0.0,0.0,0.0,0.0,0.0,0.0,0.0,0.0,0.0,0.0,0.0,0.0,0.0,0.0,0.0,0.0,0.0,0.0,0.0,0.0,0.0,0.0,0.0,0.0,0.0,0.0,0.0,0.0,0.0,0.0,0.0,0.0,0.0,0.0,0.0,0.0,0.0,0.0,0.0,0.0,0.0,0.0,0.0,0.0,0.0,0.0,0.0,0.0,0.0,0.0,0.0,0.0,0.0,0.0,0.0,0.0,0.0,0.0,0.0,0.0,0.0,0.0,0.0,0.0,0.0,0.0,0.0,0.0,0.0,0.0,0.0,0.0,0.0,0.0,0.0,1.2985,1.3007,1.2832,1.2886,1.2909,1.2909,1.3006,1.3066,1.3066,0.0,0.0,0.0,0.0,0.0,0.0,0.0,0.0,0.0,0.0,0.0,0.0,0.0,0.0,0.0,0.0,0.0,0.0,0.0,0.0,0.0,0.0,0.0,0.0,0.0,0.0,0.0,0.0,0.0,0.0,0.0,0.0,0.0,0.0,0.0,0.0,0.0,0.0,0.0,0.0,0.0,0.0,0.0,0.0,0.0,0.0,0.0,0.0,0.0,0.0,0.0,0.0,0.0,0.0,0.0,0.0,0.0,0.0,0.0,0.0,0.0,0.0,0.0,0.0,0.0,0.0,0.0,0.0,0.0,0.0,0.0,0.0,0.0,0.0,0.0,0.0,0.0,0.0,0.0,0.0,0.0,0.0,0.0,0.0,0.0,0.0,0.0,0.0,0.0,0.0,0.0,0.0,0.0,0.0,0.0,0.0,0.0,0.0,0.0,0.0,0.0,0.0,1.2532,1.2707,1.2787,1.259,1.2648,1.2714,1.2714,1.2815,1.2843,1.2843,0.0,0.0,0.0,0.0,0.0,0.0,0.0,0.0,0.0,0.0,0.0,0.0,0.0,0.0,0.0,0.0,0.0,0.0,0.0,0.0,0.0,0.0,0.0,0.0,0.0,0.0,0.0,0.0,0.0,0.0,0.0,0.0,0.0,0.0,0.0,0.0,0.0,0.0,0.0,0.0,0.0,0.0,0.0,0.0,0.0,0.0,0.0,0.0,0.0,0.0,0.0,0.0,0.0,0.0,0.0,0.0,0.0,0.0,0.0,0.0,0.0,0.0,0.0,0.0,0.0,0.0,0.0,0.0,0.0,0.0,0.0,0.0,0.0,0.0,0.0,0.0,0.0,0.0,0.0,0.0,0.0,0.0,0.0,0.0,0.0,0.0,0.0,0.0,0.0,0.0,0.0,0.0,0.0,0.0,0.0,0.0,0.0,0.0,0.0,0.0,0.0,0.0,1.1894,1.2424,1.267,1.2155,1.2098,1.2098,1.2098,1.2104,1.2104,0.0,0.0,0.0,0.0,0.0,0.0,0.0,0.0,0.0,0.0,0.0,0.0,0.0,0.0,0.0,0.0,0.0,0.0,0.0,0.0,0.0,0.0,0.0,0.0,0.0,0.0,0.0,0.0,0.0,0.0,0.0,0.0,0.0,0.0,0.0,0.0,0.0,0.0,0.0,0.0,0.0,0.0,0.0,0.0,0.0,0.0,0.0,0.0,0.0,0.0,0.0,0.0,0.0,0.0,0.0,0.0,0.0,0.0,0.0,0.0,0.0,0.0,0.0,0.0,0.0,0.0,0.0,0.0,0.0,0.0,0.0,0.0,0.0,0.0,0.0,0.0,0.0,0.0,0.0,0.0,0.0,0.0,0.0,0.0,0.0,0.0,0.0,0.0,0.0,0.0,0.0,0.0,0.0,0.0,0.0,0.0,0.0,0.0,0.0,0.0,0.0,0.0,0.0,1.205,1.2179,1.2295,1.2104,1.2193,1.2223,1.2223,1.2318,1.2372,1.2372,0.0,0.0,0.0,0.0,0.0,0.0,0.0,0.0,0.0,0.0,0.0,0.0,0.0,0.0,0.0,0.0,0.0,0.0,0.0,0.0,0.0,0.0,0.0,0.0,0.0,0.0,0.0,0.0,0.0,0.0,0.0,0.0,0.0,0.0,0.0,0.0,0.0,0.0,0.0,0.0,0.0,0.0,0.0,0.0,0.0,0.0,0.0,0.0,0.0,0.0,0.0,0.0,0.0,0.0,0.0,0.0,0.0,0.0,0.0,0.0,0.0,0.0,0.0,0.0,0.0,0.0,0.0,0.0,0.0,0.0,0.0,0.0,0.0,0.0,0.0,0.0,0.0,0.0,0.0,0.0,0.0,0.0,0.0,0.0,0.0,0.0,0.0,0.0,0.0,0.0,0.0,0.0,0.0,0.0,0.0,0.0,0.0,0.0,0.0,0.0,0.0,0.0,1.2207,1.2241,1.2275,1.2275,1.2318,1.2372,1.2372,1.2454,1.2501,1.2501,0.0,0.0,0.0,0.0,0.0,0.0,0.0,0.0,0.0,0.0,0.0,0.0,0.0,0.0,0.0,0.0,0.0,0.0,0.0,0.0,0.0,0.0,0.0,0.0,0.0,0.0,0.0,0.0,0.0,0.0,0.0,0.0,0.0,0.0,0.0,0.0,0.0,0.0,0.0,0.0,0.0,0.0,0.0,0.0,0.0,0.0,0.0,0.0,0.0,0.0,0.0,0.0,0.0,0.0,0.0,0.0,0.0,0.0,0.0,0.0,0.0,0.0,0.0,0.0,0.0,0.0,0.0,0.0,0.0,0.0,0.0,0.0,0.0,0.0,0.0,0.0,0.0,0.0,0.0,0.0,0.0,0.0,0.0,0.0,0.0,0.0,0.0,0.0,0.0,0.0,0.0,0.0,0.0,0.0,0.0,0.0,0.0,0.0,0.0,0.0,0.0,0.0,1.2311,1.242,1.2501,1.2501,1.2501,1.2501,1.2501,1.2501,1.2501,1.2501,0.0,0.0,0.0,0.0,0.0,0.0,0.0,0.0,0.0,0.0,0.0,0.0,0.0,0.0,0.0,0.0,0.0,0.0,0.0,0.0,0.0,0.0,0.0,0.0,0.0,0.0,0.0,0.0,0.0,0.0,0.0,0.0,0.0,0.0,0.0,0.0,0.0,0.0,0.0,0.0,0.0,0.0,0.0,0.0,0.0,0.0,0.0,0.0,0.0,0.0,0.0,0.0,0.0,0.0,0.0,0.0,0.0,0.0,0.0,0.0,2.2452,2.3655,0.0,0.0,0.0,0.0,0.0,0.0,0.0,0.0,0.0,0.0,0.0,0.0,0.0,0.0,0.0,0.0,0.0,0.0,0.0,0.0,0.0,0.0,0.0,0.0,0.0,0.0,0.0,0.0,0.0,0.0,0.0,0.0,0.0,0.0,0.0,0.0,0.0,0.0,0.0,0.0,1.2454,1.2481,1.2501,1.2501,1.2501,1.2501,1.2501,1.2501,1.2501,1.2501,1.2501,0.0,0.0,0.0,0.0,0.0,0.0,0.0,0.0,0.0,0.0,0.0,0.0,0.0,0.0,0.0,0.0,0.0,0.0,0.0,0.0,0.0,0.0,0.0,0.0,0.0,0.0,0.0,0.0,0.0,0.0,0.0,0.0,0.0,0.0,0.0,0.0,0.0,0.0,0.0,0.0,0.0,0.0,0.0,0.0,0.0,0.0,0.0,0.0,0.0,0.0,0.0,0.0,0.0,0.0,0.0,0.0,0.0,0.0,0.0,2.2546,2.3536,0.0,0.0,0.0,0.0,0.0,0.0,0.0,0.0,0.0,0.0,0.0,0.0,0.0,0.0,0.0,0.0,0.0,0.0,0.0,0.0,0.0,0.0,0.0,0.0,0.0,0.0,0.0,0.0,0.0,0.0,0.0,0.0,0.0,0.0,0.0,0.0,0.0,0.0,0.0,0.0,1.2501,1.2501,1.2501,1.2501,1.2501,1.2501,1.2501,1.2501,1.2501,1.2501,1.2501,0.0,0.0,0.0,0.0,0.0,0.0,0.0,0.0,0.0,0.0,0.0,0.0,0.0,0.0,0.0,0.0,0.0,0.0,0.0,0.0,0.0,0.0,0.0,0.0,0.0,0.0,0.0,0.0,0.0,0.0,0.0,0.0,0.0,0.0,0.0,0.0,0.0,0.0,0.0,0.0,0.0,0.0,0.0,0.0,0.0,0.0,0.0,0.0,0.0,0.0,0.0,0.0,0.0,2.2714,2.2564,2.2136,2.0776,2.0829,2.2022,2.2818,2.3457,2.4053,2.4497,0.0,0.0,0.0,0.0,0.0,0.0,0.0,0.0,0.0,0.0,0.0,0.0,0.0,0.0,0.0,0.0,0.0,0.0,0.0,0.0,0.0,0.0,1.6819,1.3335,1.2501,1.2501,1.2501,0.0,0.0,0.0,0.0,0.0,0.0,0.0,0.0,0.0,0.0,0.0,1.2501,1.2501,1.2501,1.2501,1.2501,1.2501,1.2501,1.2501,1.2501,1.2501,1.2528,1.2542,0.0,0.0,0.0,0.0,0.0,0.0,0.0,0.0,0.0,0.0,0.0,0.0,0.0,0.0,0.0,0.0,0.0,0.0,0.0,0.0,0.0,0.0,0.0,0.0,0.0,0.0,0.0,0.0,0.0,0.0,0.0,0.0,2.1301,2.2394,0.0,0.0,0.0,0.0,0.0,0.0,0.0,0.0,0.0,0.0,0.0,0.0,0.0,2.2028,2.193,2.1397,2.1159,2.1172,2.086,2.0342,1.9663,1.9967,1.9877,1.9485,1.9969,0.0,2.2758,2.1802,0.0,0.0,0.0,0.0,0.0,0.0,0.0,0.0,0.0,0.0,0.0,0.0,0.0,0.0,0.0,0.0,0.0,0.0,0.0,0.0,0.0,0.0,1.4866,1.296,1.2501,1.2501,1.2501,1.2501,1.2501,1.2501,1.2501,1.2501,0.0,0.0,0.0,0.0,0.0,0.0,1.2501,1.2501,1.2501,1.2501,1.2501,1.2501,1.2501,1.2501,1.2501,1.2501,1.2623,1.2659,1.2659,1.2827,0.0,0.0,0.0,0.0,0.0,0.0,0.0,0.0,0.0,0.0,0.0,0.0,0.0,0.0,0.0,0.0,0.0,0.0,0.0,0.0,0.0,0.0,0.0,0.0,0.0,0.0,0.0,0.0,0.0,2.1917,2.1758,2.2707,2.2158,2.2119,0.0,0.0,0.0,0.0,0.0,0.0,0.0,0.0,0.0,2.1818,2.1417,2.1057,2.0848,2.0359,2.0155,2.0155,1.9978,1.9623,1.9115,1.9356,1.9168,1.8679,1.9087,1.9611,2.0288,2.0755,2.1541,2.2402,0.0,0.0,0.0,0.0,2.1468,2.1397,2.078,2.0236,1.9751,1.9237,0.0,0.0,0.0,0.0,0.0,0.0,0.0,1.9817,1.6912,1.5669,1.4744,1.2943,1.2501,1.2501,1.2501,1.2501,1.2501,1.2501,1.2501,1.2501,1.2501,1.2501,0.0,0.0,0.0,1.2501,1.2501,1.2501,1.2501,1.2501,1.2576,1.2591,1.2591,1.2712,1.2799,1.2799,1.282,1.2861,1.2861,1.2969,1.3037,0.0,0.0,0.0,0.0,0.0,0.0,0.0,0.0,0.0,0.0,0.0,0.0,0.0,0.0,0.0,0.0,0.0,0.0,0.0,0.0,0.0,0.0,0.0,0.0,0.0,0.0,0.0,0.0,2.2231,2.1894,2.2686,2.2372,2.2338,0.0,0.0,0.0,0.0,0.0,0.0,2.2005,2.1719,2.1461,2.1225,2.0693,2.0323,2.011,1.9761,1.968,1.9819,1.9749,1.9502,1.9171,1.9116,1.8871,1.8519,1.8735,1.8679,1.8517,1.9966,2.0838,2.1219,2.0358,1.9877,1.9642,1.9405,1.936,1.9181,1.8094,1.7517,1.7148,1.6221,1.6072,1.6367,1.6916,0.0,0.0,0.0,0.0,1.8462,1.5594,1.4686,1.422,1.2842,1.2528,1.2569,1.261,1.2623,1.2596,1.2515,1.2501,1.2501,1.2501,1.2535,0.0,1.2562,1.2596,1.2623,1.2623,1.2623,1.2623,1.2623,1.2725,1.2786,1.2786,1.2895,1.3003,1.3003,1.3037,1.3057,1.3057,1.3091,1.3166,1.3268,0.0,0.0,0.0,0.0,0.0,0.0,0.0,0.0,0.0,0.0,0.0,0.0,0.0,0.0,0.0,0.0,0.0,0.0,0.0,0.0,0.0,0.0,0.0,0.0,0.0,0.0,0.0,0.0,0.0,2.185,2.1373,0.0,0.0,0.0,0.0,2.237,2.1036,2.0546,2.1213,1.9922,1.9333,1.9692,1.9657,1.9808,2.011,1.9761,1.9877,2.0438,2.0084,1.9829,1.9645,1.9413,1.9088,1.8756,1.853,1.8433,1.8433,1.8901,1.889,1.86,1.853,1.8495,1.867,2.0223,2.0798,2.0626,1.9507,1.8384,1.7253,1.5731,1.5783,1.6381,1.6308,1.6868,0.0,0.0,1.6216,1.4797,1.4735,1.3494,1.2323,1.2472,1.261,1.2759,1.2948,1.2975,1.2894,1.2556,1.2501,1.2501,1.2501,0.0,1.2679,1.2679,1.284,1.2975,1.2975,1.2975,1.2975,1.2975,1.2982,1.2989,1.2989,1.2996,1.3003,1.3003,1.3125,1.32,1.32,1.3302,1.3383,1.339,1.339,0.0,0.0,0.0,0.0,0.0,0.0,0.0,0.0,0.0,0.0,0.0,0.0,0.0,0.0,0.0,0.0,0.0,0.0,0.0,0.0,0.0,0.0,0.0,0.0,0.0,0.0,0.0,0.0,2.2091,2.1753,0.0,2.126,2.1582,2.156,2.0915,2.0203,1.9888,2.0164,1.9669,1.9621,2.0169,1.9686,1.9553,1.9817,1.934,1.9306,1.9716,1.9723,1.9548,1.9249,1.9407,1.9151,1.8552,1.8711,1.8643,1.8433,1.8819,1.8749,1.8328,1.758,1.7298,1.7298,1.7163,1.6625,1.6079,1.6567,1.5999,1.4978,1.4413,1.381,1.3527,1.4728,1.5362,1.5642,1.5677,1.5229,1.4496,1.3435,1.2754,1.2393,1.2603,1.2766,1.2895,1.2989,1.3003,1.2969,1.286,1.2839,1.2839,1.2839,1.284,1.2881,1.2881,1.2969,1.3003,1.3003,1.3003,1.3003,1.3003,1.3084,1.3139,1.3139,1.3227,1.3247,1.3247,1.3295,1.3322,1.3322,1.337,1.3403,1.3403,1.3403,1.3451,0.0,0.0,0.0,0.0,0.0,0.0,0.0,0.0,0.0,0.0,0.0,0.0,0.0,0.0,0.0,0.0,0.0,0.0,0.0,0.0,0.0,0.0,0.0,0.0,0.0,2.1982,2.1338,2.1377,2.1429,2.112,2.0392,2.0736,2.069,1.9876,1.961,1.9536,1.9616,1.9442,1.9641,2.0273,1.9645,1.9509,1.9964,1.9371,1.9274,1.9568,1.958,1.9475,1.9302,1.9386,1.9131,1.8635,1.8744,1.8643,1.8433,1.8679,1.8643,1.8328,1.758,1.7092,1.669,1.5979,1.5023,1.4163,1.4714,1.4135,1.3154,1.3154,1.2575,1.2065,1.332,1.3738,1.3834,1.3834,1.3878,1.3691,1.2531,1.2359,1.2542,1.2652,1.2881,1.3091,1.3139,1.3152,1.3152,1.3152,1.3071,1.3003,1.3003,1.3043,1.3071,1.3071,1.3118,1.3152,1.3152,1.3152,1.3152,1.3152,1.3193,1.3247,1.3247,1.3342,1.3403,1.3403,1.3403,1.3403,1.3403,1.3451,1.3478,1.3478,1.3526,1.36,1.366,0.0,0.0,0.0,0.0,0.0,0.0,0.0,0.0,0.0,0.0,0.0,0.0,0.0,0.0,0.0,0.0,0.0,0.0,0.0,0.0,0.0,0.0,0.0,2.1786,2.0894,2.0051,1.9688,2.0255,2.0078,1.8563,1.976,2.0266,1.9362,1.9288,1.9399,1.9667,1.9123,1.9146,1.9881,1.9524,1.9678,2.0461,1.9951,1.9811,2.0081,1.9711,1.9644,1.9887,1.9359,1.9118,1.9097,1.8635,1.8441,1.8441,1.8441,1.843,1.843,1.842,1.7866,1.7073,1.7093,1.6468,1.5439,1.43,1.3148,1.2186,1.2142,1.22,1.2257,1.2145,1.2104,1.2104,1.2104,1.2111,1.2111,1.2111,1.2291,1.2556,1.2665,1.2963,1.322,1.337,1.3403,1.3403,1.3403,1.3173,1.3016,1.3016,1.3125,1.322,1.322,1.3308,0.0,1.3403,1.3403,1.3403,1.341,1.341,1.341,1.3417,1.3417,1.3417,1.3417,1.3417,1.3417,1.3417,1.3559,1.3592,1.3592,1.3734,1.3802,1.3802,0.0,0.0,0.0,0.0,0.0,0.0,0.0,0.0,0.0,0.0,0.0,0.0,0.0,0.0,0.0,0.0,0.0,0.0,0.0,0.0,0.0,2.1402,2.0898,2.1616,2.107,2.0487,2.0274,2.004,1.9669,1.9096,1.944,1.9487,1.8992,1.8931,1.9071,1.9388,1.9036,1.9191,2.0016,1.9636,1.9639,2.0073,1.9715,1.973,2.0081,1.9804,1.9676,1.9742,1.961,1.9497,1.9391,1.9262,1.9305,1.9482,1.9273,1.9208,1.9176,1.8821,1.8546,1.8226,1.7514,1.6666,1.5716,1.4578,1.3976,1.3687,1.3567,1.2921,1.2152,1.2111,1.2179,1.2268,1.2268,1.2298,1.2379,1.2379,1.2642,1.2887,1.2928,1.3125,1.3349,1.339,1.3403,1.3403,1.3403,1.3336,1.3281,1.3281,1.3315,1.3336,1.3336,1.3376,1.3403,1.3403,1.3403,1.3444,1.3511,1.3566,1.3565,1.3666,1.368,1.368,1.368,1.368,1.368,1.368,1.372,1.3741,1.3741,1.3933,1.4007,0.0,0.0,0.0,0.0,0.0,0.0,0.0,0.0,0.0,0.0,0.0,0.0,0.0,0.0,0.0,0.0,0.0,0.0,0.0,0.0,0.0,0.0,2.0612,2.0098,2.0833,2.0488,2.005,1.9801,1.958,1.9381,1.9135,1.9129,1.9071,1.8813,1.9018,1.9235,1.9369,1.9199,1.9391,2.007,1.9722,1.9675,1.9992,1.9881,1.9914,2.0128,1.9997,1.9931,1.9883,1.9712,1.9591,1.9488,1.9391,1.9424,1.9542,1.9413,1.9312,1.9327,0.0,0.0,0.0,0.0,1.6368,1.5714,1.4586,1.4236,1.4114,1.3588,1.292,1.2281,1.2281,1.2311,1.2379,1.2379,1.244,1.2501,1.2501,1.2771,1.3003,1.3003,1.3186,1.3417,1.3485,1.3498,1.3512,1.3573,1.3587,0.0,1.3587,1.3539,1.3498,1.3498,1.3546,1.3587,1.3587,1.3587,1.362,1.3666,1.3673,1.3707,1.3788,1.3795,0.0,0.0,0.0,1.3829,1.3933,1.3939,0.0,0.0,0.0,1.4163,1.417,1.4258,0.0,0.0,1.4163,1.4217,0.0,0.0,0.0,0.0,0.0,0.0,0.0,0.0,0.0,0.0,0.0,0.0,0.0,0.0,0.0,0.0,1.9935,1.944,1.9761,1.9533,1.9211,1.8896,1.9052,1.9135,1.8928,1.8981,1.8959,1.8878,1.9348,1.9639,1.9525,1.9499,0.0,0.0,0.0,1.9771,2.0139,2.0228,2.0253,2.0253,2.0253,2.0253,2.0242,1.9811,1.9639,1.965,1.9398,1.9322,1.9355,1.9322,1.929,1.9269,1.9032,1.8299,1.7237,1.6237,1.5679,1.5297,1.4332,0.0,0.0,1.2856,1.2556,1.2556,1.2556,1.2556,1.2549,1.2528,1.2542,1.2549,1.2528,1.2752,1.3023,1.3023,1.3214,1.3464,1.3558,1.3599,1.3646,1.3774,1.3795,1.3795,1.3795,1.3693,1.3612,1.3612,1.3714,1.3795,1.3795,1.3795,1.3802,1.3822,1.3822,0.0,1.3849,1.3849,1.3849,1.3849,1.3849,1.3953,1.4132,1.4139,1.4163,1.4299,1.4299,1.4299,1.4299,1.4299,1.4299,1.4299,1.4299,1.4299,0.0,0.0,0.0,0.0,0.0,0.0,0.0,0.0,0.0,0.0,0.0,0.0,0.0,0.0,0.0,2.0764,2.0128,1.9551,1.9297,1.9351,1.9402,1.9225,1.8829,1.8837,1.947,1.9253,1.9148,1.9338,1.9476,1.9519,1.9499,1.9499,1.9709,2.0173,2.0108,2.0205,2.0505,2.0524,2.0539,2.0539,2.0539,0.0,2.0529,2.0442,2.0496,2.063,2.0587,2.0684,2.0845,2.0651,2.0457,2.0176,1.8719,1.7013,1.535,1.5217,1.4531,1.3636,1.3465,1.3358,1.3304,1.3021,1.2914,1.2914,1.2914,1.2914,0.0,1.2718,1.2773,1.2887,1.2718,1.2908,1.3173,1.3173,1.3363,1.3551,1.3578,1.3673,1.3761,1.3795,1.3795,1.3795,1.3795,1.3774,1.3754,1.3754,1.3781,1.3795,1.3795,1.3795,1.3842,1.4014,1.4027,1.4075,1.4204,1.4211,1.4211,1.4211,1.4211,1.4224,1.4251,1.4258,1.4272,1.4299,1.4299,1.4299,1.4299,1.4299,1.4299,1.4299,1.4299,1.4299,0.0,0.0,0.0,0.0,0.0,0.0,0.0,0.0,0.0,0.0,0.0,2.1453,2.128,0.0,2.0579,2.0269,1.9882,1.961,1.961,1.9535,1.9487,1.9395,1.9109,1.913,1.9551,1.9292,1.9161,1.9279,1.9728,2.0008,2.0008,2.0238,2.0441,2.0681,2.0509,2.0447,2.0604,2.0712,2.0737,2.0737,2.0737,2.0737,2.0727,2.0658,2.0669,2.0737,2.0737,2.0842,2.0949,2.082,2.0332,1.9679,1.874,1.8132,1.7715,1.7777,1.7416,1.6818,1.6178,1.5938,1.5842,1.517,1.4947,1.4947,1.4947,1.4468,1.3934,1.3847,1.3413,1.2982,1.2868,1.301,1.3214,1.3214,1.3403,1.3605,1.368,1.3808,1.398,1.4055,1.4068,1.4068,1.4068,1.4068,1.4041,1.3966,1.4021,1.4068,1.4068,1.4068,1.4102,1.4177,1.4183,1.4217,1.4292,1.4299,1.4299,1.4299,1.4299,1.4299,1.4299,1.4299,1.4299,1.4299,1.4299,1.4299,1.4299,1.4299,1.4299,1.4299,1.4299,1.4299,0.0,0.0,0.0,0.0,0.0,0.0,0.0,2.129,2.1203,2.1488,2.1561,2.1412,2.0852,2.0626,2.0386,1.9935,1.9693,1.9675,2.001,1.983,1.9639,1.9639,1.9553,1.9521,1.9564,1.9519,1.9433,1.9433,2.0197,2.0607,2.0562,2.0908,2.1084,2.1128,2.0826,2.069,2.0744,2.0888,2.0974,2.0974,2.0974,2.0974,2.0974,2.082,2.0744,2.0744,2.0744,2.0744,2.0744,2.0744,2.0168,1.9364,1.9364,1.9942,2.0626,1.9856,1.9421,1.9065,1.8016,1.7857,1.7857,1.6632,1.6401,1.6561,1.6321,1.5481,1.4592,1.4594,1.3854,1.3077,1.305,1.3152,1.3268,1.3254,1.3471,1.3666,1.3815,1.4007,1.415,1.4278,1.4299,1.4299,1.4299,1.4299,1.4258,1.418,1.4224,1.4299,1.4299,1.4299,1.4299,1.4299,1.4299,1.4299,1.4299,1.4299,1.4299,1.4299,1.4299,1.4299,1.4299,1.4299,1.4299,1.4299,1.4299,1.4299,1.4299,1.4299,1.4299,1.4299,1.4299,1.4299,2.349,2.3216,2.2488,2.2493,2.219,2.1963,0.0,2.1324,2.0672,2.0926,2.0168,1.9609,2.0094,1.9893,1.9822,2.0325,2.0091,1.9887,1.9924,2.0032,2.0134,2.0134,1.9758,1.9575,1.9827,2.0363,2.0664,2.0626,2.0946,2.1002,2.0791,2.0686,2.073,2.0935,2.0906,2.0974,2.1241,2.1222,2.1273,2.1273,2.1273,2.1273,2.1233,2.1251,2.1241,2.1241,2.1241,2.1241,2.1241,2.1241,2.113,2.1031,2.1031,2.1101,2.0786,1.7267,1.5229,1.4208,1.4043,1.4777,1.5549,1.4208,1.462,1.5352,1.4167,1.3679,1.3528,1.3431,1.337,1.3322,1.3227,1.3261,1.341,1.3546,1.366,1.3815,1.4014,1.4163,1.4278,1.4299,1.4299,1.4299,1.4299,1.4299,1.4292,1.4278,1.4292,1.4299,1.4299,1.4299,1.4299,1.4299,1.4299,1.4299,1.4299,1.4299,1.4299,1.4299,1.4299,1.4299,1.4299,1.4299,1.4299,1.4299,1.4299,1.4299,1.4299,1.4299,1.4299,1.4299,1.4299,1.4299,2.3441,2.3464,2.3055,2.1943,2.1492,2.12,2.0642,2.0274,2.0092,2.0373,2.0036,1.983,2.0247,2.0003,1.9811,2.0097,2.0342,2.0402,2.0097,2.0495,2.0686,2.0453,2.0361,2.0253,2.0081,2.0467,2.0631,2.0451,2.1062,2.1385,2.1285,2.132,2.1417,2.1475,2.1245,2.1168,2.1316,2.1316,2.1316,2.1316,2.1316,2.1316,2.1316,2.1316,2.1316,2.1316,2.1316,2.1316,2.1316,2.1316,2.1316,2.1316,2.1316,2.082,2.0039,1.9175,1.8482,1.7992,1.7992,1.8359,1.8727,1.8196,1.8359,1.8727,1.8155,1.746,1.6664,1.5812,1.5106,1.4368,1.3528,1.3356,1.3437,1.3551,1.3693,1.3842,1.4084,1.419,1.4299,1.4299,1.4299,1.4299,1.4299,1.4299,1.4299,1.4299,1.4299,1.4299,1.4299,1.4299,1.4299,1.4299,1.4299,1.4299,1.4299,1.4299,1.4299,1.4299,1.4299,1.4299,1.4299,1.4299,1.4299,1.4299,1.4299,1.4299,1.4299,1.4299,1.4299,1.4299,1.4299,1.4299,2.3127,2.2944,2.2593,2.1381,2.0864,2.0468,1.9822,1.9849,2.0039,2.0173,2.0218,2.0296,2.054,2.0189,1.9962,2.0217,2.0528,2.0627,2.0345,2.0784,2.1004,2.073,2.0867,2.0885,2.0602,2.0815,2.0858,2.058,2.1254,2.1652,2.1585,2.1658,2.1801,2.1922,2.164,2.1518,2.164,2.164,2.1599,2.1478,2.1478,2.1397,2.1316,2.1316,2.1316,2.1316,2.1316,2.1316,2.1316,2.1316,2.1316,2.1316,2.1316,2.0698,1.9957,2.0941,2.083,2.0211,2.0211,2.0211,2.013,1.9795,1.9673,1.9591,1.9225,1.8441,1.7451,1.6517,1.5571,1.4623,1.3645,1.3403,1.3451,1.3599,1.3727,1.3849,1.4095,1.4224,1.4299,1.4299,1.4299,1.4299,1.4299,1.4299,1.4299,1.4299,1.4299,1.4299,1.4299,1.4299,1.4299,1.4299,1.4299,1.4299,1.4299,1.4299,1.4299,1.4299,1.4299,1.4299,1.4299,1.4299,1.4299,1.4299,1.4299,1.4299,1.4299,1.4299,1.4299,1.4299,1.4299,1.4299,2.2672,2.143,2.043,2.0973,2.052,2.0066,2.0534,2.0649,2.0655,2.0493,2.0511,2.0551,2.0769,2.0309,2.0185,2.1002,2.0621,2.0296,2.0561,2.0788,2.0888,2.0888,2.1114,2.1369,2.1545,2.1745,2.176,2.1477,2.1727,2.176,2.1528,2.1388,2.1518,2.1882,2.1882,2.2124,2.2567,2.2567,2.2326,2.1882,2.1882,2.168,2.1316,2.1316,2.1316,2.1316,2.1316,2.1316,2.1316,2.1316,2.1316,2.1316,2.1316,2.1276,2.1235,2.1276,1.9632,1.7419,1.7419,1.7419,1.7214,1.5983,1.5571,1.5324,1.4018,1.3604,1.3562,1.3521,1.3486,1.3445,1.3403,1.3403,1.3478,1.372,1.3795,1.3883,1.4224,1.4299,1.4299,1.4299,1.4299,1.4299,1.4299,1.4299,1.4299,1.4299,1.4299,1.4299,1.4299,1.4299,1.4299,1.4299,1.4299,1.4299,1.4299,1.4299,1.4299,1.4299,1.4299,1.4299,1.4299,1.4299,1.4299,1.4299,1.4299,1.4299,1.4299,1.4299,1.4299,1.4299,1.4299,1.4299,2.1694,2.101,2.065,2.0368,2.0184,2.0064,2.0269,2.024,2.016,2.0097,2.0575,2.1031,2.1347,2.1178,2.1132,2.1671,2.1642,2.148,2.1294,2.1913,2.231,2.207,2.2108,2.2211,2.2241,2.2028,2.1932,2.1953,2.2219,2.2332,2.2241,2.22,2.2205,2.2366,2.2366,2.2447,2.2608,2.2285,2.2043,2.1882,2.1752,2.1624,2.1513,2.1663,2.178,2.178,2.1749,2.1749,2.178,2.178,2.1642,2.1502,2.1502,2.1416,2.1316,2.1316,2.0739,1.9957,1.9957,1.9957,1.9876,1.9469,1.9307,1.9225,1.8777,1.8033,1.7123,1.6229,1.5365,1.4507,1.3645,1.3478,1.3558,1.3754,1.3919,1.4048,1.4258,1.4299,1.4326,1.4421,1.4441,1.4475,1.4532,1.459,1.459,1.459,1.4509,1.4441,1.4441,1.4529,1.459,1.459,1.459,1.459,1.459,1.459,1.459,1.459,1.459,1.459,1.459,1.459,1.459,1.459,1.459,1.459,1.459,1.459,1.459,1.459,1.459,1.459,2.0925,2.0443,2.0169,2.0004,1.9932,1.9929,2.0006,2.0139,2.0163,2.0049,2.1006,2.198,2.2285,2.2473,2.267,2.2851,2.2795,2.2533,2.2032,2.2533,2.2889,2.2648,2.2608,2.2648,2.2809,2.2527,2.2367,2.2328,2.2505,2.2608,2.2608,2.2608,2.2688,2.2809,2.2688,2.2734,2.2936,2.2491,2.2211,2.2148,2.188,2.1749,2.176,2.19,2.2007,2.2017,2.1986,2.2017,2.2007,2.192,2.176,2.162,2.162,2.1523,2.1416,2.1502,2.1534,2.1543,2.1381,2.0992,2.0576,2.0576,2.0242,1.9876,1.9876,1.9356,1.8544,1.7681,1.6535,1.5378,1.4508,1.3964,1.37,1.3892,1.4041,1.4197,1.4346,1.4421,1.4482,1.4532,1.459,1.4579,1.4674,1.4694,1.4694,1.4694,1.4706,1.4658,1.4597,1.4633,1.4694,1.4694,1.4694,1.4694,1.4694,1.4694,1.4694,1.4694,1.4694,1.4694,1.4694,1.4694,1.4694,1.4694,1.4694,1.4694,1.4694,1.4694,1.4694,1.4694,1.4694,1.4694,2.0422,1.9641,1.9036,1.9859,1.9807,1.9575,1.9849,2.0353,2.0671,2.0308,2.1801,2.3242,2.3411,2.4085,2.4544,2.4469,2.3971,2.3358,2.2745,2.2648,2.2648,2.2648,2.2648,2.2809,2.3199,2.3251,2.309,2.27,2.2648,2.2648,2.2648,2.2648,2.2809,2.3222,2.2861,2.2947,2.3557,2.3108,2.2782,2.2571,2.2195,2.2039,2.2008,2.205,2.205,2.2029,2.205,2.2039,2.2007,2.1749,2.1653,2.1631,2.1631,2.1631,2.1663,2.19,2.1986,2.1942,2.151,2.0486,1.9448,1.9448,1.8592,1.7527,1.7527,1.766,1.7802,1.7802,1.6927,1.5999,1.5914,1.4906,1.3928,1.4078,1.4197,1.4346,1.4482,1.4631,1.4694,1.4708,1.4714,1.4714,1.4714,1.4714,1.4714,1.4714,1.4889,1.493,1.4728,1.4714,1.4714,1.4714,1.4714,1.4714,1.4714,1.4714,1.4714,1.4714,1.4714,1.4714,1.4714,1.4714,1.4714,1.4714,1.4714,1.4714,1.4714,1.4714,1.4714,1.4714,1.4714,1.4714,1.9497,1.9282,1.9385,1.9615,1.974,1.986,2.0059,2.0243,2.0379,2.0475,2.1978,2.3137,2.2773,2.3602,2.4216,2.3753,2.3463,2.3242,2.3055,2.3319,2.348,2.348,2.348,2.352,2.364,2.364,2.3684,2.3794,2.3599,2.348,2.348,2.348,2.3494,2.3481,2.3411,2.3376,2.3384,2.2887,2.2505,2.2143,2.2201,2.2202,2.2213,2.2428,2.2503,2.2503,2.2503,2.2406,2.2234,2.2138,2.204,2.192,2.192,2.192,2.1931,2.1965,2.1986,2.1996,2.1846,2.1596,2.1305,2.1326,2.1077,2.0786,2.0786,2.0149,1.9393,1.9393,1.8464,1.7239,1.6169,1.5759,1.5356,1.4322,1.4272,1.4468,1.4502,1.4631,1.4728,1.4889,1.4997,1.5072,1.5072,1.5072,1.5072,1.5072,1.5106,1.5079,1.493,1.5004,1.5072,1.5072,1.5072,1.5072,1.5072,1.5072,1.5072,1.5072,1.5072,1.5072,1.5072,1.5072,1.5072,1.5072,1.5072,1.5072,1.5072,1.5072,1.5072,1.5072,1.5072,1.5072,1.9344,1.9295,1.9521,1.9666,1.9784,2.0119,2.0895,2.1174,2.1481,2.2313,2.3985,2.5101,2.433,2.5253,2.5768,2.4636,2.4245,2.3918,2.3536,2.3748,2.3933,2.3812,2.3909,2.3852,2.3572,2.3532,2.3551,2.3491,2.3629,2.3698,2.3698,2.3643,2.3482,2.3301,2.3211,2.3053,2.2852,2.271,2.2542,2.2319,2.2417,2.2492,2.2492,2.2622,2.2686,2.2686,2.2686,2.2611,2.2482,2.2331,2.2213,2.2126,2.2126,2.2126,2.2148,2.2256,2.2288,2.2319,2.2288,2.2299,2.2256,2.2082,2.2007,2.2007,2.2007,2.1106,2.0089,2.0089,1.8742,1.714,1.6321,1.5741,1.517,1.4389,1.4394,1.4545,1.4523,1.4733,1.4957,1.5091,1.5126,1.5181,1.5181,1.5181,1.5181,1.5181,1.5181,1.5153,1.5119,1.5133,1.5181,1.5181,1.5181,1.5181,1.5181,1.5181,1.5181,1.5181,1.5181,1.5181,1.5181,1.5181,1.5181,1.5181,1.5181,1.5181,1.5181,1.5181,1.5181,1.5181,1.5181,1.5181,1.9695,1.9632,1.9782,1.9989,2.0103,2.05,2.2007,2.2547,2.3177,2.4643,2.6434,2.7447,2.6344,2.7288,2.7578,2.5772,2.5243,2.479,2.3988,2.4037,2.408,2.3852,2.3956,2.3801,2.3288,2.3165,2.2993,2.2699,2.3156,2.3464,2.3505,2.3356,2.3154,2.2912,2.2705,2.2517,2.2331,2.2579,2.2686,2.2686,2.2686,2.2686,2.2686,2.2686,2.2697,2.2729,2.2729,2.2729,2.2718,2.2471,2.2385,2.2385,2.2385,2.2385,2.2417,2.2654,2.2708,2.2686,2.2686,2.2686,2.2611,2.2244,2.2104,2.2104,2.2104,2.1356,2.0485,2.0314,1.8669,1.6876,1.6489,1.5484,1.452,1.4343,1.4509,1.4626,1.4536,1.4848,1.516,1.5181,1.5181,1.5181,1.5181,1.5181,1.5181,1.5181,1.5181,1.5181,1.5181,1.5181,1.5181,1.5181,1.5181,1.5181,1.5181,1.5181,1.5181,1.5181,1.5181,1.5181,1.5181,1.5181,1.5181,1.5181,1.5181,1.5181,1.5181,1.5181,1.5181,1.5181,1.5181,1.5181,2.0184,2.0385,2.0827,2.0872,2.1068,2.1554,2.2757,2.3229,2.3754,2.4993,2.617,2.6455,2.468,2.5537,2.5894,2.3982,2.4073,2.434,2.4154,2.4068,2.4004,2.3969,2.3476,2.3165,2.3255,2.2929,2.286,2.3138,2.2778,2.2687,2.3015,2.2967,2.2966,2.3003,2.278,2.2664,2.2622,2.2665,2.2686,2.2686,2.2686,2.2686,2.2686,2.2686,2.2794,2.2944,2.2944,2.2944,2.2933,2.2901,2.2879,2.2879,2.2879,2.2879,2.289,2.2922,2.2858,2.2686,2.2686,2.2686,2.2665,2.2632,2.2557,2.2557,2.2557,2.2417,2.2008,2.0875,2.0211,1.9326,1.7008,1.6225,1.5741,1.4564,1.4428,1.4543,1.4516,1.4774,1.5085,1.516,1.5181,1.5181,1.5181,1.5181,1.5181,1.5181,1.5181,1.5181,1.5181,1.5181,1.5181,1.5181,1.5181,1.5181,1.5181,1.5181,1.5181,1.5181,1.5181,1.5181,1.5181,1.5181,1.5181,1.5181,1.5181,1.5181,1.5181,1.5181,1.5181,1.5181,1.5181,1.5181,2.0452,2.0658,2.1083,2.1258,2.1536,2.2234,2.4032,2.4666,2.535,2.7043,2.8243,2.8416,2.6633,2.7181,2.7385,2.581,2.5359,2.5175,2.4894,2.4492,2.4085,2.3665,2.332,2.3033,2.2785,2.2572,2.2445,2.2433,2.2138,2.2209,2.2785,2.2671,2.2653,2.2845,2.2751,2.2816,2.3074,2.2816,2.2816,2.3074,2.2816,2.2751,2.288,2.288,2.2955,2.3235,2.3235,2.3235,2.3235,2.3235,2.3235,2.3235,2.3235,2.3116,2.3008,2.3008,2.2847,2.2686,2.2686,2.2686,2.2686,2.2686,2.2686,2.2686,2.2686,2.2201,2.1455,2.0805,1.9535,1.8103,1.6745,1.5873,1.5131,1.4476,1.4353,1.4468,1.4699,1.4801,1.4916,1.514,1.5181,1.5181,1.5181,1.5181,1.5181,1.5181,1.5181,1.5181,1.5181,1.5181,1.5181,1.5181,1.5181,1.5181,1.5181,1.5181,1.5181,1.5181,1.5181,1.5181,1.5181,1.5181,1.5181,1.5181,1.5181,1.5181,1.5181,1.5181,1.5181,1.5181,1.5181,1.5181,2.1037,2.1187,2.1583,2.1825,2.2121,2.2951,2.5302,2.609,2.6898,2.8994,3.0206,3.0372,2.878,2.9039,2.908,2.7892,2.7091,2.6411,2.5831,2.512,2.437,2.3576,2.3211,2.2849,2.2439,2.2243,2.2053,2.1819,2.1819,2.2072,2.2663,2.2498,2.2535,2.2848,2.2772,2.2902,2.3247,2.2902,2.2924,2.3324,2.2935,2.2869,2.3008,2.3008,2.3137,2.3397,2.3397,2.3461,2.3558,2.3558,2.3558,2.3558,2.3558,2.3408,2.3159,2.3159,2.3042,2.2837,2.2837,2.2837,2.2826,2.2772,2.2729,2.2686,2.2686,2.1941,2.0978,2.0675,1.8794,1.6797,1.6528,1.5374,1.4299,1.4299,1.4299,1.4414,1.4828,1.4828,1.4782,1.5126,1.5181,1.5181,1.5181,1.5181,1.5181,1.5181,1.5181,1.5181,1.5181,1.5181,1.5181,1.5181,1.5181,1.5181,1.5181,1.5181,1.5181,1.5181,1.5181,1.5181,1.5181,1.5181,1.5181,1.5181,1.5181,1.5181,1.5181,1.5181,1.5181,1.5181,1.5181,1.5181,2.2435,2.2583,2.3167,2.3065,2.3247,2.3998,2.6135,2.6822,2.7565,2.9445,3.0189,3.0052,2.8732,2.885,2.8837,2.7863,2.784,2.7601,2.664,2.5903,2.5139,2.4151,2.291,2.2253,2.2632,2.2039,2.1913,2.2474,2.2496,2.2538,2.2674,2.2662,2.288,2.3333,2.2902,2.2729,2.2772,2.2729,2.2794,2.3064,2.2976,2.2987,2.3008,2.3008,2.3137,2.3397,2.3397,2.3644,2.4054,2.4054,2.4054,2.4054,2.4054,2.3903,2.3733,2.3733,2.3582,2.3332,2.3332,2.3332,2.33,2.3041,2.2869,2.2686,2.2686,2.26,2.2244,2.0978,1.9491,1.805,1.6891,1.5454,1.4299,1.4299,1.4299,1.4387,1.4647,1.4708,1.4782,1.5126,1.5181,1.5181,1.5181,1.5181,1.5181,1.5181,1.5181,1.5181,1.5181,1.5181,1.5181,1.5181,1.5181,1.5181,1.5181,1.5181,1.5181,1.5181,1.5181,1.5181,1.5181,1.5181,1.5181,1.5181,1.5181,1.5181,1.5181,1.5181,1.5181,1.5181,1.5181,1.5181,2.288,2.3117,2.3656,2.3464,2.3853,2.4752,2.6535,2.7229,2.7982,2.983,3.0857,3.1149,3.016,3.0513,3.0724,3.0122,2.9606,2.8705,2.711,2.6127,2.5031,2.3438,2.2608,2.2297,2.2594,2.2384,2.2294,2.256,2.2879,2.3021,2.2876,2.276,2.2772,2.2988,2.2816,2.2881,2.3282,2.3032,2.3151,2.3655,2.339,2.3332,2.3461,2.3321,2.3386,2.3646,2.3461,2.3591,2.3938,2.3938,2.3978,2.4118,2.4118,2.3967,2.3797,2.3797,2.3646,2.3397,2.3397,2.3397,2.3386,2.3289,2.3192,2.3085,2.2945,2.2998,2.2777,2.1208,1.9848,1.8519,1.7007,1.5562,1.4543,1.4448,1.4496,1.4624,1.4835,1.4875,1.4936,1.5147,1.5181,1.5181,1.5181,1.5181,1.5181,1.5181,1.5181,1.5181,1.5181,1.5181,1.5181,1.5181,1.5181,1.5181,1.5181,1.5181,1.5181,1.5181,1.5181,1.5181,1.5181,1.5181,1.5181,1.5181,1.5181,1.5181,1.5181,1.5181,1.5181,1.5181,1.5181,1.5181,2.3484,2.3692,2.42,2.401,2.4727,2.5832,2.7306,2.8148,2.9043,3.0598,3.1548,3.1931,3.1288,3.1582,3.1876,3.163,3.0587,2.9447,2.8308,2.704,2.5741,2.4525,2.3649,2.3123,2.3166,2.2807,2.273,2.3078,2.3204,2.3306,2.3345,2.2966,2.2848,2.2902,2.2837,2.3,2.3512,2.3249,2.34,2.3996,2.3683,2.3635,2.3787,2.3504,2.3483,2.3679,2.3397,2.3429,2.3689,2.3765,2.3894,2.4011,2.4086,2.4011,2.3894,2.3894,2.3752,2.3612,2.3612,2.3612,2.3601,2.3526,2.3548,2.3569,2.3332,2.3321,2.3132,2.1978,2.044,1.866,1.6587,1.5412,1.4767,1.4618,1.4579,1.4726,1.493,1.4936,1.4957,1.5147,1.5181,1.5181,1.5181,1.5181,1.5181,1.5181,1.5181,1.5181,1.5181,1.5181,1.5181,1.5181,1.5181,1.5181,1.5181,1.5181,1.5181,1.5181,1.5181,1.5181,1.5181,1.5181,1.5181,1.5181,1.5181,1.5181,1.5181,1.5181,1.5181,1.5181,1.5181,1.5181,2.4596,2.4514,2.5068,2.4903,2.605,2.7476,2.8627,2.985,3.1029,3.1895,3.2087,3.2001,3.1669,3.1599,3.1595,3.1595,3.0369,2.9669,3.0458,2.89,2.7826,2.8292,2.6406,2.496,2.462,2.3398,2.3078,2.4189,2.3475,2.3333,2.4041,2.3391,2.3108,2.3376,2.3141,2.3008,2.3008,2.3278,2.3515,2.3787,2.3787,2.3787,2.3787,2.3504,2.3397,2.3386,2.3116,2.3137,2.3418,2.37,2.3797,2.3819,2.4021,2.4107,2.4107,2.4107,2.4107,2.4107,2.4107,2.4107,2.4064,2.3873,2.3903,2.4064,2.3862,2.3625,2.3397,2.3397,2.139,1.8583,1.5497,1.4855,1.493,1.4728,1.4624,1.4597,1.4949,1.4848,1.4782,1.5126,1.5181,1.5181,1.5181,1.5181,1.5181,1.5181,1.5181,1.5181,1.5181,1.5181,1.5181,1.5181,1.5181,1.5181,1.5181,1.5181,1.5181,1.5181,1.5181,1.5181,1.5181,1.5181,1.5181,1.5181,1.5181,1.5181,1.5181,1.5181,1.5181,1.5181,1.5181,1.5181,2.7029,2.6858,2.7076,2.7239,2.7843,2.8673,2.9938,3.0514,3.1131,3.2263,3.2717,3.2806,3.2402,3.2596,3.2315,3.0866,3.0132,2.9414,2.8529,2.7473,2.6824,2.6946,2.5404,2.4092,2.3505,2.3232,2.3094,2.3131,2.3235,2.3279,2.3359,2.314,2.3053,2.3108,2.3204,2.3365,2.3526,2.3646,2.3763,2.4,2.4,2.4,2.3989,2.3797,2.3548,2.3386,2.3105,2.3051,2.3127,2.3235,2.3365,2.3537,2.3819,2.3905,2.3927,2.4054,2.4118,2.4118,2.4118,2.4118,2.4097,2.4021,2.4054,2.4097,2.4021,2.3946,2.3472,2.1389,1.9365,1.7424,1.5409,1.4936,1.4957,1.4909,1.4862,1.4882,1.5072,1.5079,1.5072,1.5167,1.5181,1.5181,1.5181,1.5181,1.5181,1.5181,1.5181,1.5181,1.5181,1.5181,1.5181,1.5181,1.5181,1.5181,1.5181,1.5181,1.5181,1.5181,1.5181,1.5181,1.5181,1.5181,1.5181,1.5181,1.5181,1.5181,1.5181,1.5181,1.5181,1.5181,1.5181,1.5181,2.8127,2.7951,2.8224,2.8587,2.9253,3.0074,3.1051,3.1595,3.2154,3.2947,3.3191,3.3243,3.2946,3.2999,3.2597,3.1155,2.9881,2.901,2.8902,2.7493,2.6473,2.6369,2.532,2.4119,2.2905,2.2793,2.2802,2.2735,2.3071,2.3195,2.2998,2.317,2.3399,2.3577,2.3718,2.396,2.4328,2.4427,2.4548,2.4657,2.4657,2.4566,2.4372,2.4177,2.3891,2.3515,2.3278,2.3137,0.0,2.3278,2.3343,2.3418,2.37,2.3733,2.3689,2.3892,2.3978,2.3989,2.4086,2.4118,2.4118,2.4118,2.4118,2.4118,2.4118,2.4118,2.3465,2.0436,1.8866,1.762,1.5603,1.5098,1.5098,1.5098,1.5057,1.5057,1.5153,1.514,1.512,1.5174,1.5181,1.5181,1.5181,1.5181,1.5181,1.5181,1.5181,1.5181,1.5181,1.5181,1.5181,1.5181,1.5181,1.5181,1.5181,1.5181,1.5181,1.5181,1.5181,1.5181,1.5181,1.5181,1.5181,1.5181,1.5181,1.5181,1.5181,1.5181,1.5181,1.5181,1.5181,1.5181,0.0,2.8221,2.8764,2.9237,3.0435,3.1595,3.2025,3.3002,0.0,3.3817,3.3539,3.3348,3.3348,3.3016,3.2596,3.2105,2.9623,2.8521,3.0801,2.8711,2.6765,2.6449,2.585,2.4743,2.2777,2.2226,2.2282,2.2914,2.2978,2.3042,2.3074,2.3572,2.4102,2.4632,2.4632,2.4812,2.5217,2.5491,2.5605,2.5605,2.5605,2.5332,2.4807,2.4596,2.426,2.3776,2.3515,2.3418,2.3418,2.3679,2.3635,2.3418,2.37,2.3657,2.3451,2.3733,2.3808,2.383,2.4011,2.4086,2.4097,2.4107,2.4118,2.4118,2.4118,2.4118,2.3465,2.0436,1.9602,1.8905,1.5971,1.5174,1.5167,1.5181,1.5119,1.5057,1.5153,1.5079,1.5071,1.52,1.5181,1.5181,1.5181,1.5181,1.5181,1.5181,1.5181,1.5181,1.5181,1.5181,1.5181,1.5181,1.5181,1.5181,1.5181,1.5181,1.5181,1.5181,1.5181,1.5181,1.5181,1.5181,1.5181,1.5181,1.5181,1.5181,1.5181,1.5181,1.5181,1.5181,1.5181,1.5181,3.0326,0.0,3.0579,3.1517,3.2051,3.2503,0.0,3.3593,3.3817,3.3817,3.3747,3.3678,3.3678,3.3608,3.3018,3.1384,2.9539,2.858,2.9305,2.8554,2.7293,2.5558,2.479,2.3904,2.2727,2.2226,2.2114,2.2447,2.2987,2.3457,2.3831,2.4308,2.4946,2.5831,2.5888,2.5752,2.5525,2.5582,2.5605,2.5605,2.5605,2.5332,2.4818,2.4763,2.4368,2.3787,2.3733,2.3614,2.3397,2.3461,2.3451,2.3418,2.37,2.3754,2.3743,2.3935,2.3903,2.3797,2.3862,2.3884,2.3916,2.4054,2.4118,2.4118,2.4118,2.4118,2.3465,2.0436,1.9602,1.8905,1.5971,1.5099,1.5052,1.52,1.5119,1.5057,1.5153,1.52,1.514,1.5174,1.5181,1.5181,1.5181,1.5181,1.5181,1.5181,1.5181,1.5181,1.5181,1.5181,1.5181,1.5181,1.5181,1.5181,1.5181,1.5181,1.5181,1.5181,1.5181,1.5181,1.5181,1.5181,1.5181,1.5181,1.5181,1.5181,1.5181,1.5181,1.5181,1.5181,1.5181,1.5181,3.1184,3.1265,3.1589,3.2408,3.2735,3.3046,3.367,3.3817,3.3817,3.3817,3.3817,3.3817,3.3817,3.367,3.3185,3.2119,3.015,2.8371,2.7362,2.7662,2.7023,2.4526,2.3878,2.3298,2.2393,2.2143,2.2242,2.277,2.3269,2.374,2.4227,2.473,2.5338,2.6067,2.6241,2.63,2.6254,2.6254,2.6254,2.6254,2.6254,2.597,2.5468,2.5286,2.4843,2.4266,2.405,2.3849,2.3731,2.3731,2.3655,2.3614,2.3743,2.3722,2.3657,2.3905,2.3905,2.3808,2.3927,2.3959,2.3981,2.4075,2.4118,2.4118,2.4118,2.4118,2.3465,2.0436,1.9602,1.8905,1.5971,1.5173,1.5086,1.5167,1.5126,1.5086,1.5167,1.5181,1.5181,1.5181,1.5181,1.5181,1.5181,1.5181,1.5181,1.5181,1.5181,1.5181,1.5181,1.5181,1.5181,1.5181,1.5181,1.5181,1.5181,1.5181,1.5181,1.5181,1.5181,1.5181,1.5181,1.5181,1.5181,1.5181,1.5181,1.5181,1.5181,1.5181,1.5181,1.5181,1.5181,1.5181,3.141,3.16,3.1941,3.2466,3.2863,3.3214,3.3707,3.3817,3.3798,3.3709,3.378,3.378,3.3651,3.345,3.3191,3.2929,3.0584,2.7985,2.5644,2.6521,2.6391,2.3689,2.3321,2.3018,2.2228,2.2112,2.2507,2.3417,2.3727,2.4035,2.4473,2.5052,2.554,2.5943,2.6238,2.6594,2.6921,2.6969,2.6981,2.6981,2.6981,2.6755,2.63,2.5844,2.5366,2.4808,2.433,2.4102,2.4102,2.4089,2.3935,2.3797,2.383,2.3722,2.3526,2.3776,2.3819,2.3819,2.3989,2.4054,2.4064,2.4107,2.4118,2.4118,2.4118,2.4118,2.3465,2.0436,1.9602,1.8905,1.5971,1.5181,1.5181,1.5181,1.5181,1.5181,1.5181,1.5181,1.5181,1.5181,1.5181,1.5181,1.5181,1.5181,1.5181,1.5181,1.5181,1.5181,1.5181,1.5181,1.5181,1.5181,1.5181,1.5181,1.5181,1.5181,1.5181,1.5181,1.5181,1.5181,1.5181,1.5181,1.5181,1.5181,1.5181,1.5181,1.5181,1.5181,1.5181,1.5181,1.5181,1.5181,3.141,3.1136,3.1183,3.2308,3.2643,3.29,3.3651,3.3817,3.3725,3.3342,3.3544,3.3596,3.29,3.3303,3.3139,3.1311,2.9194,2.716,2.5329,2.5796,2.5669,2.3863,2.3477,2.3223,2.289,2.2682,2.2969,2.3943,2.4356,2.4687,2.4983,2.5671,2.6058,2.6146,2.6639,2.6828,2.6656,2.6873,2.6981,2.6981,2.6981,2.6755,2.6288,2.5987,2.5611,2.5105,2.4397,2.4085,2.4107,2.39,2.383,2.3808,2.3978,2.4032,2.4011,2.4043,2.397,2.3797,2.383,2.3851,2.3884,2.4043,2.4118,2.4118,2.4118,2.4118,2.3465,2.0436,1.9602,1.8905,1.5971,1.5181,1.5181,1.5181,1.5181,1.5181,1.5181,1.5181,1.5181,1.5181,1.5181,1.5181,1.5181,1.5181,1.5181,1.5181,1.5181,1.5181,1.5181,1.5181,1.5181,1.5181,1.5181,1.5181,1.5181,1.5181,1.5181,1.5181,1.5181,1.5181,1.5181,1.5181,1.5181,1.5181,1.5181,1.5181,1.5181,1.5181,1.5181,1.5181,1.5181,1.5181,3.141,3.124,3.1163,3.1487,3.1409,3.1341,3.1733,3.1801,3.1899,3.2175,3.2544,3.2771,3.2637,3.2466,3.1604,2.9336,2.8666,2.7661,2.5523,2.5674,2.5351,2.3679,2.3253,2.3154,2.3165,2.3075,2.3431,2.4372,2.4621,2.4839,2.5215,2.587,2.6218,2.6218,2.6704,2.6921,2.6801,2.6921,2.6981,2.6981,2.6981,2.6819,2.6449,2.6061,2.5708,2.5345,2.4741,2.4463,2.443,2.4096,2.3961,2.3938,2.3953,2.3959,2.3935,2.4064,2.4043,2.3946,2.3946,2.3946,2.3967,2.4075,2.4118,2.3924,2.3133,2.2903,2.2294,1.9276,1.8998,1.8905,1.5971,1.5181,1.5181,1.5181,1.5181,1.5181,1.5181,1.5181,1.5181,1.5181,1.5181,1.5181,1.5181,1.5181,1.5181,1.5181,1.5181,1.5181,1.5181,1.5181,1.5181,1.5181,1.5181,1.5181,1.5181,1.5181,1.5181,1.5181,1.5181,1.5181,1.5181,1.5181,1.5181,1.5181,1.5181,1.5181,1.5181,1.5181,1.5181,1.5181,1.5181,1.5181,3.141,3.1247,3.0956,3.0409,3.0274,3.0238,3.0124,3.0097,3.0255,3.0855,3.1323,3.1756,3.2106,3.1315,3.0054,2.8336,2.8098,2.7499,2.564,2.5529,2.5066,2.3649,2.3246,2.3188,2.3442,2.3465,2.3839,2.48,2.4937,2.5066,2.5403,2.5897,2.6194,2.6134,2.6608,2.6897,2.6897,2.6957,2.6981,2.6981,2.6981,2.6849,2.6596,2.6166,2.5811,2.553,2.5021,2.4778,2.4734,2.435,2.4152,2.4174,2.4062,2.3981,2.3879,2.3981,2.4032,2.4032,2.4097,2.4118,2.4118,2.4118,2.4118,2.3878,2.2765,2.2156,2.1325,1.8672,1.8486,1.8486,1.5884,1.5181,1.5181,1.5181,1.5181,1.5181,1.5181,1.5181,1.5181,1.5181,1.5181,1.5181,1.5181,1.5181,1.5181,1.5181,1.5181,1.5181,1.5181,1.5181,1.5181,1.5181,1.5181,1.5181,1.5181,1.5181,1.5181,1.5181,1.5181,1.5181,1.5181,1.5181,1.5181,1.5181,1.5181,1.5181,1.5181,1.5181,1.5181,1.5181,1.5181,1.5181,3.141,3.0806,3.0002,2.9225,2.9862,3.0545,3.0208,3.0097,3.0024,2.9717,3.014,3.0632,3.0798,2.9904,2.9214,2.9413,2.7109,2.5312,2.5397,2.4993,2.4518,2.4004,2.3698,2.364,2.3898,2.3962,2.4353,2.5269,2.5577,2.5656,2.5403,2.5897,2.6109,2.5825,2.6343,2.662,2.662,2.6861,2.6981,2.6981,2.6981,2.6849,2.6584,2.6319,2.6022,2.5757,2.5031,2.4711,2.4691,2.4491,2.4365,2.4399,2.466,2.4452,2.4074,2.3868,2.3819,2.3851,2.4032,2.4118,2.4118,2.4118,2.4118,2.4062,2.397,2.2995,2.1556,1.9926,1.8532,1.718,1.5603,1.5181,1.5181,1.5181,1.5181,1.5181,1.5181,1.5181,1.5181,1.5181,1.5181,1.5181,1.5181,1.5181,1.5181,1.5181,1.5181,1.5181,1.5181,1.5181,1.5181,1.5181,1.5181,1.5181,1.5181,1.5181,1.5181,1.5181,1.5181,1.5181,1.5181,1.5181,1.5181,1.5181,1.5181,1.5181,1.5181,1.5181,1.5181,1.5181,1.5181,1.5181,3.141,3.0743,2.9898,2.9095,2.8842,2.8599,2.7947,2.7811,2.7884,2.8253,2.8732,2.9313,3.0055,2.9055,2.8168,2.8281,2.6574,2.5282,2.5379,2.4933,2.4542,2.4377,2.4006,2.3911,2.4341,2.4377,2.4645,2.5355,2.5644,2.574,2.5644,2.615,2.6391,2.6295,2.6644,2.6837,2.6837,2.6933,2.6981,2.6981,2.6825,2.6596,2.6319,2.6054,2.5788,2.5535,2.5268,2.5134,2.5104,2.4726,2.4589,2.4569,2.4562,2.4372,2.4075,2.3985,2.3794,2.3548,2.3634,2.3763,2.3927,2.3927,2.3989,2.374,2.1879,2.0899,1.9973,1.7554,1.6439,1.5877,1.5321,1.5181,1.5181,1.5181,1.5181,1.5181,1.5181,1.5181,1.5181,1.5181,1.5181,1.5181,1.5181,1.5181,1.5181,1.5181,1.5181,1.5181,1.5181,1.5181,1.5181,1.5181,1.5181,1.5181,1.5181,1.5181,1.5181,1.5181,1.5181,1.5181,1.5181,1.5181,1.5181,1.5181,1.5181,1.5181,1.5181,1.5181,1.5181,1.5181,1.5181,1.5181,3.1373,3.0889,3.0087,2.9141,2.8456,2.7728,2.6631,2.6386,2.6541,2.7112,2.7836,2.8626,2.9485,2.8619,2.7767,2.773,2.629,2.5174,2.5258,2.4728,2.4366,2.4451,2.4065,2.4005,2.4535,2.4583,2.4812,2.5355,2.5716,2.5873,2.5788,2.6295,2.6596,2.6596,2.6765,2.6897,2.6981,2.6981,2.6945,2.6861,2.668,2.6499,2.6295,2.5945,2.5692,2.5511,2.5427,2.5391,2.5391,2.5049,2.4921,2.489,2.4592,2.4418,2.4282,2.4228,2.3898,2.3511,2.3598,2.3639,2.3679,2.3679,2.3481,2.2845,2.0824,1.9551,1.8411,1.6471,1.5556,1.5181,1.5181,1.5181,1.5181,1.5181,1.5181,1.5181,1.5181,1.5181,1.5181,1.5181,1.5181,1.5181,1.5181,1.5181,1.5181,1.5181,1.5181,1.5181,1.5181,1.5181,1.5181,1.5181,1.5181,1.5181,1.5181,1.5181,1.5181,1.5181,1.5181,1.5181,1.5181,1.5181,1.5181,1.5181,1.5181,1.5181,1.5181,1.5181,1.5181,1.5181,1.5181,1.5181,3.13,3.1102,3.0463,2.9228,2.8876,2.845,2.677,2.6386,2.6386,2.6386,2.7633,2.8763,2.9029,2.8587,2.8191,2.8177,2.6164,2.4692,2.4969,2.4318,2.3909,2.4174,2.3969,2.4005,2.4523,2.4583,2.4812,2.5355,2.5885,2.6066,2.5801,2.6307,2.6596,2.6596,2.6596,2.6716,2.6981,2.6981,2.6849,2.6596,2.6596,2.6596,2.6572,2.6029,2.5788,2.5776,2.5511,2.5391,2.5391,2.5391,2.5391,2.5348,2.4878,2.4707,2.4687,2.4456,2.4112,2.3753,2.4019,2.3797,2.3397,2.3397,2.245,2.1317,2.1433,1.9441,1.7234,1.732,1.6346,1.5181,1.5181,1.5181,1.5181,1.5181,1.5181,1.5181,1.5181,1.5181,1.5181,1.5181,1.5181,1.5181,1.5181,1.5181,1.5181,1.5181,1.5181,1.5181,1.5181,1.5181,1.5181,1.5181,1.5181,1.5181,1.5181,1.5181,1.5181,1.5181,1.5181,1.5181,1.5181,1.5181,1.5181,1.5181,1.5181,1.5181,1.5181,1.5181,1.5181,1.5181,1.5181,1.5181,3.13,3.0451,2.9386,2.9,2.8022,2.7017,2.6503,2.6386,2.6386,2.6386,2.7107,2.787,2.838,2.7783,2.7299,2.7599,2.6241,2.5114,2.5017,2.4632,2.4379,2.4463,2.4077,2.3933,2.427,2.4475,2.4728,2.509,2.5776,2.6182,2.6109,2.6572,2.6873,2.6873,2.6873,2.6909,2.6981,2.6981,2.6945,2.6873,2.668,2.6487,2.6283,2.5945,2.5788,2.5776,2.5511,2.5391,2.5391,2.5391,2.5391,2.5391,2.5263,2.5006,2.4707,2.4617,2.4123,2.3487,2.3564,2.3403,2.2973,2.1982,2.1507,2.0929,1.8957,1.7786,1.698,1.5985,1.548,1.5181,1.5181,1.5181,1.5181,1.5181,1.5181,1.5181,1.5181,1.5181,1.5181,1.5181,1.5181,1.5181,1.5181,1.5181,1.5181,1.5181,1.5181,1.5181,1.5181,1.5181,1.5181,1.5181,1.5181,1.5181,1.5181,1.5181,1.5181,1.5181,1.5181,1.5181,1.5181,1.5181,1.5181,1.5181,1.5181,1.5181,1.5181,1.5181,1.5181,1.5181,1.5181,1.5181,3.0363,2.9529,2.8486,2.8416,2.7627,2.6781,2.6491,2.6386,2.6426,2.6533,2.6934,2.7378,2.7651,2.7208,2.6768,2.6717,2.587,2.515,2.4873,2.4692,2.4547,2.4439,2.415,2.4017,2.4174,2.4427,2.4704,2.4981,2.5632,2.6109,2.6174,2.6596,2.6873,2.6981,2.6981,2.6981,2.6981,2.6981,2.6933,2.6825,2.6777,2.6608,2.6331,2.6066,2.6005,2.609,2.5716,2.5487,2.5391,2.5391,2.5391,2.5391,2.5391,2.522,2.4963,2.4963,2.4535,2.3935,2.3935,2.3735,2.3163,2.1561,2.0774,2.0014,1.7592,1.656,1.6024,1.5227,1.5119,1.5181,1.5181,1.5181,1.5181,1.5181,1.5181,1.5181,1.5181,1.5181,1.5181,1.5181,1.5181,1.5181,1.5181,1.5181,1.5181,1.5181,1.5181,1.5181,1.5181,1.5181,1.5181,1.5181,1.5181,1.5181,1.5181,1.5181,1.5181,1.5181,1.5181,1.5181,1.5181,1.5181,1.5181,1.5181,1.5181,1.5181,1.5181,1.5181,1.5181,1.5181,1.5181,1.5181,2.9026,2.8476,2.7771,2.7614,2.7528,2.7287,2.6567,2.6386,2.6466,2.672,2.7014,2.7184,2.7007,2.6819,2.6487,2.579,2.5251,2.4885,2.4656,2.4595,2.4499,2.4258,2.421,2.4186,2.4162,2.4415,2.4692,2.4945,2.5475,2.5897,2.6206,2.6439,2.6716,2.6969,2.6981,2.6981,2.6981,2.6981,2.6861,2.6632,2.6873,2.6861,2.662,2.6343,2.6343,2.6536,2.6029,2.568,2.5463,2.5463,2.5451,2.5427,2.5427,2.5415,2.5391,2.5391,2.5092,2.4707,2.4707,2.445,2.3806,2.1931,2.0361,1.8908,1.7274,1.5815,1.4767,1.5094,1.5198,1.5181,1.5181,1.5181,1.5181,1.5181,1.5181,1.5181,1.5181,1.5181,1.5181,1.5181,1.5181,1.5181,1.5181,1.5181,1.5181,1.5181,1.5181,1.5181,1.5181,1.5181,1.5181,1.5181,1.5181,1.5181,1.5181,1.5181,1.5181,1.5181,1.5181,1.5181,1.5181,1.5181,1.5181,1.5181,1.5181,1.5275,1.5462,1.5275,1.5275,1.5462,1.5275,1.5181,2.9153,2.8227,2.7342,2.7289,2.6954,2.6619,2.6439,2.6386,2.6466,2.672,2.6783,2.6721,2.6704,2.6274,2.582,2.5463,2.5012,2.4728,2.4897,2.4728,2.4559,2.4511,2.4318,2.4113,2.3909,2.4306,2.4607,2.4668,2.5367,2.5897,2.6206,2.6439,2.6716,2.6969,2.6981,2.6981,2.6981,2.6981,2.6957,2.6897,2.6957,2.6957,2.6885,2.662,2.6415,2.6258,2.6138,2.6097,2.6049,2.6049,2.5885,2.5704,2.5704,2.5572,2.5391,2.5391,2.5092,2.4707,2.4707,2.445,2.3806,2.1931,2.0361,1.9065,1.8322,1.6487,1.4929,1.609,1.5849,1.5181,1.5181,1.5181,1.5181,1.5181,1.5181,1.5181,1.5181,1.5181,1.5181,1.5181,1.5181,1.5181,1.5181,1.5181,1.5181,1.5181,1.5181,1.5181,1.5181,1.5181,1.5181,1.5181,1.5181,1.5181,1.5181,1.5181,1.5181,1.5181,1.5181,1.5181,1.5181,1.5181,1.5181,1.5181,1.5181,1.5971,1.7452,1.5924,1.5971,1.7452,1.5924,1.5181,2.8542,2.7762,2.7138,2.6894,2.661,2.6386,2.6386,2.6386,2.6427,2.6479,2.6462,2.6375,2.6313,2.5877,2.5326,2.4849,2.4664,2.4632,2.4776,2.48,2.474,2.4595,2.4463,2.4234,2.3848,2.4162,2.4451,2.4571,2.5102,2.5584,2.6013,2.6126,2.6391,2.6789,2.6801,2.6861,2.6981,2.6981,2.6981,2.6981,2.6981,2.6981,2.6981,2.6849,2.6632,2.6379,2.6379,2.6307,2.6218,2.6218,2.6134,2.5957,2.5837,2.5704,2.5572,2.5439,2.5263,2.4921,2.4052,2.3568,2.2923,2.0178,1.8794,1.7964,1.6833,1.5601,1.4781,1.5576,1.5448,1.5146,1.5167,1.5181,1.5181,1.5181,1.5181,1.5181,1.5181,1.5181,1.5181,1.5181,1.5181,1.5181,1.5181,1.5181,1.5181,1.5181,1.5181,1.5181,1.5181,1.5181,1.5181,1.5181,1.5181,1.5181,1.5181,1.5181,1.5181,1.5181,1.5181,1.5181,1.5181,1.5181,1.5181,1.5181,1.6112,1.7087,1.8105,1.8058,1.8058,1.8058,1.704,1.6112,2.7881,2.72,2.6815,2.6486,2.6386,2.6386,2.6386,2.6386,2.6374,2.6253,2.6183,2.6124,2.6,2.5627,2.51,2.4498,2.4489,2.461,2.4613,2.4788,2.4824,2.4547,2.4559,2.4379,2.386,2.4041,2.4282,2.4499,2.4824,2.521,2.5692,2.5764,2.6005,2.6512,2.6524,2.6656,2.6909,2.6921,2.6933,2.6981,2.6981,2.6981,2.6981,2.6981,2.6873,2.6668,2.6668,2.6536,2.6363,2.6363,2.6283,2.6222,2.5957,2.5825,2.5752,2.5487,2.5391,2.5134,2.344,2.274,2.204,1.8698,1.7351,1.6833,1.5433,1.4794,1.4588,1.4965,1.5032,1.5051,1.5194,1.5181,1.5181,1.5181,1.5181,1.5181,1.5181,1.5181,1.5181,1.5181,1.5181,1.5181,1.5181,1.5181,1.5181,1.5181,1.5181,1.5181,1.5181,1.5181,1.5181,1.5181,1.5181,1.5181,1.5181,1.5181,1.5181,1.5181,1.5181,1.5181,1.5181,1.5181,1.5181,1.5181,1.7133,1.8291,1.8617,2.0279,2.0233,1.8617,1.8245,1.704,2.8323,2.6791,2.5828,2.6265,2.6386,2.6386,2.6386,2.6386,2.64,2.64,2.6128,2.5947,2.5997,2.5627,2.5285,2.5166,2.4795,2.451,2.4606,2.462,2.4547,2.4282,2.4451,2.4379,2.386,2.4041,2.421,2.4246,2.4716,2.5138,2.5427,2.5656,2.5921,2.6222,2.6234,2.6367,2.6644,2.6644,2.6765,2.6981,2.6981,2.6981,2.6981,2.6981,2.6969,2.6933,2.6933,2.6909,2.6873,2.6873,2.674,2.6512,2.6234,2.5981,2.5752,2.5487,2.5391,2.522,2.3783,2.3041,2.2352,2.0221,1.8436,1.7219,1.7753,1.6333,1.4768,1.6137,1.5805,1.5051,1.5194,1.5181,1.5181,1.5181,1.5181,1.5181,1.5181,1.5181,1.5181,1.5181,1.5181,1.5181,1.5181,1.5181,1.5181,1.5181,1.5181,1.5181,1.5181,1.5181,1.5181,1.5181,1.5181,1.5181,1.5181,1.5181,1.5181,1.5181,1.5181,1.5181,1.5181,1.5181,1.5181,1.5181,1.7133,1.8934,2.0696,2.0982,2.0973,2.0649,1.8888,1.704,2.9139,2.7034,2.5611,2.6039,2.6266,2.6386,2.6386,2.6386,2.6347,2.6109,2.6092,2.6055,2.5928,2.5451,2.5025,2.4876,2.444,2.4186,2.4359,2.4499,2.4547,2.4427,2.4511,2.4439,2.4053,2.3993,2.4041,2.4186,2.4415,2.4728,2.515,2.5282,2.5535,2.5945,2.6001,2.609,2.6355,2.6355,2.6499,2.6765,2.6909,2.6981,2.6981,2.6981,2.6981,2.6981,2.6981,2.6981,2.6981,2.6981,2.6921,2.6789,2.6512,2.6246,2.5969,2.5704,2.5523,2.5134,2.3268,2.1964,2.0785,1.8619,1.6833,1.5609,1.6005,1.5307,1.4555,1.5284,1.5174,1.4875,1.5025,1.512,1.5181,1.5181,1.5181,1.5181,1.5181,1.5181,1.5181,1.5181,1.5181,1.5181,1.5181,1.5181,1.5181,1.5181,1.5181,1.5181,1.5181,1.5181,1.5181,1.5181,1.5181,1.5181,1.5181,1.5181,1.5181,1.5181,1.5181,1.5181,1.5181,1.5181,1.5181,1.5181,1.7133,1.8524,1.9398,2.0557,2.052,1.9398,1.8524,1.704,3.019,2.811,2.6533,2.655,2.6724,2.6787,2.6465,2.6386,2.6307,2.603,2.6067,2.6105,2.5845,2.5386,2.4948,2.4668,2.4249,2.3993,2.4106,2.4318,2.4487,2.4487,2.4487,2.4415,2.421,2.3957,2.3884,2.4077,2.415,2.4403,2.4873,2.4969,2.521,2.5668,2.5692,2.5813,2.6122,2.6182,2.6283,2.6487,2.668,2.6777,2.6777,2.6777,2.6777,2.6789,2.6921,2.6981,2.6981,2.6981,2.6981,2.6957,2.6692,2.6427,2.6194,2.6001,2.568,2.5104,2.2999,2.1235,1.9525,1.7307,1.5521,1.4299,1.4299,1.4299,1.4333,1.4468,1.4545,1.4681,1.4923,1.5052,1.514,1.5174,1.5181,1.5321,1.5697,1.5744,1.5884,1.6252,1.6018,1.5744,1.5744,1.5462,1.5181,1.5181,1.5181,1.5181,1.5181,1.5181,1.5181,1.5181,1.5181,1.5181,1.5181,1.5181,1.5181,1.5181,1.5181,1.5181,1.5181,1.5181,1.5181,1.5181,1.6619,1.7592,1.8105,2.0094,2.0048,1.8105,1.8105,1.704,3.1432,3.0428,2.9102,2.8305,2.8123,2.7806,2.6646,2.6386,2.6386,2.6386,2.6294,2.6132,2.5845,2.5627,2.5334,2.4957,2.4653,2.4292,2.3864,2.4053,2.421,2.421,2.421,2.421,2.4198,2.3957,2.3812,2.3824,2.4053,2.4318,2.4595,2.4861,2.5126,2.5403,2.5415,2.5535,2.5801,2.6054,2.623,2.6242,2.621,2.6266,2.6266,2.6266,2.6266,2.6291,2.6765,2.6981,2.6981,2.6981,2.6981,2.6957,2.6692,2.6427,2.6218,2.6162,2.5837,2.517,2.3587,2.1672,1.9569,1.7701,1.5829,1.4299,1.4299,1.4299,1.4333,1.4468,1.4516,1.459,1.4896,1.5023,1.5064,1.5153,1.5181,1.5603,1.6993,1.7273,1.7694,1.9091,1.8253,1.7273,1.7273,1.6112,1.5181,1.5181,1.5181,1.5181,1.5181,1.5181,1.5181,1.5181,1.5181,1.5181,1.5181,1.5181,1.5181,1.5181,1.5181,1.5181,1.5181,1.5181,1.5181,1.5181,1.5321,1.6252,1.8105,2.0094,2.0048,1.8105,1.8105,1.704,3.1292,3.0463,2.9425,2.9103,2.8624,2.81,2.765,2.6964,2.6347,2.607,2.599,2.5815,2.5291,2.515,2.5001,2.4706,2.4314,2.4012,2.38,2.4029,2.4198,2.4198,2.4342,2.4451,2.4451,2.421,2.4053,2.4053,2.3981,2.4053,2.4318,2.4595,2.4861,2.5138,2.5306,2.5439,2.5535,2.5788,2.5921,2.5977,2.6134,2.6218,2.6218,2.6218,2.6218,2.6142,2.549,2.5214,2.5214,2.5158,2.5158,2.5203,2.5066,2.5357,2.5921,2.5921,2.5704,2.5232,2.4123,2.2654,2.0882,1.8706,1.692,1.5484,1.4564,1.4299,1.4312,1.436,1.4441,1.4557,1.4767,1.4896,1.5051,1.5147,1.5181,1.5603,1.7087,1.6673,1.6158,1.6673,1.6346,1.5971,1.5971,1.5556,1.5181,1.5181,1.5181,1.5181,1.5181,1.5181,1.5181,1.5181,1.5181,1.5181,1.5181,1.5181,1.5181,1.5181,1.5181,1.5181,1.5181,1.5181,1.5181,1.5181,1.5181,1.5556,1.6252,1.6946,1.6946,1.6252,1.6252,1.5877,3.187,3.1399,3.0734,3.0343,2.9808,2.9169,2.8387,2.7578,2.6797,2.5991,2.5673,2.542,2.4848,2.4631,2.4485,2.44,2.4061,2.38,2.38,2.3957,2.4101,2.4186,2.427,2.4354,2.4451,2.4294,2.4162,2.4065,2.3981,2.4053,2.4306,2.4487,2.4752,2.5126,2.5306,2.5391,2.5391,2.5572,2.5656,2.5656,2.5825,2.5909,2.5909,2.5909,2.5909,2.5865,2.4499,2.403,2.4174,2.3631,2.3453,2.3509,2.3453,2.3842,2.4429,2.4509,2.4641,2.4621,2.381,2.287,2.1704,1.9796,1.7928,1.6225,1.5308,1.4653,1.4299,1.4299,1.4367,1.4475,1.4579,1.4814,1.5051,1.5147,1.5181,1.5462,1.6439,1.6299,1.6065,1.658,1.6299,1.5924,1.5924,1.5509,1.5167,1.512,1.5153,1.5167,1.512,1.5153,1.5181,1.5181,1.5181,1.5181,1.5181,1.5181,1.5181,1.5181,1.5181,1.5181,1.5181,1.5181,1.5181,1.5181,1.5181,1.5181,1.5181,1.5181,1.5181,1.5181,1.5181,1.5181,0.0,0.0,0.0,3.2029,3.1711,3.1115,2.882,2.8237,2.7763,2.6147,2.5422,2.497,2.4572,2.4132,2.3925,2.4178,2.4021,2.3824,2.3824,2.3824,2.3921,2.4162,2.3981,2.3921,2.4174,2.4198,2.4089,2.3836,2.4053,2.4306,2.4559,2.4583,2.4836,2.5379,2.5391,2.5391,2.5391,2.5391,2.5391,2.5391,2.5391,2.5391,2.5391,2.5391,2.5391,2.5348,2.3998,2.3663,2.4019,2.2587,2.1998,2.1998,2.1998,2.1866,2.1703,2.1961,2.2647,2.329,2.2628,2.2249,2.1877,2.0892,1.875,1.6525,1.6445,1.544,1.4343,1.4299,1.4299,1.4333,1.4475,1.474,1.5051,1.5147,1.5181,1.5181,1.5181,1.6299,1.774,1.9184,1.83,1.732,1.732,1.6158,1.518,1.5044,1.5139,1.5133,1.5044,1.5099,1.5181,1.5181,1.5181,1.5181,1.5181,1.5181,1.5181,1.5181,1.5181,1.5181,1.5181,1.5181,1.5181,1.5181,1.5181,1.5181,1.5181,1.5181,1.5181,1.5181,1.5181,1.5181,3.3621,0.0,0.0,0.0,0.0,0.0,3.0874,2.9412,2.7897,2.6801,2.5792,2.497,2.4572,2.4372,2.4437,2.4791,2.4703,2.4527,2.4383,2.4653,2.4698,2.4251,2.4294,2.4318,2.421,2.4198,2.4162,2.4089,2.415,2.4222,2.4294,2.468,2.5041,2.5379,2.5391,2.5391,2.5391,2.5391,2.5391,2.5391,2.5391,2.5391,2.5391,2.5391,2.5391,2.5348,2.3998,2.2902,2.1988,2.0589,1.9975,1.9975,1.9975,2.0594,2.1416,2.1477,2.2122,2.2837,2.2274,2.2524,2.2762,2.1108,2.0066,1.9065,1.7008,1.6137,1.5609,1.4608,1.4299,1.4333,1.4475,1.474,1.503,1.5064,1.5106,1.5181,1.5181,1.5509,1.5924,1.6346,1.6065,1.5784,1.5784,1.5462,1.5167,1.5126,1.516,1.5167,1.5126,1.516,1.5181,1.5181,1.5181,1.5181,1.5181,1.5181,1.5181,1.5181,1.5181,1.5181,1.5181,1.5181,1.5181,1.5181,1.5181,1.5181,1.5181,1.5181,1.5181,1.5181,1.5181,1.5181,0.0,0.0,3.3539,3.3414,0.0,0.0,3.1181,2.9897,2.8431,2.6794,2.5897,2.5249,2.4811,2.4731,2.4849,2.5202,2.5354,2.5263,2.4772,2.5059,2.5071,2.4461,2.4487,2.4523,2.4379,2.4354,2.4306,2.421,2.4198,2.4198,2.4198,2.4704,2.5077,2.5222,2.5331,2.5391,2.5391,2.5391,2.5391,2.5391,2.5391,2.5391,2.5391,2.5391,2.5391,2.5348,2.3998,2.2912,2.205,2.0675,1.937,1.8375,1.8986,1.9335,1.9544,1.9544,2.0144,2.0882,2.0414,2.0848,2.1542,2.0848,2.0197,1.9544,1.8453,1.7315,1.6225,1.5396,1.4734,1.4333,1.4475,1.4645,1.4814,1.4989,1.5078,1.5113,1.5167,1.5181,1.5181,1.5181,1.5181,1.5181,1.5181,1.5133,1.5072,1.5004,1.4812,1.4692,1.4633,1.4494,1.4507,1.4806,1.4812,1.4932,1.5174,1.5181,1.5181,1.5181,1.5181,1.5181,1.5181,1.5181,1.5181,1.5181,1.5181,1.5181,1.5181,1.5181,1.5181,1.5181,1.5181,1.5181,0.0,0.0,0.0,3.3382,3.3309,0.0,3.0754,3.0217,2.9445,2.6906,2.6276,2.6055,2.5623,2.5557,2.5635,2.5896,2.6254,2.6118,2.5126,2.5227,2.5198,2.4666,2.462,2.4649,2.463,2.4654,2.4598,2.4385,2.432,2.4291,2.4234,2.4692,2.4969,2.5005,2.5234,2.5367,2.5391,2.5391,2.5391,2.5391,2.5391,2.5391,2.5391,2.5391,2.5391,2.5348,2.4126,2.3525,2.3299,2.2233,2.0023,1.7455,1.8724,1.8331,1.7112,1.7024,1.763,1.8366,1.7885,1.8322,1.9273,2.0284,1.9762,1.8934,2.0023,1.8619,1.6577,1.6269,1.5264,1.4326,1.4455,1.4502,1.4584,1.4855,1.4989,1.5051,1.5133,1.5174,1.5174,1.516,1.516,1.516,1.516,1.5038,1.4896,1.4714,1.4284,1.3965,1.3855,1.3523,1.3563,1.4229,1.4282,1.456,1.5174,1.5181,1.5181,1.5181,1.5181,1.5181,1.5181,1.5181,1.5181,1.5181,1.5181,1.5181,1.5181,1.5181,1.5181,1.5181,1.5181,1.5181,3.3407,3.371,3.3699,3.3226,3.3426,0.0,3.2808,3.2169,3.142,3.0233,2.9278,2.8587,2.8514,2.8477,2.8508,2.8636,2.8339,2.7504,2.5782,2.5929,2.5795,2.4732,2.4788,2.4919,2.4849,2.5038,2.5227,2.5332,2.4982,2.4702,2.454,2.4607,2.4776,2.4993,2.5053,2.5186,2.5391,2.5391,2.5391,2.5391,2.5391,2.5391,2.5391,2.5391,2.5391,2.5391,2.5134,2.4395,2.3483,2.4267,2.232,1.8812,1.9074,1.8331,1.7068,1.6665,1.714,1.7885,1.7403,1.7832,1.8837,2.0153,2.0414,2.0023,1.9186,1.8532,1.7622,1.5352,1.452,1.4306,1.4333,1.4428,1.4529,1.459,1.4787,1.5023,1.5051,1.5099,1.5147,1.5078,1.5057,1.5057,1.5057,1.4882,1.4728,1.4701,1.4284,1.4035,1.4126,1.3649,1.3594,1.4311,1.434,1.456,1.5174,1.5181,1.5181,1.5181,1.5181,1.5181,1.5181,1.5181,1.5181,1.5181,1.5181,1.5181,1.5181,1.5181,1.5181,1.5181,1.5181,1.5181,3.3497,3.3744,3.3474,3.2893,3.3235,0.0,0.0,3.2306,3.1902,3.0926,3.0116,2.9583,2.9583,2.9583,2.9563,2.9417,2.8844,2.798,2.6734,2.6343,2.5778,2.4732,2.5033,2.5345,2.5281,2.5629,2.5665,2.5291,2.5023,2.4686,2.4238,2.4318,2.4451,2.4595,2.4728,2.4921,2.5198,2.5198,2.527,2.5391,2.5391,2.5391,2.5391,2.5391,2.5391,2.5391,2.5391,2.5006,2.4438,2.5134,2.3795,2.1228,2.0501,1.9239,1.7666,1.6753,1.6401,1.6349,1.613,1.6217,1.6657,1.806,1.8497,1.8497,1.8497,1.8016,1.7008,1.4866,1.4299,1.4299,1.4299,1.4353,1.4421,1.4496,1.4631,1.478,1.4936,1.5025,1.5105,1.503,1.4909,1.4855,1.4855,1.4726,1.4579,1.4579,1.3932,1.3462,1.3531,1.2894,1.2652,1.3312,1.3653,1.4078,1.4692,1.5046,1.5181,1.5181,1.5181,1.5181,1.5181,1.5181,1.5181,1.5181,1.5181,1.5181,1.5181,1.5181,1.5181,1.5181,1.5181,1.5181,3.3424,3.3567,3.3144,3.2536,3.295,3.3175,0.0,0.0,0.0,3.1081,3.0529,3.0253,3.0253,3.0184,3.0046,2.9715,2.8952,2.822,2.7634,2.6765,2.5837,2.4874,2.5293,2.5703,2.587,2.6338,2.6201,2.5176,2.5097,2.473,2.3937,2.4125,2.4246,2.4198,2.4451,2.4692,2.4921,2.4981,2.5077,2.5234,2.5294,2.5294,2.5234,2.5234,2.527,2.5318,2.5318,2.5355,2.5391,2.5391,2.4738,2.3654,2.2266,2.0448,1.8497,1.714,1.5998,1.5131,1.4911,1.4601,1.452,1.5961,1.6401,1.6613,1.7753,1.7096,1.5741,1.4608,1.4299,1.4299,1.4299,1.4299,1.4326,1.4441,1.4489,1.4577,1.4828,1.4903,1.4916,1.4797,1.4689,1.4654,1.4654,1.457,1.4468,1.4468,1.3566,1.2932,1.2956,1.2094,1.1732,1.2379,1.2938,1.3563,1.4262,1.4866,1.5181,1.5181,1.5181,1.5181,1.5181,1.5181,1.5181,1.5181,1.5181,1.5181,1.5181,1.5181,1.5181,1.5181,1.5181,1.5181,3.2471,3.2917,3.2849,3.2432,3.2757,3.3045,3.2579,0.0,3.3058,3.2604,0.0,3.1495,3.1495,0.0,0.0,3.0602,2.9845,2.901,2.8308,2.7478,2.6579,2.5532,2.5379,2.5665,2.6434,2.7135,2.7066,2.5944,2.5877,2.5382,2.4202,2.4403,2.4439,2.4198,2.4451,2.4595,2.4632,2.4873,2.4897,2.468,2.4933,2.4921,2.468,2.468,2.4812,2.5053,2.5053,2.5174,2.5391,2.5391,2.5305,2.5049,2.3697,2.1488,1.8986,1.8007,1.6789,1.5484,1.4653,1.4343,1.452,1.5961,1.6401,1.6445,1.6569,1.5653,1.452,1.4343,1.4299,1.4299,1.4299,1.4299,1.4306,1.4319,1.4421,1.4523,1.4557,1.4672,1.4589,1.4042,1.4235,1.4536,1.4536,1.4421,1.4326,1.4326,1.3508,1.2924,1.3046,1.2145,1.1765,1.2494,1.2992,1.3563,1.4262,1.4866,1.5181,1.5181,1.5181,1.5181,1.5181,1.5181,1.5181,1.5181,1.5181,1.5181,1.5181,1.5181,1.5181,1.5181,1.5181,1.5181,3.2707,3.256,3.2018,3.2238,3.2227,3.2252,3.2475,3.2744,3.2911,3.2758,0.0,0.0,0.0,0.0,0.0,0.0,2.997,2.9215,2.8723,2.7743,2.6812,2.6089,2.6574,2.7192,2.7899,2.7825,2.7216,2.6064,2.5857,2.5298,2.4238,2.4294,2.4379,2.4415,2.4379,2.4427,2.4583,2.4547,2.4547,2.4583,2.4704,2.4704,2.4583,2.4583,2.4644,2.4764,2.4764,2.4909,2.5162,2.5162,2.5088,2.4921,2.4352,2.2794,2.0631,1.9152,1.7534,1.6049,1.5653,1.4999,1.4387,1.4999,1.5175,1.5175,1.5175,1.4785,1.4299,1.4299,1.4299,1.4299,1.4299,1.4299,1.4299,1.4299,1.4346,1.4414,1.4496,1.4563,1.4455,1.3893,1.4195,1.4303,1.3687,1.3763,1.3812,1.3546,1.292,1.25,1.2553,1.1933,1.1626,1.1905,1.2436,1.3035,1.3674,1.4322,1.4812,1.5174,1.5181,1.5181,1.5181,1.5181,1.5181,1.5181,1.5181,1.5181,1.5181,1.5181,1.5181,1.5181,1.5181,1.5181,3.2079,3.1739,3.1176,3.1653,3.1627,3.1646,3.2118,3.2296,3.2384,3.2384,3.2015,0.0,0.0,0.0,3.1062,3.0557,0.0,2.9446,2.911,2.8359,2.7603,2.6816,2.7641,2.8401,2.8792,2.8392,2.7594,2.6342,2.601,2.542,2.4267,2.4258,2.4354,2.4475,2.4366,2.4354,2.4475,2.4354,2.4318,2.4366,2.4451,2.4439,2.4366,2.4366,2.4415,2.4475,2.4475,2.459,2.4729,2.4801,2.4649,2.443,2.4372,2.3311,2.1618,1.9849,1.8103,1.6525,1.6005,1.5175,1.4299,1.4299,1.4299,1.4299,1.4299,1.4299,1.4299,1.4299,1.4299,1.4299,1.4299,1.4299,1.4299,1.4299,1.4299,1.4326,1.4428,1.4455,1.4276,1.3688,1.4052,1.4019,1.276,1.3097,1.3458,1.2964,1.252,1.221,1.221,1.181,1.1499,1.1499,1.2057,1.2634,1.326,1.3908,1.4566,1.5174,1.5181,1.5181,1.5181,1.5181,1.5181,1.5181,1.5181,1.5181,1.5181,1.5181,1.5181,1.5181,1.5181,1.5181,2.9663,3.0176,3.0421,3.0464,3.0982,3.1513,3.1523,3.1523,3.1543,3.1543,3.0955,3.0459,3.043,3.0166,2.993,0.0,2.989,0.0,0.0,2.9661,2.9264,2.7829,2.8275,2.8587,2.8361,2.8881,2.855,2.6887,2.6723,2.595,2.4296,2.4439,2.4463,2.421,2.4451,2.4451,2.421,2.4451,2.4318,2.3836,2.4089,2.4077,2.3836,2.3836,2.3969,2.421,2.421,2.415,2.4039,2.431,2.4163,2.3732,2.3544,2.2589,2.1142,1.9709,1.8313,1.6833,1.4999,1.4343,1.4299,1.4299,1.4299,1.4299,1.4299,1.4299,1.4299,1.4299,1.4299,1.4299,1.4299,1.4299,1.4299,1.4299,1.4299,1.4299,1.4306,1.4306,1.404,1.3103,1.3686,1.3723,1.1855,1.2698,1.3458,1.2964,1.252,1.221,1.221,1.181,1.1499,1.1499,1.2057,1.2634,1.326,1.3908,1.4566,1.5174,1.5181,1.5181,1.5181,1.5181,1.5181,1.5181,1.5181,1.5181,1.5181,1.5181,1.5181,1.5181,1.5181,1.5181,2.9707,2.9467,2.9317,3.04,3.0218,3.0067,3.1121,3.124,3.0984,3.0539,3.0604,3.0535,2.9866,3.0013,3.0157,0.0,0.0,2.9597,0.0,2.939,2.9208,2.891,2.8822,2.8751,2.8679,2.8508,2.7951,2.6873,2.6719,2.6149,2.4985,2.5001,2.4963,2.4728,2.4632,2.4547,2.4451,2.4366,2.415,2.38,2.3897,2.3884,2.38,2.38,2.3848,2.3933,2.3933,2.3846,2.3728,2.381,2.3536,2.2956,2.2087,2.1274,2.0521,2.0226,1.8663,1.6393,1.4822,1.4299,1.4299,1.4299,1.4299,1.4299,1.4299,1.4299,1.4299,1.4299,1.4299,1.4299,1.4299,1.4299,1.4299,1.4299,1.4299,1.4299,1.4299,1.4299,1.4033,1.3097,1.3413,1.3325,1.1766,1.2165,1.252,1.2032,1.1855,1.1721,1.1721,1.1588,1.1499,1.1499,1.1671,1.2226,1.3208,1.4269,1.4986,1.5181,1.5181,1.5181,1.5181,1.5181,1.5181,1.5181,1.5181,1.5181,1.5181,1.5181,1.5181,1.5181,1.5181,1.5181,2.8786,2.8541,2.851,2.955,2.9351,2.9168,3.0217,3.03,3.007,2.9627,3.0082,3.0347,2.9717,3.0032,3.0362,0.0,0.0,0.0,0.0,2.9272,2.9124,2.9479,2.9168,2.889,2.8893,2.8471,2.7822,2.7006,2.6849,2.6386,2.5494,2.5273,2.5161,2.5099,2.4763,2.4583,2.4583,2.4415,2.4198,2.3945,2.3848,2.38,2.38,2.38,2.372,2.36,2.36,2.3373,2.3011,2.3103,2.2819,2.2242,2.1547,2.0487,1.9377,1.9182,1.7622,1.5528,1.4608,1.4299,1.4299,1.4299,1.4299,1.4299,1.4299,1.4299,1.4319,1.4428,1.438,1.4326,1.4428,1.438,1.4255,1.4078,1.4033,1.3989,1.3856,1.3812,1.3591,1.2787,1.3008,1.2964,1.1721,1.1899,1.2032,1.1588,1.1499,1.1499,1.1499,1.1499,1.1499,1.1499,1.1499,1.2001,1.3202,1.4454,1.5181,1.5181,1.5181,1.5181,1.5181,1.5181,1.5235,1.5343,1.5289,1.5289,1.5343,1.5289,1.5235,1.5181,1.5181,1.5181]},{"header":{"parameterUnit":"m.s-1","parameterCategory":1,"la1":30.6,"la2":29.2853,"lo1":-89.7004,"lo2":-87.6739,"dy":0.0162,"dx":0.0183,"nx":112,"ny":82,"refTime":"2023-04-06T12:00:00:Z","depth":0,"parameterNumber":3,"parameterNumberName":"V-component_of_WINDS"},"data":[0.0,0.0,0.0,0.0,0.0,0.0,0.0,0.0,0.0,0.0,0.0,0.0,0.0,0.0,0.0,0.0,0.0,0.0,0.0,0.0,0.0,0.0,0.0,0.0,0.0,0.0,0.0,0.0,0.0,0.0,0.0,0.0,0.0,0.0,0.0,0.0,0.0,0.0,0.0,0.0,0.0,0.0,0.0,0.0,0.0,0.0,0.0,0.0,0.0,0.0,0.0,0.0,0.0,0.0,0.0,0.0,0.0,0.0,0.0,0.0,0.0,0.0,0.0,0.0,0.0,0.0,0.0,0.0,0.0,0.0,0.0,0.0,0.0,0.0,0.0,0.0,0.0,0.0,0.0,0.0,0.0,0.0,0.0,0.0,0.0,0.0,0.0,0.0,0.0,0.0,6.2799,6.3445,6.3924,6.3893,6.3159,6.319,6.3305,6.3305,0.0,0.0,0.0,0.0,0.0,0.0,0.0,0.0,0.0,0.0,0.0,0.0,0.0,0.0,0.0,0.0,0.0,0.0,0.0,0.0,0.0,0.0,0.0,0.0,0.0,0.0,0.0,0.0,0.0,0.0,0.0,0.0,0.0,0.0,0.0,0.0,0.0,0.0,0.0,0.0,0.0,0.0,0.0,0.0,0.0,0.0,0.0,0.0,0.0,0.0,0.0,0.0,0.0,0.0,0.0,0.0,0.0,0.0,0.0,0.0,0.0,0.0,0.0,0.0,0.0,0.0,0.0,0.0,0.0,0.0,0.0,0.0,0.0,0.0,0.0,0.0,0.0,0.0,0.0,0.0,0.0,0.0,0.0,0.0,0.0,0.0,0.0,0.0,0.0,0.0,0.0,0.0,0.0,0.0,0.0,0.0,0.0,0.0,0.0,0.0,0.0,0.0,0.0,0.0,6.3673,6.3085,6.371,6.416,6.4007,6.4611,6.5031,6.5031,0.0,0.0,0.0,0.0,0.0,0.0,0.0,0.0,0.0,0.0,0.0,0.0,0.0,0.0,0.0,0.0,0.0,0.0,0.0,0.0,0.0,0.0,0.0,0.0,0.0,0.0,0.0,0.0,0.0,0.0,0.0,0.0,0.0,0.0,0.0,0.0,0.0,0.0,0.0,0.0,0.0,0.0,0.0,0.0,0.0,0.0,0.0,0.0,0.0,0.0,0.0,0.0,0.0,0.0,0.0,0.0,0.0,0.0,0.0,0.0,0.0,0.0,0.0,0.0,0.0,0.0,0.0,0.0,0.0,0.0,0.0,0.0,0.0,0.0,0.0,0.0,0.0,0.0,0.0,0.0,0.0,0.0,0.0,0.0,0.0,0.0,0.0,0.0,0.0,0.0,0.0,0.0,0.0,0.0,0.0,0.0,0.0,0.0,0.0,0.0,0.0,0.0,0.0,6.468,6.4688,6.4305,6.4611,6.4848,6.4848,6.5184,6.5413,6.5413,6.4688,0.0,0.0,0.0,0.0,0.0,0.0,0.0,0.0,0.0,0.0,0.0,0.0,0.0,0.0,0.0,0.0,0.0,0.0,0.0,0.0,0.0,0.0,0.0,0.0,0.0,0.0,0.0,0.0,0.0,0.0,0.0,0.0,0.0,0.0,0.0,0.0,0.0,0.0,0.0,0.0,0.0,0.0,0.0,0.0,0.0,0.0,0.0,0.0,0.0,0.0,0.0,0.0,0.0,0.0,0.0,0.0,0.0,0.0,0.0,0.0,0.0,0.0,0.0,0.0,0.0,0.0,0.0,0.0,0.0,0.0,0.0,0.0,0.0,0.0,0.0,0.0,0.0,0.0,0.0,0.0,0.0,0.0,0.0,0.0,0.0,0.0,0.0,0.0,0.0,0.0,0.0,0.0,0.0,0.0,0.0,0.0,0.0,0.0,0.0,0.0,0.0,0.0,6.5229,6.5681,6.5466,6.5466,6.5466,6.5466,6.5466,6.5466,6.5466,6.5466,0.0,0.0,0.0,0.0,0.0,0.0,0.0,0.0,0.0,0.0,0.0,0.0,0.0,0.0,0.0,0.0,0.0,0.0,0.0,0.0,0.0,0.0,0.0,0.0,0.0,0.0,0.0,0.0,0.0,0.0,0.0,0.0,0.0,0.0,0.0,0.0,0.0,0.0,0.0,0.0,0.0,0.0,0.0,0.0,0.0,0.0,0.0,0.0,0.0,0.0,0.0,0.0,0.0,0.0,0.0,0.0,0.0,0.0,0.0,0.0,0.0,0.0,0.0,0.0,0.0,0.0,0.0,0.0,0.0,0.0,0.0,0.0,0.0,0.0,0.0,0.0,0.0,0.0,0.0,0.0,0.0,0.0,0.0,0.0,0.0,0.0,0.0,0.0,0.0,0.0,0.0,0.0,0.0,0.0,0.0,0.0,0.0,0.0,0.0,0.0,0.0,0.0,6.6212,6.6427,6.5656,6.558,6.558,6.558,6.558,6.558,6.558,6.558,0.0,0.0,0.0,0.0,0.0,0.0,0.0,0.0,0.0,0.0,0.0,0.0,0.0,0.0,0.0,0.0,0.0,0.0,0.0,0.0,0.0,0.0,0.0,0.0,0.0,0.0,0.0,0.0,0.0,0.0,0.0,0.0,0.0,0.0,0.0,0.0,0.0,0.0,0.0,0.0,0.0,0.0,0.0,0.0,0.0,0.0,0.0,0.0,0.0,0.0,0.0,0.0,0.0,0.0,0.0,0.0,0.0,0.0,0.0,0.0,0.0,0.0,0.0,0.0,0.0,0.0,0.0,0.0,0.0,0.0,0.0,0.0,0.0,0.0,0.0,0.0,0.0,0.0,0.0,0.0,0.0,0.0,0.0,0.0,0.0,0.0,0.0,0.0,0.0,0.0,0.0,0.0,0.0,0.0,0.0,0.0,0.0,0.0,0.0,0.0,0.0,0.0,6.5841,6.5956,6.5632,6.6099,6.6413,6.6413,6.6912,6.7218,6.7218,0.0,0.0,0.0,0.0,0.0,0.0,0.0,0.0,0.0,0.0,0.0,0.0,0.0,0.0,0.0,0.0,0.0,0.0,0.0,0.0,0.0,0.0,0.0,0.0,0.0,0.0,0.0,0.0,0.0,0.0,0.0,0.0,0.0,0.0,0.0,0.0,0.0,0.0,0.0,0.0,0.0,0.0,0.0,0.0,0.0,0.0,0.0,0.0,0.0,0.0,0.0,0.0,0.0,0.0,0.0,0.0,0.0,0.0,0.0,0.0,0.0,0.0,0.0,0.0,0.0,0.0,0.0,0.0,0.0,0.0,0.0,0.0,0.0,0.0,0.0,0.0,0.0,0.0,0.0,0.0,0.0,0.0,0.0,0.0,0.0,0.0,0.0,0.0,0.0,0.0,0.0,0.0,0.0,0.0,0.0,0.0,0.0,0.0,0.0,0.0,0.0,0.0,6.6207,6.6532,6.6755,6.6514,6.702,6.7365,6.7365,6.7903,6.8255,6.8255,0.0,0.0,0.0,0.0,0.0,0.0,0.0,0.0,0.0,0.0,0.0,0.0,0.0,0.0,0.0,0.0,0.0,0.0,0.0,0.0,0.0,0.0,0.0,0.0,0.0,0.0,0.0,0.0,0.0,0.0,0.0,0.0,0.0,0.0,0.0,0.0,0.0,0.0,0.0,0.0,0.0,0.0,0.0,0.0,0.0,0.0,0.0,0.0,0.0,0.0,0.0,0.0,0.0,0.0,0.0,0.0,0.0,0.0,0.0,0.0,0.0,0.0,0.0,0.0,0.0,0.0,0.0,0.0,0.0,0.0,0.0,0.0,0.0,0.0,0.0,0.0,0.0,0.0,0.0,0.0,0.0,0.0,0.0,0.0,0.0,0.0,0.0,0.0,0.0,0.0,0.0,0.0,0.0,0.0,0.0,0.0,0.0,0.0,0.0,0.0,0.0,0.0,6.7237,6.8492,6.9201,6.85,6.8391,6.8391,6.8391,6.843,6.843,0.0,0.0,0.0,0.0,0.0,0.0,0.0,0.0,0.0,0.0,0.0,0.0,0.0,0.0,0.0,0.0,0.0,0.0,0.0,0.0,0.0,0.0,0.0,0.0,0.0,0.0,0.0,0.0,0.0,0.0,0.0,0.0,0.0,0.0,0.0,0.0,0.0,0.0,0.0,0.0,0.0,0.0,0.0,0.0,0.0,0.0,0.0,0.0,0.0,0.0,0.0,0.0,0.0,0.0,0.0,0.0,0.0,0.0,0.0,0.0,0.0,0.0,0.0,0.0,0.0,0.0,0.0,0.0,0.0,0.0,0.0,0.0,0.0,0.0,0.0,0.0,0.0,0.0,0.0,0.0,0.0,0.0,0.0,0.0,0.0,0.0,0.0,0.0,0.0,0.0,0.0,0.0,0.0,0.0,0.0,0.0,0.0,0.0,0.0,0.0,0.0,0.0,0.0,6.8122,6.8416,6.8634,6.843,6.893,6.9321,6.9321,6.986,7.0167,7.0167,0.0,0.0,0.0,0.0,0.0,0.0,0.0,0.0,0.0,0.0,0.0,0.0,0.0,0.0,0.0,0.0,0.0,0.0,0.0,0.0,0.0,0.0,0.0,0.0,0.0,0.0,0.0,0.0,0.0,0.0,0.0,0.0,0.0,0.0,0.0,0.0,0.0,0.0,0.0,0.0,0.0,0.0,0.0,0.0,0.0,0.0,0.0,0.0,0.0,0.0,0.0,0.0,0.0,0.0,0.0,0.0,0.0,0.0,0.0,0.0,0.0,0.0,0.0,0.0,0.0,0.0,0.0,0.0,0.0,0.0,0.0,0.0,0.0,0.0,0.0,0.0,0.0,0.0,0.0,0.0,0.0,0.0,0.0,0.0,0.0,0.0,0.0,0.0,0.0,0.0,0.0,0.0,0.0,0.0,0.0,0.0,0.0,0.0,0.0,0.0,0.0,0.0,6.9007,6.9199,6.9391,6.9391,6.986,7.0167,7.0167,7.0629,7.0898,7.0898,0.0,0.0,0.0,0.0,0.0,0.0,0.0,0.0,0.0,0.0,0.0,0.0,0.0,0.0,0.0,0.0,0.0,0.0,0.0,0.0,0.0,0.0,0.0,0.0,0.0,0.0,0.0,0.0,0.0,0.0,0.0,0.0,0.0,0.0,0.0,0.0,0.0,0.0,0.0,0.0,0.0,0.0,0.0,0.0,0.0,0.0,0.0,0.0,0.0,0.0,0.0,0.0,0.0,0.0,0.0,0.0,0.0,0.0,0.0,0.0,0.0,0.0,0.0,0.0,0.0,0.0,0.0,0.0,0.0,0.0,0.0,0.0,0.0,0.0,0.0,0.0,0.0,0.0,0.0,0.0,0.0,0.0,0.0,0.0,0.0,0.0,0.0,0.0,0.0,0.0,0.0,0.0,0.0,0.0,0.0,0.0,0.0,0.0,0.0,0.0,0.0,0.0,6.9821,7.0437,7.0898,7.0898,7.0898,7.0898,7.0898,7.0898,7.0898,7.0898,0.0,0.0,0.0,0.0,0.0,0.0,0.0,0.0,0.0,0.0,0.0,0.0,0.0,0.0,0.0,0.0,0.0,0.0,0.0,0.0,0.0,0.0,0.0,0.0,0.0,0.0,0.0,0.0,0.0,0.0,0.0,0.0,0.0,0.0,0.0,0.0,0.0,0.0,0.0,0.0,0.0,0.0,0.0,0.0,0.0,0.0,0.0,0.0,0.0,0.0,0.0,0.0,0.0,0.0,0.0,0.0,0.0,0.0,0.0,0.0,5.4966,5.3521,0.0,0.0,0.0,0.0,0.0,0.0,0.0,0.0,0.0,0.0,0.0,0.0,0.0,0.0,0.0,0.0,0.0,0.0,0.0,0.0,0.0,0.0,0.0,0.0,0.0,0.0,0.0,0.0,0.0,0.0,0.0,0.0,0.0,0.0,0.0,0.0,0.0,0.0,0.0,0.0,7.0629,7.0783,7.0898,7.0898,7.0898,7.0898,7.0898,7.0898,7.0898,7.0898,7.0898,0.0,0.0,0.0,0.0,0.0,0.0,0.0,0.0,0.0,0.0,0.0,0.0,0.0,0.0,0.0,0.0,0.0,0.0,0.0,0.0,0.0,0.0,0.0,0.0,0.0,0.0,0.0,0.0,0.0,0.0,0.0,0.0,0.0,0.0,0.0,0.0,0.0,0.0,0.0,0.0,0.0,0.0,0.0,0.0,0.0,0.0,0.0,0.0,0.0,0.0,0.0,0.0,0.0,0.0,0.0,0.0,0.0,0.0,0.0,5.7327,5.5955,0.0,0.0,0.0,0.0,0.0,0.0,0.0,0.0,0.0,0.0,0.0,0.0,0.0,0.0,0.0,0.0,0.0,0.0,0.0,0.0,0.0,0.0,0.0,0.0,0.0,0.0,0.0,0.0,0.0,0.0,0.0,0.0,0.0,0.0,0.0,0.0,0.0,0.0,0.0,0.0,7.0898,7.0898,7.0898,7.0898,7.0898,7.0898,7.0898,7.0898,7.0898,7.0898,7.0898,0.0,0.0,0.0,0.0,0.0,0.0,0.0,0.0,0.0,0.0,0.0,0.0,0.0,0.0,0.0,0.0,0.0,0.0,0.0,0.0,0.0,0.0,0.0,0.0,0.0,0.0,0.0,0.0,0.0,0.0,0.0,0.0,0.0,0.0,0.0,0.0,0.0,0.0,0.0,0.0,0.0,0.0,0.0,0.0,0.0,0.0,0.0,0.0,0.0,0.0,0.0,0.0,0.0,6.0151,6.0249,6.0408,6.1095,6.0706,5.9492,6.0028,5.8983,5.6924,5.7711,0.0,0.0,0.0,0.0,0.0,0.0,0.0,0.0,0.0,0.0,0.0,0.0,0.0,0.0,0.0,0.0,0.0,0.0,0.0,0.0,0.0,0.0,6.6379,7.0031,7.0898,7.0898,7.0898,0.0,0.0,0.0,0.0,0.0,0.0,0.0,0.0,0.0,0.0,0.0,7.0898,7.0898,7.0898,7.0898,7.0898,7.0898,7.0898,7.0898,7.0898,7.0898,7.1052,7.1129,0.0,0.0,0.0,0.0,0.0,0.0,0.0,0.0,0.0,0.0,0.0,0.0,0.0,0.0,0.0,0.0,0.0,0.0,0.0,0.0,0.0,0.0,0.0,0.0,0.0,0.0,0.0,0.0,0.0,0.0,0.0,0.0,5.5673,5.4483,0.0,0.0,0.0,0.0,0.0,0.0,0.0,0.0,0.0,0.0,0.0,0.0,0.0,6.0114,6.015,6.0425,6.0591,6.0628,6.1562,6.2146,6.2364,6.3087,6.3402,6.3361,6.3333,0.0,5.8335,5.9698,0.0,0.0,0.0,0.0,0.0,0.0,0.0,0.0,0.0,0.0,0.0,0.0,0.0,0.0,0.0,0.0,0.0,0.0,0.0,0.0,0.0,0.0,6.6883,7.0141,7.0898,7.0898,7.0898,7.0898,7.0898,7.0898,7.0898,7.0898,0.0,0.0,0.0,0.0,0.0,0.0,7.0898,7.0898,7.0898,7.0898,7.0898,7.0898,7.0898,7.0898,7.0898,7.0898,7.1591,7.2021,7.2021,7.2745,0.0,0.0,0.0,0.0,0.0,0.0,0.0,0.0,0.0,0.0,0.0,0.0,0.0,0.0,0.0,0.0,0.0,0.0,0.0,0.0,0.0,0.0,0.0,0.0,0.0,0.0,0.0,0.0,0.0,5.5728,5.6041,5.4735,5.5716,5.6152,0.0,0.0,0.0,0.0,0.0,0.0,0.0,0.0,0.0,6.1187,6.1329,6.1701,6.2308,6.2428,6.2494,6.2494,6.3002,6.3318,6.3514,6.3808,6.4069,6.4213,6.4052,6.3158,6.1752,6.1473,6.083,6.0018,0.0,0.0,0.0,0.0,5.9487,5.9595,6.0351,6.07,6.0901,6.1597,0.0,0.0,0.0,0.0,0.0,0.0,0.0,6.0879,6.4378,6.6058,6.755,7.0263,7.0898,7.0898,7.0898,7.0898,7.0898,7.0898,7.0898,7.0898,7.0898,7.0898,0.0,0.0,0.0,7.0898,7.0898,7.0898,7.0898,7.0898,7.1321,7.1636,7.1636,7.2091,7.2353,7.2353,7.2706,7.2937,7.2937,7.3315,7.3699,0.0,0.0,0.0,0.0,0.0,0.0,0.0,0.0,0.0,0.0,0.0,0.0,0.0,0.0,0.0,0.0,0.0,0.0,0.0,0.0,0.0,0.0,0.0,0.0,0.0,0.0,0.0,0.0,5.6528,5.7036,5.5799,5.6976,5.7534,0.0,0.0,0.0,0.0,0.0,0.0,6.0663,6.1015,6.1562,6.2304,6.2524,6.3015,6.378,6.3888,6.3995,6.4198,6.4219,6.4417,6.472,6.4533,6.4483,6.4585,6.4278,6.4213,6.4179,6.2965,6.194,6.1191,6.14,6.1517,6.1592,6.1544,6.1518,6.1655,6.2715,6.3163,6.3304,6.3871,6.3868,6.343,6.2315,0.0,0.0,0.0,0.0,6.2078,6.5112,6.6763,6.8181,7.0361,7.1052,7.1283,7.1514,7.1591,7.1437,7.0975,7.0898,7.0898,7.0898,7.1091,0.0,7.1245,7.1437,7.1591,7.1591,7.1591,7.1591,7.1591,7.2168,7.2514,7.2514,7.3129,7.3507,7.3507,7.3699,7.3815,7.3815,7.4007,7.443,7.5007,0.0,0.0,0.0,0.0,0.0,0.0,0.0,0.0,0.0,0.0,0.0,0.0,0.0,0.0,0.0,0.0,0.0,0.0,0.0,0.0,0.0,0.0,0.0,0.0,0.0,0.0,0.0,0.0,0.0,5.8931,5.9023,0.0,0.0,0.0,0.0,6.003,6.1419,6.2079,6.1937,6.3184,6.3856,6.3787,6.3798,6.3792,6.378,6.3888,6.4262,6.4946,6.5056,6.5624,6.6454,6.5667,6.5355,6.5411,6.4622,6.4284,6.4284,6.4067,6.4029,6.4074,6.4094,6.4104,6.4053,6.3416,6.3188,6.3245,6.3558,6.3851,6.4247,6.5681,6.5428,6.4354,6.3486,6.2409,0.0,0.0,6.242,6.3775,6.4791,6.6695,6.8788,7.0507,7.1514,7.236,7.3199,7.3353,7.2892,7.1206,7.0898,7.0898,7.0898,0.0,7.2136,7.2136,7.2822,7.3353,7.3353,7.3353,7.3353,7.3353,7.3392,7.343,7.343,7.3469,7.3507,7.3507,7.4199,7.4623,7.4623,7.5438,7.5899,7.5938,7.5938,0.0,0.0,0.0,0.0,0.0,0.0,0.0,0.0,0.0,0.0,0.0,0.0,0.0,0.0,0.0,0.0,0.0,0.0,0.0,0.0,0.0,0.0,0.0,0.0,0.0,0.0,0.0,0.0,6.0591,6.0796,0.0,6.0142,6.0525,6.0989,6.1502,6.2643,6.3317,6.323,6.3713,6.4177,6.458,6.4769,6.5095,6.5587,6.5159,6.5047,6.525,6.4636,6.4567,6.4982,6.4609,6.4522,6.4697,6.4326,6.4224,6.4284,6.4172,6.4193,6.4314,6.4482,6.4558,6.4558,6.4473,6.4574,6.4792,6.5234,6.5536,6.5857,6.6383,6.6032,6.5213,6.3951,6.3681,6.3774,6.3765,6.4516,6.5725,6.7544,6.9027,7.0283,7.1475,7.2399,7.3129,7.343,7.3507,7.3315,7.2699,7.2584,7.2584,7.2584,7.2822,7.3053,7.3053,7.3315,7.3507,7.3507,7.3507,7.3507,7.3507,7.3969,7.4276,7.4276,7.4776,7.513,7.513,7.5399,7.5553,7.5553,7.5822,7.6015,7.6015,7.6015,7.6284,0.0,0.0,0.0,0.0,0.0,0.0,0.0,0.0,0.0,0.0,0.0,0.0,0.0,0.0,0.0,0.0,0.0,0.0,0.0,0.0,0.0,0.0,0.0,0.0,0.0,6.009,6.057,6.1756,6.1904,6.1886,6.1842,6.1974,6.2401,6.328,6.4017,6.4529,6.4791,6.4599,6.462,6.5039,6.5272,6.5598,6.6073,6.5924,6.5993,6.6192,6.5577,6.5486,6.5822,6.5186,6.4976,6.512,6.4438,6.4224,6.4284,6.4213,6.4224,6.4314,6.4482,6.4775,6.5122,6.53,6.5727,6.6277,6.6717,6.7041,6.7281,6.7281,6.7232,6.6929,6.5654,6.5688,6.6147,6.6147,6.6537,6.7293,6.8869,7.009,7.1129,7.1982,7.3053,7.4007,7.4276,7.4353,7.4353,7.4353,7.3892,7.3507,7.3507,7.3738,7.3892,7.3892,7.4161,7.4353,7.4353,7.4353,7.4353,7.4353,7.4822,7.513,7.513,7.5668,7.6015,7.6015,7.6015,7.6015,7.6015,7.6284,7.6438,7.6438,7.6707,7.713,7.7715,0.0,0.0,0.0,0.0,0.0,0.0,0.0,0.0,0.0,0.0,0.0,0.0,0.0,0.0,0.0,0.0,0.0,0.0,0.0,0.0,0.0,0.0,0.0,6.0369,6.155,6.2405,6.2561,6.2339,6.2724,6.4206,6.303,6.3074,6.5234,6.5378,6.5753,6.6529,6.5874,6.542,6.5282,6.5389,6.5384,6.5143,6.6159,6.7016,6.7791,6.79,6.8366,6.9069,6.7513,6.681,6.6735,6.512,6.4444,6.4444,6.4444,6.4407,6.4407,6.4369,6.4971,6.587,6.5946,6.6668,6.7715,6.8005,6.8237,6.8455,6.8423,6.8968,6.9513,6.866,6.843,6.843,6.843,6.8468,6.8468,6.8468,6.9706,7.1206,7.2059,7.3514,7.4976,7.5822,7.6015,7.6015,7.6015,7.4707,7.3584,7.3584,7.4199,7.4738,7.4738,7.5476,0.0,7.6015,7.6015,7.6015,7.6053,7.6053,7.6053,7.6092,7.6092,7.6092,7.6092,7.6092,7.6092,7.6092,7.6899,7.733,7.733,7.8138,7.8523,7.8523,0.0,0.0,0.0,0.0,0.0,0.0,0.0,0.0,0.0,0.0,0.0,0.0,0.0,0.0,0.0,0.0,0.0,0.0,0.0,0.0,0.0,6.0754,6.1673,6.2335,6.1738,6.2016,6.4056,6.3802,6.3835,6.4987,6.4721,6.4748,6.5424,6.5482,6.5564,6.5715,6.5574,6.5976,6.7036,6.723,6.7514,6.8038,6.7777,6.7691,6.7791,6.7262,6.7096,6.7321,6.6871,6.7026,6.7626,6.7176,6.7326,6.7803,6.7213,6.6988,6.6875,6.5636,6.5349,6.5722,6.6522,6.7947,6.9455,6.9703,6.9866,6.9803,6.919,6.8876,6.8699,6.8468,6.8853,6.9353,6.9353,6.9744,7.0206,7.0206,7.1468,7.2853,7.3084,7.4437,7.5707,7.5938,7.6015,7.6015,7.6015,7.563,7.5322,7.5322,7.5515,7.563,7.563,7.5861,7.6015,7.6015,7.6015,7.6245,7.6868,7.6938,7.7176,7.7753,7.783,7.783,7.783,7.783,7.783,7.783,7.8061,7.8176,7.8176,7.9015,7.9438,0.0,0.0,0.0,0.0,0.0,0.0,0.0,0.0,0.0,0.0,0.0,0.0,0.0,0.0,0.0,0.0,0.0,0.0,0.0,0.0,0.0,0.0,6.2509,6.3742,6.3999,6.329,6.3348,6.502,6.4802,6.478,6.5382,6.5099,6.5035,6.5476,6.5782,6.6126,6.6453,6.6543,6.6935,6.7754,6.7937,6.8195,6.8591,6.8908,6.902,6.8917,6.8468,6.8243,6.8216,6.7493,6.7487,6.7964,6.7626,6.7739,6.8152,6.7701,6.7486,6.7401,0.0,0.0,0.0,0.0,6.8341,6.9095,6.9741,6.9973,6.9957,6.9902,6.9711,6.943,6.943,6.9821,7.0206,7.0206,7.0552,7.0898,7.0898,7.2199,7.3507,7.3507,7.4784,7.6092,7.6476,7.6553,7.663,7.6976,7.7053,0.0,7.7053,7.6784,7.6553,7.6553,7.6823,7.7053,7.7053,7.7053,7.7246,7.7753,7.7792,7.7984,7.8446,7.8484,0.0,0.0,0.0,7.8677,7.9015,7.9054,0.0,0.0,0.0,8.0323,8.0362,8.0862,0.0,0.0,8.0323,8.0631,0.0,0.0,0.0,0.0,0.0,0.0,0.0,0.0,0.0,0.0,0.0,0.0,0.0,0.0,0.0,0.0,6.4203,6.5496,6.54,6.555,6.5645,6.5493,6.5366,6.5382,6.5605,6.4858,6.4783,6.5701,6.6378,6.7107,6.7953,6.8002,0.0,0.0,0.0,6.8248,6.8263,6.9824,7.063,7.063,7.063,7.063,7.0592,6.9091,6.849,6.8527,6.7787,6.7524,6.7637,6.7524,6.7411,6.7336,6.7201,6.7849,6.8972,6.9295,6.8943,6.8468,6.9474,0.0,0.0,7.0875,7.1206,7.1206,7.1206,7.1206,7.1168,7.1052,7.1129,7.1168,7.1052,7.2322,7.3623,7.3623,7.4938,7.6361,7.7138,7.7369,7.7638,7.8369,7.8484,7.8484,7.8484,7.7907,7.7445,7.7445,7.8023,7.8484,7.8484,7.8484,7.8523,7.8638,7.8638,0.0,7.8792,7.8792,7.8792,7.8792,7.8792,7.9131,7.9892,7.9931,8.0323,8.1093,8.1093,8.1093,8.1093,8.1093,8.1093,8.1093,8.1093,8.1093,0.0,0.0,0.0,0.0,0.0,0.0,0.0,0.0,0.0,0.0,0.0,0.0,0.0,0.0,0.0,6.4145,6.5451,6.64,6.6474,6.7069,6.6973,6.5559,6.4861,6.5022,6.6261,6.6324,6.6639,6.7438,6.7642,6.7793,6.8002,6.8002,6.8592,6.9921,6.9981,7.0319,7.0923,7.1284,7.1482,7.1482,7.1482,0.0,7.1445,7.1145,7.1332,7.1944,7.1794,7.2132,7.2695,7.2019,7.1343,7.0652,6.9556,7.0355,7.2215,7.2961,7.326,7.3352,7.3543,7.3642,7.3572,7.3147,7.3007,7.3007,7.3007,7.3007,0.0,7.2129,7.2437,7.2853,7.2129,7.3206,7.4469,7.4469,7.5784,7.7099,7.7253,7.7792,7.8292,7.8484,7.8484,7.8484,7.8484,7.8369,7.8253,7.8253,7.8407,7.8484,7.8484,7.8484,7.8754,7.9477,7.9554,7.9823,8.0554,8.0592,8.0592,8.0592,8.0592,8.0669,8.0823,8.0862,8.0939,8.1093,8.1093,8.1093,8.1093,8.1093,8.1093,8.1093,8.1093,8.1093,0.0,0.0,0.0,0.0,0.0,0.0,0.0,0.0,0.0,0.0,0.0,6.1647,6.3028,0.0,6.4532,6.553,6.6587,6.7278,6.7278,6.7707,6.768,6.6812,6.6366,6.6441,6.7214,6.7004,6.6961,6.7374,6.8098,6.8505,6.8505,6.9292,7.0128,7.0954,7.1085,7.1306,7.1708,7.2083,7.232,7.232,7.232,7.232,7.2282,7.1895,7.1933,7.232,7.232,7.2534,7.2909,7.2459,7.2394,7.2493,7.1814,7.1889,7.2395,7.2822,7.307,7.321,7.3354,7.3407,7.3348,7.3131,7.3057,7.3057,7.3057,7.3153,7.3177,7.2717,7.3036,7.3392,7.2976,7.3783,7.47,7.47,7.6015,7.7407,7.783,7.8561,7.9285,7.9708,7.9785,7.9785,7.9785,7.9785,7.9631,7.9208,7.9515,7.9785,7.9785,7.9785,7.9977,8.04,8.0439,8.0631,8.1054,8.1093,8.1093,8.1093,8.1093,8.1093,8.1093,8.1093,8.1093,8.1093,8.1093,8.1093,8.1093,8.1093,8.1093,8.1093,8.1093,8.1093,0.0,0.0,0.0,0.0,0.0,0.0,0.0,6.0752,6.1362,6.1966,6.2395,6.319,6.5019,6.5419,6.5781,6.6897,6.7702,6.8195,6.8097,6.8313,6.849,6.849,6.8189,6.8077,6.8227,6.7793,6.7492,6.7492,6.8735,6.9428,6.9278,7.0724,7.1609,7.1759,7.1888,7.2008,7.2196,7.2845,7.3146,7.3146,7.3146,7.3146,7.3146,7.2459,7.2196,7.2196,7.2196,7.2196,7.2196,7.2196,7.2724,7.3548,7.3548,7.2989,7.223,7.2364,7.2482,7.2576,7.2764,7.2803,7.2803,7.3132,7.3225,7.3189,7.3242,7.3425,7.3567,7.3367,7.363,7.393,7.3776,7.4353,7.5007,7.5168,7.6399,7.7753,7.86,7.9438,8.0246,8.0977,8.1093,8.1093,8.1093,8.1093,8.0862,8.0162,8.0669,8.1093,8.1093,8.1093,8.1093,8.1093,8.1093,8.1093,8.1093,8.1093,8.1093,8.1093,8.1093,8.1093,8.1093,8.1093,8.1093,8.1093,8.1093,8.1093,8.1093,8.1093,8.1093,8.1093,8.1093,8.1093,5.6016,5.7102,5.8774,5.7935,5.9054,6.0138,0.0,6.1278,6.3271,6.3229,6.4826,6.6464,6.7298,6.7562,6.7868,6.8615,6.8928,6.9069,6.9058,6.9718,7.0217,7.0217,6.8903,6.8264,6.9005,6.9581,6.99,6.9911,7.0713,7.09,7.0188,7.1115,7.1997,7.271,7.2759,7.3146,7.3923,7.4009,7.4035,7.4035,7.4035,7.4035,7.4047,7.396,7.3923,7.3923,7.3923,7.3923,7.3923,7.3923,7.3995,7.4105,7.4105,7.4044,7.4011,7.479,7.5272,7.5511,7.5541,7.5362,7.5166,7.5511,7.5432,7.5247,7.5518,7.5648,7.5516,7.474,7.5108,7.5553,7.4776,7.5207,7.6053,7.6823,7.7715,7.86,7.9477,8.0323,8.0977,8.1093,8.1093,8.1093,8.1093,8.1093,8.1054,8.0977,8.1054,8.1093,8.1093,8.1093,8.1093,8.1093,8.1093,8.1093,8.1093,8.1093,8.1093,8.1093,8.1093,8.1093,8.1093,8.1093,8.1093,8.1093,8.1093,8.1093,8.1093,8.1093,8.1093,8.1093,8.1093,8.1093,6.0375,6.024,6.0356,6.1433,6.275,6.359,6.2829,6.4056,6.5462,6.5866,6.6704,6.7621,6.8353,6.8628,6.8806,6.9089,6.9506,6.9855,6.9943,7.0601,7.1115,7.1182,7.1006,7.063,7.0029,7.065,7.0927,7.0451,7.1534,7.2049,7.1712,7.2557,7.318,7.3529,7.3637,7.3822,7.4186,7.4186,7.4186,7.4186,7.4186,7.4186,7.4186,7.4186,7.4186,7.4186,7.4186,7.4186,7.4186,7.4186,7.4186,7.4186,7.4186,7.4286,7.446,7.4647,7.4821,7.4941,7.4941,7.4851,7.476,7.4891,7.4851,7.476,7.4901,7.5066,7.5167,7.4992,7.5296,7.5679,7.5516,7.5745,7.6207,7.7099,7.7907,7.8754,7.9623,8.0477,8.1093,8.1093,8.1093,8.1093,8.1093,8.1093,8.1093,8.1093,8.1093,8.1093,8.1093,8.1093,8.1093,8.1093,8.1093,8.1093,8.1093,8.1093,8.1093,8.1093,8.1093,8.1093,8.1093,8.1093,8.1093,8.1093,8.1093,8.1093,8.1093,8.1093,8.1093,8.1093,8.1093,8.1093,6.2165,6.1983,6.1863,6.3901,6.5179,6.5919,6.5993,6.6475,6.7111,6.7968,6.8117,6.838,6.9203,6.9266,6.9332,6.9787,7.0144,7.0481,7.0807,7.1452,7.1917,7.1997,7.277,7.2684,7.1261,7.185,7.2,7.1186,7.2332,7.2948,7.2724,7.3557,7.4044,7.4009,7.4092,7.4127,7.4092,7.4092,7.4104,7.4139,7.4139,7.4162,7.4186,7.4186,7.4186,7.4186,7.4186,7.4186,7.4186,7.4186,7.4186,7.4186,7.4186,7.432,7.4482,7.4252,7.4324,7.4454,7.4454,7.4454,7.4476,7.4525,7.4557,7.4579,7.4674,7.4831,7.5028,7.5279,7.5481,7.567,7.5932,7.6015,7.6284,7.7369,7.8099,7.8792,7.9939,8.0669,8.1093,8.1093,8.1093,8.1093,8.1093,8.1093,8.1093,8.1093,8.1093,8.1093,8.1093,8.1093,8.1093,8.1093,8.1093,8.1093,8.1093,8.1093,8.1093,8.1093,8.1093,8.1093,8.1093,8.1093,8.1093,8.1093,8.1093,8.1093,8.1093,8.1093,8.1093,8.1093,8.1093,8.1093,5.8871,6.062,6.2528,6.3254,6.4346,6.5634,6.7165,6.7539,6.7823,6.8769,6.8968,6.9241,7.0114,6.9678,6.9674,7.1185,7.089,7.078,7.1558,7.2346,7.2845,7.2845,7.3634,7.3764,7.2735,7.3409,7.3609,7.2796,7.3496,7.3609,7.2822,7.3677,7.4127,7.4021,7.4021,7.3949,7.3815,7.3815,7.3888,7.4021,7.4021,7.408,7.4186,7.4186,7.4186,7.4186,7.4186,7.4186,7.4186,7.4186,7.4186,7.4186,7.4186,7.4197,7.4209,7.4197,7.4568,7.5076,7.5076,7.5076,7.5123,7.5395,7.5481,7.5531,7.5864,7.5939,7.5947,7.5954,7.6,7.6007,7.6015,7.6015,7.6438,7.8061,7.8484,7.8984,8.0669,8.1093,8.1093,8.1093,8.1093,8.1093,8.1093,8.1093,8.1093,8.1093,8.1093,8.1093,8.1093,8.1093,8.1093,8.1093,8.1093,8.1093,8.1093,8.1093,8.1093,8.1093,8.1093,8.1093,8.1093,8.1093,8.1093,8.1093,8.1093,8.1093,8.1093,8.1093,8.1093,8.1093,8.1093,8.1093,6.0526,6.2006,6.3319,6.4354,6.5761,6.7063,6.7613,6.8192,6.8746,6.9089,6.85,6.7993,6.8222,6.8602,6.8984,6.939,7.0789,7.194,7.2321,7.2952,7.3403,7.3476,7.375,7.38,7.3465,7.3774,7.3598,7.2654,7.339,7.3764,7.3465,7.3763,7.3924,7.3876,7.3876,7.3851,7.3802,7.39,7.3973,7.4021,7.4629,7.495,7.5023,7.5549,7.58,7.58,7.5849,7.5849,7.58,7.58,7.5474,7.4986,7.4986,7.4685,7.4186,7.4186,7.4309,7.4482,7.4482,7.4482,7.4503,7.4611,7.4653,7.4674,7.4788,7.4931,7.5104,7.5342,7.5523,7.5732,7.5932,7.6438,7.7138,7.8253,7.8938,7.9669,8.0862,8.1093,8.1246,8.1785,8.19,8.2093,8.2678,8.2747,8.2747,8.2747,8.2285,8.19,8.19,8.2401,8.2747,8.2747,8.2747,8.2747,8.2747,8.2747,8.2747,8.2747,8.2747,8.2747,8.2747,8.2747,8.2747,8.2747,8.2747,8.2747,8.2747,8.2747,8.2747,8.2747,8.2747,8.2747,6.2199,6.3386,6.4457,6.5816,6.7021,6.7958,6.8221,6.8955,6.9599,6.9632,6.8573,6.7775,6.8333,6.7778,6.7753,6.9298,7.0549,7.174,7.2916,7.3417,7.3715,7.379,7.3802,7.379,7.374,7.3827,7.359,7.303,7.3466,7.3802,7.3802,7.3802,7.3778,7.374,7.3778,7.3927,7.4151,7.4287,7.4534,7.492,7.5527,7.5849,7.5887,7.6375,7.6588,7.6626,7.6675,7.6626,7.6588,7.6288,7.5887,7.5399,7.5399,7.5061,7.4685,7.4986,7.5098,7.4974,7.4411,7.4278,7.4354,7.4354,7.4405,7.4503,7.4503,7.4842,7.5249,7.5456,7.5955,7.6437,7.6647,7.7224,7.7946,7.8784,7.9631,8.0516,8.1362,8.1785,8.2131,8.2678,8.2747,8.2947,8.3486,8.3601,8.3601,8.3601,8.3401,8.3131,8.2785,8.3255,8.3601,8.3601,8.3601,8.3601,8.3601,8.3601,8.3601,8.3601,8.3601,8.3601,8.3601,8.3601,8.3601,8.3601,8.3601,8.3601,8.3601,8.3601,8.3601,8.3601,8.3601,8.3601,6.368,6.462,6.598,6.7449,6.7953,6.8264,6.908,6.9828,7.0346,7.0533,6.9144,6.8467,7.0224,6.7429,6.6306,7.0813,7.0365,7.0447,7.3392,7.379,7.379,7.379,7.379,7.374,7.3578,7.3602,7.3653,7.3815,7.379,7.379,7.379,7.379,7.374,7.3652,7.3765,7.4188,7.4857,7.4997,7.5546,7.6505,7.6615,7.6701,7.6751,7.6739,7.6739,7.6826,7.6739,7.6701,7.6588,7.5849,7.5511,7.5436,7.5436,7.5436,7.5549,7.6375,7.6675,7.6363,7.4861,7.45,7.4697,7.4697,7.4915,7.5171,7.5171,7.5742,7.635,7.635,7.7149,7.7985,7.8002,7.8281,7.8738,7.9585,8.0516,8.1362,8.2131,8.2978,8.3601,8.3678,8.3717,8.3717,8.3717,8.3717,8.3717,8.3717,8.4439,8.467,8.3793,8.3717,8.3717,8.3717,8.3717,8.3717,8.3717,8.3717,8.3717,8.3717,8.3717,8.3717,8.3717,8.3717,8.3717,8.3717,8.3717,8.3717,8.3717,8.3717,8.3717,8.3717,8.3717,8.3717,6.4908,6.6153,6.7465,6.7846,6.842,6.9117,6.9954,7.0308,7.0634,7.1257,6.9047,6.7554,6.9571,6.8303,6.7797,7.048,7.1811,7.2744,7.3541,7.354,7.3488,7.3488,7.3488,7.3476,7.3437,7.3437,7.371,7.4331,7.3861,7.3488,7.3488,7.3488,7.3812,7.4472,7.4535,7.4996,7.5893,7.6044,7.6281,7.659,7.7264,7.7589,7.7626,7.8215,7.8478,7.8478,7.8478,7.814,7.7539,7.7363,7.6863,7.6288,7.6288,7.6288,7.6326,7.66,7.6675,7.6551,7.6187,7.6096,7.6178,7.6091,7.6161,7.6241,7.6241,7.6532,7.6889,7.6889,7.7278,7.776,7.795,7.8552,7.9229,7.97,8.0939,8.2054,8.2247,8.2978,8.3793,8.4439,8.5055,8.5478,8.5478,8.5478,8.5478,8.5478,8.567,8.5517,8.467,8.5093,8.5478,8.5478,8.5478,8.5478,8.5478,8.5478,8.5478,8.5478,8.5478,8.5478,8.5478,8.5478,8.5478,8.5478,8.5478,8.5478,8.5478,8.5478,8.5478,8.5478,8.5478,8.5478,6.6501,6.7288,6.8077,6.8441,6.8854,6.9164,6.9016,6.9257,6.9449,6.9186,6.7382,6.6473,6.8586,6.7543,6.7348,7.0424,7.1551,7.2401,7.3388,7.3772,7.3794,7.3423,7.372,7.382,7.35,7.3513,7.3712,7.4223,7.4097,7.4034,7.4034,7.442,7.4758,7.4897,7.5333,7.5994,7.6993,7.7442,7.7653,7.7677,7.8177,7.844,7.844,7.8891,7.9116,7.9116,7.9116,7.8853,7.8403,7.8039,7.7626,7.7164,7.7164,7.7164,7.7239,7.7614,7.7727,7.7677,7.7727,7.7764,7.7614,7.6851,7.6588,7.6588,7.6588,7.7084,7.7679,7.7679,7.8255,7.8942,7.9115,7.9591,8.0139,8.0323,8.1631,8.2755,8.2362,8.3555,8.4824,8.5316,8.5786,8.6094,8.6094,8.6094,8.6094,8.6094,8.6094,8.594,8.547,8.5824,8.6094,8.6094,8.6094,8.6094,8.6094,8.6094,8.6094,8.6094,8.6094,8.6094,8.6094,8.6094,8.6094,8.6094,8.6094,8.6094,8.6094,8.6094,8.6094,8.6094,8.6094,8.6094,6.7986,6.8045,6.8286,6.8999,6.925,6.893,6.7479,6.7753,6.7912,6.6353,6.5323,6.5455,6.7963,6.6493,6.6374,7.0807,7.1039,7.1363,7.3283,7.4253,7.4526,7.382,7.4279,7.4493,7.4,7.3752,7.3765,7.4101,7.4573,7.4845,7.4833,7.5656,7.5882,7.5384,7.6344,7.7254,7.8039,7.8741,7.9116,7.9116,7.9116,7.9116,7.9116,7.9116,7.9154,7.9266,7.9266,7.9266,7.9229,7.8528,7.8227,7.8227,7.8227,7.8227,7.834,7.9004,7.9191,7.9116,7.9116,7.9116,7.8853,7.7414,7.6926,7.6926,7.6926,7.7664,7.8504,7.8548,7.9477,8.0476,8.0596,8.0835,8.1053,8.1085,8.2285,8.3216,8.2439,8.4209,8.5978,8.6094,8.6094,8.6094,8.6094,8.6094,8.6094,8.6094,8.6094,8.6094,8.6094,8.6094,8.6094,8.6094,8.6094,8.6094,8.6094,8.6094,8.6094,8.6094,8.6094,8.6094,8.6094,8.6094,8.6094,8.6094,8.6094,8.6094,8.6094,8.6094,8.6094,8.6094,8.6094,8.6094,6.8005,6.8271,6.8791,6.8941,6.9453,6.9549,6.8136,6.843,6.8622,6.7181,6.5387,6.5272,6.9332,6.8187,6.8011,7.2462,7.3543,7.3949,7.4338,7.5187,7.5699,7.5587,7.5169,7.5184,7.5769,7.4562,7.4338,7.5682,7.5384,7.5085,7.4985,7.5122,7.5857,7.7192,7.8154,7.8716,7.8891,7.9041,7.9116,7.9116,7.9116,7.9116,7.9116,7.9116,7.9492,8.018,8.018,8.018,8.0143,8.003,7.9955,7.9955,7.9955,7.9955,7.9992,8.0105,7.9717,7.9116,7.9116,7.9116,7.9041,7.8766,7.8666,7.8666,7.8666,7.8827,7.9024,7.929,7.9583,7.9923,8.0448,8.065,8.0745,8.1045,8.1823,8.2477,8.2324,8.3785,8.5277,8.5978,8.6094,8.6094,8.6094,8.6094,8.6094,8.6094,8.6094,8.6094,8.6094,8.6094,8.6094,8.6094,8.6094,8.6094,8.6094,8.6094,8.6094,8.6094,8.6094,8.6094,8.6094,8.6094,8.6094,8.6094,8.6094,8.6094,8.6094,8.6094,8.6094,8.6094,8.6094,8.6094,6.8496,6.8638,6.8958,6.9395,6.9759,6.9458,6.7282,6.7427,6.7131,6.4099,6.3622,6.4485,6.6969,6.717,6.7888,7.0793,7.2489,7.3503,7.3599,7.5378,7.6534,7.6215,7.5831,7.5633,7.5708,7.4997,7.4872,7.5732,7.5493,7.5431,7.5708,7.6231,7.7092,7.8379,7.8854,7.9079,7.9004,7.9079,7.9079,7.9004,7.9079,7.9341,7.9792,7.9792,8.0218,8.1031,8.1031,8.1031,8.1031,8.1031,8.1031,8.1031,8.1031,8.0781,8.0405,8.0405,7.9842,7.9116,7.9116,7.9116,7.9116,7.9116,7.9116,7.9116,7.9116,7.9213,7.9378,7.9551,7.9832,8.0209,8.0503,8.072,8.0902,8.1061,8.14,8.2054,8.3362,8.3939,8.4593,8.5863,8.6094,8.6094,8.6094,8.6094,8.6094,8.6094,8.6094,8.6094,8.6094,8.6094,8.6094,8.6094,8.6094,8.6094,8.6094,8.6094,8.6094,8.6094,8.6094,8.6094,8.6094,8.6094,8.6094,8.6094,8.6094,8.6094,8.6094,8.6094,8.6094,8.6094,8.6094,8.6094,6.8809,6.8763,6.8844,6.9751,7.0026,6.9347,6.6564,6.6553,6.5851,6.1302,6.1932,6.3587,6.4452,6.5705,6.7179,6.882,7.069,7.2196,7.282,7.5213,7.6853,7.6815,7.6518,7.6219,7.6056,7.5543,7.5355,7.5626,7.5626,7.5878,7.6356,7.7503,7.8428,7.9029,7.9091,7.9054,7.8953,7.9054,7.9129,7.9216,7.9329,7.9754,8.0405,8.0405,8.0856,8.1594,8.1594,8.182,8.2158,8.2158,8.2158,8.2158,8.2158,8.1632,8.0931,8.0931,8.0355,7.9642,7.9642,7.9642,7.9604,7.9417,7.9266,7.9116,7.9116,7.9285,7.9505,7.9585,8.001,8.0532,8.0787,8.0975,8.1093,8.1093,8.1093,8.1747,8.4093,8.4093,8.4101,8.5786,8.6094,8.6094,8.6094,8.6094,8.6094,8.6094,8.6094,8.6094,8.6094,8.6094,8.6094,8.6094,8.6094,8.6094,8.6094,8.6094,8.6094,8.6094,8.6094,8.6094,8.6094,8.6094,8.6094,8.6094,8.6094,8.6094,8.6094,8.6094,8.6094,8.6094,8.6094,8.6094,6.816,6.8358,6.8369,6.931,7.0113,6.9943,6.7206,6.723,6.6548,6.2082,6.1897,6.2918,6.4345,6.5276,6.6518,6.8748,6.9893,7.1205,7.3318,7.4699,7.6235,7.8232,7.7342,7.7127,7.8603,7.6701,7.564,7.633,7.6405,7.6393,7.6393,7.8066,7.8979,7.8928,7.9054,7.9104,7.9091,7.9104,7.9492,8.0268,8.0293,8.033,8.0405,8.0405,8.0856,8.1594,8.1594,8.2458,8.3885,8.3885,8.3885,8.3885,8.3885,8.3359,8.2595,8.2595,8.207,8.1369,8.1369,8.1369,8.1256,8.0518,7.9754,7.9116,7.9116,7.9141,7.9201,7.9505,7.9843,8.0381,8.143,8.1397,8.1093,8.1093,8.1093,8.1593,8.3332,8.3678,8.4101,8.5786,8.6094,8.6094,8.6094,8.6094,8.6094,8.6094,8.6094,8.6094,8.6094,8.6094,8.6094,8.6094,8.6094,8.6094,8.6094,8.6094,8.6094,8.6094,8.6094,8.6094,8.6094,8.6094,8.6094,8.6094,8.6094,8.6094,8.6094,8.6094,8.6094,8.6094,8.6094,8.6094,6.8012,6.8592,6.9069,7.0,7.0776,7.0632,6.8015,6.8035,6.7348,6.2893,6.2832,6.3689,6.3948,6.4515,6.5236,6.6289,6.7887,6.9839,7.227,7.4165,7.6189,7.8652,7.8041,7.744,7.7516,7.6642,7.618,7.6468,7.7392,7.7717,7.723,7.8404,7.9091,7.9029,7.9079,7.9304,7.9716,7.983,8.0242,8.0991,8.1068,8.1369,8.182,8.1332,8.1557,8.2295,8.182,8.227,8.3309,8.3309,8.3622,8.411,8.411,8.3585,8.2821,8.2821,8.2295,8.1594,8.1594,8.1594,8.1557,8.1219,8.0881,8.0505,8.0017,8.0205,8.0593,8.0374,8.0922,8.1637,8.1765,8.2212,8.2477,8.1939,8.2208,8.2939,8.4132,8.4362,8.4709,8.5901,8.6094,8.6094,8.6094,8.6094,8.6094,8.6094,8.6094,8.6094,8.6094,8.6094,8.6094,8.6094,8.6094,8.6094,8.6094,8.6094,8.6094,8.6094,8.6094,8.6094,8.6094,8.6094,8.6094,8.6094,8.6094,8.6094,8.6094,8.6094,8.6094,8.6094,8.6094,8.6094,6.7723,6.8685,6.9418,7.0352,7.0807,7.0494,6.8551,6.8167,6.7195,6.3349,6.3536,6.4218,6.3621,6.4042,6.455,6.4672,6.6635,6.885,7.0842,7.3171,7.5291,7.705,7.7201,7.683,7.5919,7.6231,7.6581,7.668,7.7866,7.8365,7.8028,7.8954,7.9354,7.9054,7.9317,7.9717,8.0178,8.058,8.1106,8.1827,8.1918,8.2257,8.2783,8.197,8.1895,8.2408,8.1594,8.1707,8.2445,8.2708,8.3158,8.3735,8.3998,8.3735,8.3158,8.3158,8.2834,8.2345,8.2345,8.2345,8.2308,8.2045,8.212,8.2195,8.1369,8.1332,8.1508,8.1138,8.1982,8.2886,8.2449,8.3154,8.3747,8.2901,8.2947,8.3516,8.467,8.4709,8.4824,8.5901,8.6094,8.6094,8.6094,8.6094,8.6094,8.6094,8.6094,8.6094,8.6094,8.6094,8.6094,8.6094,8.6094,8.6094,8.6094,8.6094,8.6094,8.6094,8.6094,8.6094,8.6094,8.6094,8.6094,8.6094,8.6094,8.6094,8.6094,8.6094,8.6094,8.6094,8.6094,8.6094,6.712,6.8396,6.9109,7.0082,6.9789,6.9198,6.8687,6.7439,6.5697,6.345,6.3747,6.4183,6.3432,6.4077,6.4689,6.4689,6.6735,6.8541,6.922,7.1531,7.3085,7.2989,7.4439,7.5142,7.4391,7.5644,7.668,7.7156,7.754,7.799,7.8633,7.9766,7.993,7.8915,7.9879,8.0405,8.0405,8.1181,8.2007,8.2783,8.2783,8.2783,8.2783,8.197,8.1594,8.1557,8.0781,8.0856,8.167,8.2483,8.2821,8.2896,8.3772,8.4073,8.4073,8.4073,8.4073,8.4073,8.4073,8.4073,8.3922,8.3083,8.3359,8.3922,8.3046,8.222,8.1594,8.1594,8.2708,8.3824,8.3615,8.4247,8.467,8.3793,8.2939,8.2785,8.4508,8.4209,8.4101,8.5786,8.6094,8.6094,8.6094,8.6094,8.6094,8.6094,8.6094,8.6094,8.6094,8.6094,8.6094,8.6094,8.6094,8.6094,8.6094,8.6094,8.6094,8.6094,8.6094,8.6094,8.6094,8.6094,8.6094,8.6094,8.6094,8.6094,8.6094,8.6094,8.6094,8.6094,8.6094,8.6094,6.4359,6.5445,6.6285,6.7104,6.7532,6.7651,6.7143,6.6669,6.5822,6.4183,6.3953,6.4039,6.3938,6.4059,6.455,6.5817,6.7185,6.8566,6.9953,7.2634,7.4456,7.4412,7.5241,7.5548,7.4833,7.5694,7.6431,7.6705,7.7816,7.8903,7.9816,8.0205,8.023,7.993,8.0756,8.1482,8.2045,8.2295,8.2871,8.3697,8.3697,8.3697,8.366,8.2821,8.212,8.1557,8.0743,8.0556,8.0818,8.1031,8.1482,8.2083,8.2896,8.3196,8.3271,8.3885,8.411,8.411,8.411,8.411,8.4035,8.3772,8.3885,8.4035,8.3772,8.3509,8.34,8.3838,8.4088,8.4232,8.4425,8.4709,8.4824,8.4555,8.4286,8.4401,8.5478,8.5517,8.5478,8.6017,8.6094,8.6094,8.6094,8.6094,8.6094,8.6094,8.6094,8.6094,8.6094,8.6094,8.6094,8.6094,8.6094,8.6094,8.6094,8.6094,8.6094,8.6094,8.6094,8.6094,8.6094,8.6094,8.6094,8.6094,8.6094,8.6094,8.6094,8.6094,8.6094,8.6094,8.6094,8.6094,6.299,6.4092,6.4911,6.5647,6.5994,6.6183,6.6118,6.5687,6.5023,6.4142,6.3929,6.3945,6.4055,6.4072,6.4409,6.5594,6.781,6.9501,6.9884,7.3169,7.541,7.5115,7.4857,7.4924,7.5508,7.6032,7.6518,7.6905,7.8516,7.9742,8.0368,8.0969,8.1269,8.1217,8.1705,8.2204,8.2626,8.2963,8.3375,8.3913,8.3913,8.394,8.3956,8.3117,8.2468,8.2007,8.1181,8.0856,0.0,8.1181,8.1407,8.167,8.2483,8.2595,8.2445,8.3322,8.3622,8.366,8.3998,8.411,8.411,8.411,8.411,8.411,8.411,8.411,8.4254,8.4919,8.4882,8.471,8.5224,8.5354,8.5354,8.5354,8.5124,8.5124,8.594,8.5863,8.5747,8.6055,8.6094,8.6094,8.6094,8.6094,8.6094,8.6094,8.6094,8.6094,8.6094,8.6094,8.6094,8.6094,8.6094,8.6094,8.6094,8.6094,8.6094,8.6094,8.6094,8.6094,8.6094,8.6094,8.6094,8.6094,8.6094,8.6094,8.6094,8.6094,8.6094,8.6094,8.6094,8.6094,0.0,6.376,6.4416,6.5189,6.4897,6.4689,6.5479,6.4597,0.0,6.36,6.3747,6.3891,6.3891,6.4019,6.4234,6.4481,6.8434,7.0925,6.9282,7.312,7.5845,7.5211,7.3766,7.3815,7.6281,7.6566,7.6915,7.7667,7.9317,8.0355,8.0468,8.1869,8.2692,8.2658,8.2658,8.2604,8.2481,8.3214,8.3588,8.3588,8.3588,8.3671,8.3747,8.3035,8.2727,8.2745,8.2007,8.167,8.167,8.2408,8.2257,8.167,8.2483,8.2333,8.1782,8.2595,8.2858,8.2933,8.3735,8.3998,8.4035,8.4073,8.411,8.411,8.411,8.411,8.4254,8.4919,8.5116,8.5273,8.5911,8.6055,8.6017,8.6094,8.547,8.5124,8.594,8.5517,8.5201,8.5931,8.6094,8.6094,8.6094,8.6094,8.6094,8.6094,8.6094,8.6094,8.6094,8.6094,8.6094,8.6094,8.6094,8.6094,8.6094,8.6094,8.6094,8.6094,8.6094,8.6094,8.6094,8.6094,8.6094,8.6094,8.6094,8.6094,8.6094,8.6094,8.6094,8.6094,8.6094,8.6094,6.0085,0.0,6.0833,6.2022,6.2231,6.2437,0.0,6.385,6.36,6.36,6.3637,6.3673,6.3673,6.371,6.4194,6.5615,6.8342,7.0185,6.9885,7.272,7.5242,7.6384,7.5733,7.5526,7.6418,7.6566,7.6964,7.7803,7.8704,7.9828,8.1102,8.1409,8.2074,8.3191,8.3214,8.3256,8.3326,8.3513,8.3588,8.3588,8.3588,8.3671,8.3784,8.3597,8.3265,8.2783,8.2595,8.2182,8.1594,8.182,8.1782,8.167,8.2483,8.267,8.2633,8.3472,8.3359,8.2821,8.3046,8.3121,8.3234,8.3885,8.411,8.411,8.411,8.411,8.4254,8.4919,8.5116,8.5273,8.5911,8.5632,8.5363,8.5931,8.547,8.5124,8.594,8.5931,8.5863,8.6055,8.6094,8.6094,8.6094,8.6094,8.6094,8.6094,8.6094,8.6094,8.6094,8.6094,8.6094,8.6094,8.6094,8.6094,8.6094,8.6094,8.6094,8.6094,8.6094,8.6094,8.6094,8.6094,8.6094,8.6094,8.6094,8.6094,8.6094,8.6094,8.6094,8.6094,8.6094,8.6094,5.9115,5.9425,5.9961,6.1031,6.1565,6.2151,6.3324,6.36,6.36,6.36,6.36,6.36,6.36,6.3324,6.3579,6.4953,6.7818,7.0775,7.3427,7.4232,7.5007,7.6476,7.6312,7.6205,7.6517,7.659,7.709,7.8279,7.9028,7.9826,8.0658,8.1364,8.2076,8.2831,8.3227,8.3413,8.3427,8.3427,8.3427,8.3427,8.3427,8.3475,8.363,8.3685,8.3532,8.3254,8.3358,8.3171,8.2758,8.2758,8.2496,8.2182,8.2633,8.2558,8.2333,8.3196,8.3196,8.2858,8.3271,8.3384,8.3459,8.396,8.411,8.411,8.411,8.411,8.4254,8.4919,8.5116,8.5273,8.5911,8.5778,8.5555,8.6017,8.5786,8.5555,8.6017,8.6094,8.6094,8.6094,8.6094,8.6094,8.6094,8.6094,8.6094,8.6094,8.6094,8.6094,8.6094,8.6094,8.6094,8.6094,8.6094,8.6094,8.6094,8.6094,8.6094,8.6094,8.6094,8.6094,8.6094,8.6094,8.6094,8.6094,8.6094,8.6094,8.6094,8.6094,8.6094,8.6094,8.6094,8.6094,5.8995,5.9823,6.0791,6.1221,6.1806,6.2549,6.3393,6.36,6.3565,6.348,6.3531,6.3531,6.3289,6.291,6.3003,6.4108,6.7795,7.2313,7.7344,7.6345,7.5439,7.629,7.628,7.6331,7.6728,7.6639,7.7216,7.874,7.9463,7.986,7.989,8.1306,8.2095,8.1969,8.29,8.3237,8.3009,8.3158,8.3195,8.3195,8.3195,8.3268,8.3413,8.3392,8.3457,8.3583,8.3642,8.3708,8.3708,8.3834,8.3472,8.2821,8.2933,8.2558,8.2045,8.2745,8.2896,8.2896,8.366,8.3885,8.3922,8.4073,8.411,8.411,8.411,8.411,8.4254,8.4919,8.5116,8.5273,8.5911,8.6094,8.6094,8.6094,8.6094,8.6094,8.6094,8.6094,8.6094,8.6094,8.6094,8.6094,8.6094,8.6094,8.6094,8.6094,8.6094,8.6094,8.6094,8.6094,8.6094,8.6094,8.6094,8.6094,8.6094,8.6094,8.6094,8.6094,8.6094,8.6094,8.6094,8.6094,8.6094,8.6094,8.6094,8.6094,8.6094,8.6094,8.6094,8.6094,8.6094,8.6094,5.8995,6.0944,6.2714,6.1569,6.1392,6.1875,6.3289,6.36,6.3427,6.279,6.317,6.3186,6.1875,6.2634,6.3999,6.5736,7.0482,7.475,7.6954,7.7376,7.7418,7.7299,7.6641,7.6555,7.743,7.688,7.708,7.8622,7.8741,7.9047,7.9691,8.0498,8.0948,8.092,8.2444,8.2875,8.2192,8.286,8.3195,8.3195,8.3195,8.3268,8.3376,8.2733,8.2482,8.2597,8.2035,8.1801,8.1876,8.2669,8.2933,8.2858,8.3622,8.381,8.3735,8.3847,8.3421,8.2821,8.2933,8.3008,8.3121,8.3847,8.411,8.411,8.411,8.411,8.4254,8.4919,8.5116,8.5273,8.5911,8.6094,8.6094,8.6094,8.6094,8.6094,8.6094,8.6094,8.6094,8.6094,8.6094,8.6094,8.6094,8.6094,8.6094,8.6094,8.6094,8.6094,8.6094,8.6094,8.6094,8.6094,8.6094,8.6094,8.6094,8.6094,8.6094,8.6094,8.6094,8.6094,8.6094,8.6094,8.6094,8.6094,8.6094,8.6094,8.6094,8.6094,8.6094,8.6094,8.6094,8.6094,5.8995,6.0012,6.1325,6.23,6.3779,6.5159,6.5881,6.6021,6.5583,6.4009,6.4304,6.4057,6.1705,6.3291,6.6073,6.9533,7.1625,7.3982,7.726,7.6593,7.6042,7.6701,7.6056,7.5882,7.6817,7.6518,7.6941,7.8491,7.8536,7.8631,7.8921,8.0065,8.0691,8.0691,8.234,8.3009,8.2637,8.3009,8.3195,8.3195,8.3195,8.3001,8.2628,8.2341,8.2002,8.1624,8.1401,8.1281,8.1332,8.1839,8.2041,8.2129,8.302,8.3384,8.3472,8.3922,8.3847,8.3509,8.3509,8.3509,8.3585,8.396,8.411,8.4125,8.4306,8.4368,8.4491,8.519,8.5252,8.5273,8.5911,8.6094,8.6094,8.6094,8.6094,8.6094,8.6094,8.6094,8.6094,8.6094,8.6094,8.6094,8.6094,8.6094,8.6094,8.6094,8.6094,8.6094,8.6094,8.6094,8.6094,8.6094,8.6094,8.6094,8.6094,8.6094,8.6094,8.6094,8.6094,8.6094,8.6094,8.6094,8.6094,8.6094,8.6094,8.6094,8.6094,8.6094,8.6094,8.6094,8.6094,8.6094,5.8995,5.9391,6.051,6.3397,6.5575,6.7223,6.7958,6.8098,6.7558,6.5607,6.5947,6.5653,6.2422,6.4651,6.8203,7.205,7.2604,7.3918,7.7756,7.6023,7.4778,7.6015,7.5445,7.5258,7.608,7.6154,7.6774,7.8356,7.8641,7.86,7.8327,7.9851,8.0617,8.0431,8.2043,8.2935,8.2935,8.3121,8.3195,8.3195,8.3195,8.2786,8.2006,8.1898,8.1396,8.0665,8.058,8.0573,8.0586,8.0907,8.1048,8.1123,8.2052,8.2442,8.2594,8.3459,8.381,8.381,8.4035,8.411,8.411,8.411,8.411,8.4138,8.4406,8.4527,8.4741,8.5324,8.5365,8.5365,8.5966,8.6094,8.6094,8.6094,8.6094,8.6094,8.6094,8.6094,8.6094,8.6094,8.6094,8.6094,8.6094,8.6094,8.6094,8.6094,8.6094,8.6094,8.6094,8.6094,8.6094,8.6094,8.6094,8.6094,8.6094,8.6094,8.6094,8.6094,8.6094,8.6094,8.6094,8.6094,8.6094,8.6094,8.6094,8.6094,8.6094,8.6094,8.6094,8.6094,8.6094,8.6094,5.8995,6.0542,6.2725,6.5066,6.4776,6.4673,6.7451,6.8098,6.7832,6.6942,6.7994,6.7902,6.412,6.6773,6.9881,7.0899,7.4228,7.7042,7.8165,7.6777,7.574,7.5986,7.5304,7.5118,7.5938,7.5999,7.6654,7.8206,7.901,7.9108,7.8327,7.9851,8.0357,7.9628,8.1226,8.208,8.208,8.2823,8.3195,8.3195,8.3195,8.2786,8.1969,8.1151,8.0385,7.9567,7.8939,7.8671,7.8759,7.9639,8.0005,8.0117,8.0976,8.1407,8.1601,8.2556,8.2896,8.3008,8.381,8.411,8.411,8.411,8.411,8.4086,8.4112,8.4343,8.4682,8.504,8.5355,8.5637,8.6018,8.6094,8.6094,8.6094,8.6094,8.6094,8.6094,8.6094,8.6094,8.6094,8.6094,8.6094,8.6094,8.6094,8.6094,8.6094,8.6094,8.6094,8.6094,8.6094,8.6094,8.6094,8.6094,8.6094,8.6094,8.6094,8.6094,8.6094,8.6094,8.6094,8.6094,8.6094,8.6094,8.6094,8.6094,8.6094,8.6094,8.6094,8.6094,8.6094,8.6094,8.6094,5.8995,6.0662,6.2948,6.5253,6.6431,6.7682,7.0272,7.0829,7.0338,6.8631,6.9151,6.9373,6.7604,6.9821,7.22,7.3078,7.583,7.7956,7.8253,7.6878,7.5814,7.5867,7.4714,7.4417,7.5756,7.5867,7.656,7.8179,7.907,7.9368,7.907,8.0631,8.1374,8.1077,8.2154,8.2749,8.2749,8.3046,8.3195,8.3195,8.2712,8.2006,8.1151,8.0334,7.9516,7.8736,7.8494,7.8373,7.8424,7.8871,7.9037,7.9125,8.0026,8.0819,8.1438,8.179,8.1968,8.212,8.242,8.2871,8.3271,8.3271,8.366,8.4177,8.4599,8.4806,8.5029,8.5561,8.5822,8.5928,8.6069,8.6094,8.6094,8.6094,8.6094,8.6094,8.6094,8.6094,8.6094,8.6094,8.6094,8.6094,8.6094,8.6094,8.6094,8.6094,8.6094,8.6094,8.6094,8.6094,8.6094,8.6094,8.6094,8.6094,8.6094,8.6094,8.6094,8.6094,8.6094,8.6094,8.6094,8.6094,8.6094,8.6094,8.6094,8.6094,8.6094,8.6094,8.6094,8.6094,8.6094,8.6094,5.8926,5.9974,6.1773,6.4975,6.6937,6.8845,7.1823,7.2496,7.2064,7.0514,7.0441,7.063,7.053,7.219,7.3776,7.4415,7.6218,7.7621,7.7881,7.6246,7.5132,7.5392,7.4203,7.4017,7.5652,7.5801,7.6507,7.8179,7.9293,7.9776,7.9516,8.1077,8.2006,8.2006,8.2526,8.2935,8.3195,8.3195,8.3083,8.2823,8.2266,8.1709,8.1077,7.9999,7.9219,7.8662,7.8402,7.829,7.829,7.84,7.8441,7.8492,7.9199,7.9866,8.052,8.0821,8.1001,8.1155,8.1455,8.1931,8.2408,8.2408,8.2911,8.3615,8.4302,8.4686,8.5021,8.5737,8.6026,8.6094,8.6094,8.6094,8.6094,8.6094,8.6094,8.6094,8.6094,8.6094,8.6094,8.6094,8.6094,8.6094,8.6094,8.6094,8.6094,8.6094,8.6094,8.6094,8.6094,8.6094,8.6094,8.6094,8.6094,8.6094,8.6094,8.6094,8.6094,8.6094,8.6094,8.6094,8.6094,8.6094,8.6094,8.6094,8.6094,8.6094,8.6094,8.6094,8.6094,8.6094,8.6094,8.6094,5.8788,5.8495,5.9226,6.4508,6.5819,6.7024,7.148,7.2496,7.2496,7.2496,7.1988,7.1754,7.2531,7.3629,7.4409,7.4372,7.5187,7.6135,7.699,7.4983,7.372,7.4537,7.3906,7.4017,7.5615,7.5801,7.6507,7.8179,7.9814,8.0371,7.9553,8.1114,8.2006,8.2006,8.2006,8.2377,8.3195,8.3195,8.2786,8.2006,8.2006,8.2006,8.1931,8.0259,7.9516,7.9479,7.8662,7.829,7.829,7.829,7.829,7.8304,7.8455,7.8509,7.8597,7.9527,7.9959,8.0189,8.1087,8.1479,8.1594,8.1594,8.1819,8.2243,8.306,8.379,8.4471,8.537,8.584,8.6094,8.6094,8.6094,8.6094,8.6094,8.6094,8.6094,8.6094,8.6094,8.6094,8.6094,8.6094,8.6094,8.6094,8.6094,8.6094,8.6094,8.6094,8.6094,8.6094,8.6094,8.6094,8.6094,8.6094,8.6094,8.6094,8.6094,8.6094,8.6094,8.6094,8.6094,8.6094,8.6094,8.6094,8.6094,8.6094,8.6094,8.6094,8.6094,8.6094,8.6094,8.6094,8.6094,5.8788,6.1159,6.3834,6.5423,6.8177,7.0843,7.2203,7.2496,7.2496,7.2496,7.323,7.3319,7.1361,7.4187,7.5904,7.3087,7.5408,7.7435,7.7138,7.5949,7.5169,7.5429,7.424,7.3794,7.4834,7.5466,7.6246,7.7361,7.9479,8.058,8.0357,8.1931,8.286,8.286,8.286,8.2972,8.3195,8.3195,8.3083,8.286,8.2266,8.1671,8.104,7.9999,7.9516,7.9479,7.8662,7.829,7.829,7.829,7.829,7.829,7.8332,7.8414,7.8509,7.8823,7.9058,7.929,7.9552,8.0129,8.0781,8.0976,8.1507,8.2222,8.2939,8.3677,8.4402,8.4954,8.5604,8.6094,8.6094,8.6094,8.6094,8.6094,8.6094,8.6094,8.6094,8.6094,8.6094,8.6094,8.6094,8.6094,8.6094,8.6094,8.6094,8.6094,8.6094,8.6094,8.6094,8.6094,8.6094,8.6094,8.6094,8.6094,8.6094,8.6094,8.6094,8.6094,8.6094,8.6094,8.6094,8.6094,8.6094,8.6094,8.6094,8.6094,8.6094,8.6094,8.6094,8.6094,8.6094,8.6094,5.9672,6.2345,6.5222,6.6741,6.9138,7.1392,7.2291,7.2496,7.2606,7.2899,7.4001,7.4462,7.2984,7.5522,7.6921,7.4287,7.6073,7.7547,7.6692,7.6135,7.5689,7.5355,7.4463,7.4054,7.4537,7.5318,7.6172,7.7027,7.9033,8.0357,8.0705,8.2006,8.286,8.3195,8.3195,8.3195,8.3195,8.3195,8.3046,8.2712,8.2563,8.2043,8.1188,8.0371,8.0185,8.0445,7.9293,7.8587,7.829,7.829,7.829,7.829,7.829,7.8345,7.8427,7.8427,7.8562,7.8747,7.8747,7.9175,7.9792,8.0118,8.0689,8.1404,8.2321,8.3252,8.4152,8.4736,8.547,8.6094,8.6094,8.6094,8.6094,8.6094,8.6094,8.6094,8.6094,8.6094,8.6094,8.6094,8.6094,8.6094,8.6094,8.6094,8.6094,8.6094,8.6094,8.6094,8.6094,8.6094,8.6094,8.6094,8.6094,8.6094,8.6094,8.6094,8.6094,8.6094,8.6094,8.6094,8.6094,8.6094,8.6094,8.6094,8.6094,8.6094,8.6094,8.6094,8.6094,8.6094,8.6094,8.6094,6.094,6.2575,6.4638,6.8132,6.9219,6.9944,7.2013,7.2496,7.2716,7.3538,7.4346,7.5198,7.6133,7.7068,7.7472,7.6801,7.6857,7.6729,7.6024,7.5838,7.554,7.4797,7.4649,7.4574,7.45,7.528,7.6135,7.6915,7.855,7.9851,8.0654,8.1523,8.2377,8.3158,8.3195,8.3195,8.3195,8.3195,8.2823,8.2117,8.286,8.2823,8.208,8.1226,8.1226,8.182,8.0259,7.9182,7.8513,7.8513,7.8476,7.8402,7.8402,7.8364,7.829,7.829,7.8386,7.8509,7.8509,7.8589,7.8787,7.9248,7.9625,8.0103,8.127,8.2561,8.3747,8.4522,8.5376,8.6094,8.6094,8.6094,8.6094,8.6094,8.6094,8.6094,8.6094,8.6094,8.6094,8.6094,8.6094,8.6094,8.6094,8.6094,8.6094,8.6094,8.6094,8.6094,8.6094,8.6094,8.6094,8.6094,8.6094,8.6094,8.6094,8.6094,8.6094,8.6094,8.6094,8.6094,8.6094,8.6094,8.6094,8.6094,8.6094,8.6077,8.6043,8.6077,8.6077,8.6043,8.6077,8.6094,6.0273,6.3586,6.7146,6.7969,6.9989,7.1911,7.2393,7.2496,7.2716,7.3538,7.447,7.5198,7.5411,7.6306,7.675,7.5963,7.5989,7.6246,7.6767,7.6246,7.5726,7.5578,7.4983,7.4351,7.372,7.4946,7.5875,7.6061,7.8216,7.9851,8.0654,8.1523,8.2377,8.3158,8.3195,8.3195,8.3195,8.3195,8.3121,8.2935,8.3121,8.3121,8.2898,8.208,8.1448,8.0965,8.0594,8.032,8.0171,8.0171,7.9814,7.9256,7.9256,7.8847,7.829,7.829,7.8386,7.8509,7.8509,7.8589,7.8787,7.9248,7.9625,7.9986,8.0359,8.1952,8.3599,8.3503,8.4741,8.6094,8.6094,8.6094,8.6094,8.6094,8.6094,8.6094,8.6094,8.6094,8.6094,8.6094,8.6094,8.6094,8.6094,8.6094,8.6094,8.6094,8.6094,8.6094,8.6094,8.6094,8.6094,8.6094,8.6094,8.6094,8.6094,8.6094,8.6094,8.6094,8.6094,8.6094,8.6094,8.6094,8.6094,8.6094,8.6094,8.5911,8.5542,8.5919,8.5911,8.5542,8.5919,8.6094,6.147,6.4812,6.8239,6.9719,7.1289,7.2496,7.2496,7.2496,7.273,7.3625,7.4212,7.474,7.5218,7.5823,7.5967,7.522,7.5487,7.5949,7.6395,7.6469,7.6284,7.5838,7.5429,7.4723,7.3534,7.45,7.5392,7.5763,7.7398,7.8885,8.0059,8.0557,8.1374,8.26,8.2637,8.2823,8.3195,8.3195,8.3195,8.3195,8.3195,8.3195,8.3195,8.2786,8.2117,8.1337,8.1337,8.1114,8.0691,8.0691,8.0431,8.0036,7.9665,7.9256,7.8847,7.8439,7.8332,7.8441,7.8671,7.8776,7.8966,7.9632,8.001,8.02,8.0485,8.1687,8.303,8.3282,8.4379,8.5624,8.6017,8.6094,8.6094,8.6094,8.6094,8.6094,8.6094,8.6094,8.6094,8.6094,8.6094,8.6094,8.6094,8.6094,8.6094,8.6094,8.6094,8.6094,8.6094,8.6094,8.6094,8.6094,8.6094,8.6094,8.6094,8.6094,8.6094,8.6094,8.6094,8.6094,8.6094,8.6094,8.6094,8.6094,8.5884,8.5656,8.5407,8.5416,8.5416,8.5416,8.5665,8.5884,6.2714,6.5769,6.8954,7.1793,7.2496,7.2496,7.2496,7.2496,7.2708,7.3499,7.3938,7.4415,7.5244,7.5495,7.5425,7.4842,7.5092,7.5463,7.575,7.6432,7.6544,7.5689,7.5726,7.5169,7.3571,7.4128,7.4872,7.554,7.6544,7.7733,7.9219,7.9442,8.0185,8.1746,8.1783,8.2192,8.2972,8.3009,8.3046,8.3195,8.3195,8.3195,8.3195,8.3195,8.286,8.2229,8.2229,8.182,8.1137,8.1137,8.104,8.0854,8.0036,7.9628,7.9405,7.8587,7.829,7.8373,7.8815,7.8979,7.9137,7.9992,8.0335,8.0485,8.0805,8.156,8.247,8.3275,8.4176,8.5085,8.5893,8.6094,8.6094,8.6094,8.6094,8.6094,8.6094,8.6094,8.6094,8.6094,8.6094,8.6094,8.6094,8.6094,8.6094,8.6094,8.6094,8.6094,8.6094,8.6094,8.6094,8.6094,8.6094,8.6094,8.6094,8.6094,8.6094,8.6094,8.6094,8.6094,8.6094,8.6094,8.6094,8.6094,8.5647,8.5367,8.5296,8.4876,8.4887,8.5296,8.5377,8.5665,6.1614,6.5895,7.0246,7.2041,7.2496,7.2496,7.2496,7.2496,7.2532,7.2657,7.404,7.5221,7.5369,7.5495,7.5569,7.5486,7.4374,7.4057,7.5588,7.5912,7.5689,7.4872,7.5392,7.5169,7.3571,7.4128,7.4649,7.476,7.6209,7.751,7.8402,7.9108,7.9925,8.0854,8.0891,8.13,8.2154,8.2154,8.2526,8.3195,8.3195,8.3195,8.3195,8.3195,8.3158,8.3046,8.3046,8.2972,8.286,8.286,8.2452,8.1746,8.0891,8.0111,7.9405,7.8587,7.829,7.8345,7.8712,7.8891,7.9089,7.9621,8.0053,8.0363,8.0287,8.1186,8.2437,8.3016,8.3995,8.5085,8.5893,8.6094,8.6094,8.6094,8.6094,8.6094,8.6094,8.6094,8.6094,8.6094,8.6094,8.6094,8.6094,8.6094,8.6094,8.6094,8.6094,8.6094,8.6094,8.6094,8.6094,8.6094,8.6094,8.6094,8.6094,8.6094,8.6094,8.6094,8.6094,8.6094,8.6094,8.6094,8.6094,8.6094,8.5647,8.5187,8.4776,8.4746,8.4708,8.4787,8.5197,8.5665,6.2399,6.6597,7.0367,7.1541,7.2165,7.2496,7.2496,7.2496,7.251,7.2596,7.3681,7.448,7.3987,7.4441,7.4791,7.4347,7.371,7.3752,7.497,7.554,7.5689,7.5318,7.5578,7.5355,7.4166,7.398,7.4128,7.4574,7.528,7.6246,7.7547,7.7956,7.8736,7.9999,8.0022,8.0445,8.1263,8.1263,8.1709,8.2526,8.2972,8.3195,8.3195,8.3195,8.3195,8.3195,8.3195,8.3195,8.3195,8.3195,8.3009,8.26,8.1746,8.0928,8.0074,7.9256,7.8699,7.8373,7.8866,7.9198,7.9475,8.005,8.0485,8.0771,8.0693,8.1107,8.1761,8.2463,8.3396,8.4362,8.5209,8.5747,8.6094,8.6094,8.6094,8.6094,8.6094,8.6094,8.6094,8.6094,8.6094,8.6094,8.6094,8.6094,8.6094,8.6094,8.6094,8.6094,8.6094,8.6094,8.6094,8.6094,8.6094,8.6094,8.6094,8.6094,8.6094,8.6094,8.6094,8.6094,8.6094,8.6094,8.6094,8.6094,8.5647,8.5317,8.5082,8.481,8.4859,8.5082,8.5317,8.5665,6.2678,6.6023,6.8895,7.031,7.1121,7.1765,7.2342,7.2496,7.2524,7.2624,7.3358,7.3717,7.2856,7.3596,7.4158,7.3593,7.3403,7.3569,7.419,7.4983,7.5503,7.5503,7.5503,7.528,7.4649,7.3868,7.3645,7.424,7.4463,7.5243,7.6692,7.699,7.7733,7.9145,7.9219,7.9591,8.0394,8.058,8.104,8.1671,8.2266,8.2563,8.2563,8.2563,8.2563,8.26,8.3009,8.3195,8.3195,8.3195,8.3195,8.3121,8.2303,8.1486,8.0617,8.0022,7.9182,7.8424,7.9229,7.9599,7.9794,8.0344,8.0788,8.1093,8.1093,8.1093,8.1285,8.2054,8.2755,8.3524,8.4632,8.5363,8.5863,8.6055,8.6094,8.6069,8.6001,8.5992,8.5966,8.5858,8.5902,8.5992,8.5992,8.6043,8.6094,8.6094,8.6094,8.6094,8.6094,8.6094,8.6094,8.6094,8.6094,8.6094,8.6094,8.6094,8.6094,8.6094,8.6094,8.6094,8.6094,8.6094,8.6094,8.6094,8.5748,8.5514,8.5407,8.492,8.4931,8.5407,8.5407,8.5665,6.1275,6.2997,6.5078,6.8229,6.9064,6.9697,7.1984,7.2496,7.2496,7.2496,7.3235,7.3666,7.2856,7.3513,7.4233,7.432,7.368,7.3265,7.3447,7.4166,7.4649,7.4649,7.4649,7.4649,7.4612,7.3868,7.3423,7.346,7.4166,7.4983,7.5838,7.6655,7.7473,7.8327,7.8364,7.8736,7.9553,8.0334,8.0728,8.0765,8.0817,8.084,8.084,8.084,8.084,8.0914,8.2526,8.3195,8.3195,8.3195,8.3195,8.3121,8.2303,8.1486,8.0691,8.0668,7.9665,7.8484,7.9789,8.0007,7.9783,8.0258,8.0728,8.1093,8.1093,8.1093,8.1285,8.2054,8.2324,8.2747,8.4478,8.4931,8.5162,8.594,8.6094,8.6018,8.5675,8.5618,8.5533,8.5232,8.5415,8.5618,8.5618,8.5884,8.6094,8.6094,8.6094,8.6094,8.6094,8.6094,8.6094,8.6094,8.6094,8.6094,8.6094,8.6094,8.6094,8.6094,8.6094,8.6094,8.6094,8.6094,8.6094,8.6094,8.6069,8.5858,8.5407,8.492,8.4931,8.5407,8.5407,8.5665,6.0513,6.2372,6.4289,6.5463,6.7332,6.9115,6.9969,7.1406,7.251,7.261,7.2888,7.3281,7.3711,7.409,7.4181,7.3704,7.3464,7.3357,7.3385,7.4091,7.4612,7.4612,7.5057,7.5392,7.5392,7.4649,7.4166,7.4166,7.3943,7.4166,7.4983,7.5838,7.6655,7.751,7.803,7.8439,7.8736,7.9516,7.9925,7.9948,8.0431,8.0691,8.0691,8.0691,8.0691,8.0757,8.162,8.1992,8.1992,8.1968,8.1968,8.1954,8.1669,8.0884,7.9925,7.9925,7.9256,7.8382,7.9058,7.9329,7.949,8.003,8.0467,8.0835,8.1045,8.1093,8.117,8.1439,8.19,8.2554,8.3747,8.4478,8.5085,8.5901,8.6094,8.6018,8.5656,8.5777,8.5876,8.5777,8.584,8.5911,8.5911,8.6026,8.6094,8.6094,8.6094,8.6094,8.6094,8.6094,8.6094,8.6094,8.6094,8.6094,8.6094,8.6094,8.6094,8.6094,8.6094,8.6094,8.6094,8.6094,8.6094,8.6094,8.6094,8.6026,8.5858,8.5684,8.5684,8.5858,8.5858,8.5928,5.9236,6.0721,6.2152,6.2995,6.4844,6.6885,6.8533,7.0123,7.1553,7.2514,7.2751,7.3047,7.3862,7.4017,7.3983,7.3723,7.3506,7.3385,7.3385,7.3868,7.4314,7.4574,7.4834,7.5095,7.5392,7.4909,7.45,7.4203,7.3943,7.4166,7.4946,7.5503,7.6321,7.7473,7.803,7.829,7.829,7.8847,7.9108,7.9108,7.9628,7.9888,7.9888,7.9888,7.9888,7.9902,8.029,8.0799,8.1286,8.1405,8.1456,8.1481,8.1456,8.0814,7.9904,8.0165,7.9511,7.8536,7.9112,7.9267,7.927,7.9768,8.0248,8.065,8.0868,8.1029,8.1093,8.1093,8.1477,8.2093,8.2947,8.4016,8.5085,8.5901,8.6094,8.6043,8.5822,8.5849,8.5893,8.5795,8.5849,8.5919,8.5919,8.6035,8.6017,8.5747,8.594,8.6017,8.5747,8.594,8.6094,8.6094,8.6094,8.6094,8.6094,8.6094,8.6094,8.6094,8.6094,8.6094,8.6094,8.6094,8.6094,8.6094,8.6094,8.6094,8.6094,8.6094,8.6094,8.6094,8.6094,8.6094,0.0,0.0,0.0,6.0877,6.1571,6.2835,6.7588,6.8806,6.9588,7.2084,7.2798,7.3037,7.3172,7.3318,7.3632,7.4413,7.393,7.346,7.346,7.346,7.3757,7.45,7.3943,7.3757,7.4537,7.4612,7.4277,7.3497,7.4166,7.4946,7.5726,7.5801,7.6581,7.8253,7.829,7.829,7.829,7.829,7.829,7.829,7.829,7.829,7.829,7.829,7.829,7.8304,7.8647,7.9726,8.125,8.162,8.174,8.174,8.174,8.125,8.0646,8.1426,8.0467,7.8941,8.0067,7.9889,7.9222,7.9528,8.002,8.0549,8.0605,8.0843,8.1085,8.1093,8.1093,8.1285,8.2093,8.3593,8.5085,8.5901,8.6094,8.6094,8.6094,8.5849,8.5523,8.5211,8.5405,8.5609,8.5609,8.5876,8.5816,8.5047,8.5585,8.5824,8.5047,8.5632,8.6094,8.6094,8.6094,8.6094,8.6094,8.6094,8.6094,8.6094,8.6094,8.6094,8.6094,8.6094,8.6094,8.6094,8.6094,8.6094,8.6094,8.6094,8.6094,8.6094,8.6094,8.6094,5.722,0.0,0.0,0.0,0.0,0.0,6.3302,6.6351,6.9155,7.0048,7.1714,7.3037,7.3172,7.3239,7.3299,7.3428,7.3828,7.4381,7.5044,7.5038,7.49,7.4635,7.4909,7.4983,7.4649,7.4612,7.45,7.4277,7.4463,7.4686,7.4909,7.6098,7.7213,7.8253,7.829,7.829,7.829,7.829,7.829,7.829,7.829,7.829,7.829,7.829,7.829,7.8304,7.8647,7.9217,7.9962,8.0333,8.0488,8.0488,8.0488,8.0171,7.9752,7.9979,7.96,7.8991,7.9477,7.9366,7.9054,7.9471,7.974,7.9986,8.0448,8.0667,8.0771,8.1037,8.1093,8.1285,8.2093,8.3593,8.497,8.5162,8.567,8.6094,8.6094,8.6035,8.5919,8.584,8.5893,8.5945,8.5945,8.6043,8.6017,8.5786,8.5978,8.6017,8.5786,8.5978,8.6094,8.6094,8.6094,8.6094,8.6094,8.6094,8.6094,8.6094,8.6094,8.6094,8.6094,8.6094,8.6094,8.6094,8.6094,8.6094,8.6094,8.6094,8.6094,8.6094,8.6094,8.6094,0.0,0.0,5.7223,5.7296,0.0,0.0,6.254,6.5319,6.8007,7.0259,7.1883,7.2941,7.3091,7.3118,7.3202,7.3453,7.3896,7.4423,7.5123,7.5439,7.5476,7.5142,7.5503,7.5615,7.5169,7.5095,7.4946,7.4649,7.4612,7.4612,7.4612,7.6172,7.7324,7.777,7.8104,7.829,7.829,7.829,7.829,7.829,7.829,7.829,7.829,7.829,7.829,7.8304,7.8647,7.8929,7.9174,7.9585,7.9912,8.0187,8.0045,7.9961,7.987,7.987,7.9681,7.949,7.9652,7.9539,7.9355,7.9539,7.9707,7.987,8.0129,8.0383,8.065,8.0852,8.0975,8.1285,8.2093,8.3054,8.4016,8.4739,8.5239,8.5709,8.6017,8.6094,8.6094,8.6094,8.6094,8.6094,8.6094,8.5824,8.5478,8.5093,8.5087,8.495,8.4603,8.4904,8.5259,8.5604,8.5642,8.578,8.6055,8.6094,8.6094,8.6094,8.6094,8.6094,8.6094,8.6094,8.6094,8.6094,8.6094,8.6094,8.6094,8.6094,8.6094,8.6094,8.6094,8.6094,0.0,0.0,0.0,5.6319,5.6407,0.0,6.3056,6.4525,6.6037,7.0551,7.1704,7.1951,7.2106,7.2171,7.2392,7.3128,7.3374,7.3754,7.4552,7.5259,7.5722,7.5774,7.5912,7.5861,7.5662,7.5737,7.5426,7.4633,7.4572,7.4622,7.4723,7.6135,7.699,7.7101,7.7807,7.8216,7.829,7.829,7.829,7.829,7.829,7.829,7.829,7.829,7.829,7.8304,7.8607,7.8789,7.8816,7.9163,7.9751,8.0392,8.0106,8.0197,8.0506,8.0525,8.0354,8.0149,8.0258,8.0159,7.9895,7.9685,7.9816,8.0017,7.9751,8.005,8.0578,8.0641,8.0877,8.1246,8.1977,8.2247,8.2708,8.4247,8.4739,8.5085,8.5824,8.6055,8.6055,8.5978,8.5978,8.5978,8.5978,8.5286,8.4478,8.3717,8.3672,8.3449,8.2794,8.3324,8.4148,8.5028,8.5059,8.5289,8.6055,8.6094,8.6094,8.6094,8.6094,8.6094,8.6094,8.6094,8.6094,8.6094,8.6094,8.6094,8.6094,8.6094,8.6094,8.6094,8.6094,8.6094,5.553,5.5621,5.6084,5.5502,5.5837,0.0,5.7915,6.0184,6.2421,6.3653,6.547,6.6839,6.687,6.6885,6.6957,6.7157,6.9271,7.2121,7.5814,7.6383,7.6263,7.5835,7.6432,7.6267,7.4809,7.524,7.5259,7.4358,7.4394,7.4775,7.5527,7.5875,7.6395,7.7064,7.725,7.7658,7.829,7.829,7.829,7.829,7.829,7.829,7.829,7.829,7.829,7.829,7.8373,7.8565,7.8802,7.8605,7.9139,8.0086,8.0024,8.0197,8.0515,8.056,8.042,8.0258,8.0364,8.0229,7.9999,7.9718,7.9652,7.9751,7.9916,8.0071,8.0316,8.086,8.1053,8.1131,8.1285,8.1823,8.2401,8.2747,8.3862,8.4931,8.5085,8.5632,8.5901,8.5239,8.5124,8.5124,8.5124,8.4401,8.3793,8.364,8.3672,8.3873,8.4412,8.4095,8.4341,8.5807,8.5406,8.5289,8.6055,8.6094,8.6094,8.6094,8.6094,8.6094,8.6094,8.6094,8.6094,8.6094,8.6094,8.6094,8.6094,8.6094,8.6094,8.6094,8.6094,8.6094,5.5202,5.473,5.4759,5.4608,5.5041,0.0,0.0,5.9889,6.1693,6.3059,6.44,6.529,6.529,6.529,6.5342,6.5494,6.7748,7.0468,7.3325,7.5041,7.5939,7.5835,7.6476,7.6579,7.5694,7.5907,7.5606,7.4372,7.438,7.4452,7.4598,7.4983,7.5392,7.5838,7.6246,7.6841,7.7696,7.7696,7.7919,7.829,7.829,7.829,7.829,7.829,7.829,7.829,7.829,7.8414,7.8552,7.8373,7.8749,7.9398,7.963,7.9944,8.0306,8.0542,8.0614,8.0585,8.0629,8.0611,8.0522,8.0219,8.0119,8.0119,8.0119,8.0228,8.0448,8.0951,8.1093,8.1093,8.1093,8.14,8.1785,8.2208,8.2978,8.3824,8.4709,8.5209,8.5393,8.497,8.4555,8.4247,8.4247,8.3516,8.2947,8.2947,8.2702,8.2661,8.3085,8.287,8.3105,8.4346,8.4411,8.4697,8.5504,8.5879,8.6094,8.6094,8.6094,8.6094,8.6094,8.6094,8.6094,8.6094,8.6094,8.6094,8.6094,8.6094,8.6094,8.6094,8.6094,8.6094,5.4744,5.3783,5.3494,5.3683,5.43,5.5624,0.0,0.0,0.0,6.2939,6.3382,6.3428,6.3428,6.3461,6.3526,6.3725,6.5701,6.7503,6.8503,7.1231,7.3729,7.5294,7.6143,7.6542,7.6485,7.6491,7.5959,7.47,7.4602,7.4313,7.367,7.4389,7.476,7.4612,7.5392,7.6135,7.6841,7.7027,7.7324,7.7807,7.7993,7.7993,7.7807,7.7807,7.7919,7.8067,7.8067,7.8179,7.829,7.829,7.8458,7.8751,7.9114,7.9603,8.0119,8.042,8.0655,8.0902,8.0943,8.0999,8.1053,8.0702,8.0614,8.0531,8.0287,8.043,8.0745,8.1037,8.1093,8.1093,8.1093,8.1093,8.1246,8.19,8.217,8.267,8.4093,8.4516,8.4593,8.4456,8.384,8.337,8.337,8.2631,8.2054,8.2054,8.1614,8.1361,8.1516,8.153,8.1859,8.283,8.3456,8.4148,8.4944,8.5673,8.6094,8.6094,8.6094,8.6094,8.6094,8.6094,8.6094,8.6094,8.6094,8.6094,8.6094,8.6094,8.6094,8.6094,8.6094,8.6094,5.4042,5.3129,5.3538,5.2924,5.3915,5.5201,5.5794,0.0,5.7187,5.7627,0.0,5.7038,5.7038,0.0,0.0,5.7478,5.9453,6.1078,6.1492,6.3574,6.7368,7.3628,7.5167,7.5606,7.5299,7.5838,7.5905,7.5346,7.5286,7.5042,7.4487,7.5243,7.5355,7.4612,7.5392,7.5838,7.5949,7.6692,7.6767,7.6098,7.6878,7.6841,7.6098,7.6098,7.6507,7.725,7.725,7.7621,7.829,7.829,7.8318,7.84,7.8738,7.9329,8.0045,8.019,8.0494,8.0835,8.1029,8.1085,8.1053,8.0702,8.0614,8.0605,8.054,8.0763,8.1053,8.1085,8.1093,8.1093,8.1093,8.1093,8.1131,8.1208,8.1785,8.2362,8.2554,8.3208,8.354,8.2802,8.2571,8.2439,8.2439,8.1785,8.1246,8.1246,8.1268,8.16,8.2371,8.1877,8.2091,8.3603,8.3803,8.4148,8.4944,8.5673,8.6094,8.6094,8.6094,8.6094,8.6094,8.6094,8.6094,8.6094,8.6094,8.6094,8.6094,8.6094,8.6094,8.6094,8.6094,8.6094,5.3899,5.3988,5.4628,5.2996,5.4506,5.6074,5.4858,5.5244,5.5871,5.5961,0.0,0.0,0.0,0.0,0.0,0.0,5.8425,5.9982,6.0219,6.222,6.483,6.7853,6.934,7.1069,7.3517,7.5171,7.5934,7.5428,7.4962,7.4658,7.4598,7.4909,7.5169,7.528,7.5169,7.5318,7.5801,7.5689,7.5689,7.5801,7.6172,7.6172,7.5801,7.5801,7.5986,7.6358,7.6358,7.6804,7.7584,7.7584,7.7936,7.8441,7.8578,7.9004,7.9596,7.9965,8.0335,8.0685,8.0763,8.0926,8.1077,8.0926,8.0893,8.0893,8.0893,8.1005,8.1093,8.1093,8.1093,8.1093,8.1093,8.1093,8.1093,8.1093,8.1362,8.1747,8.2208,8.2593,8.2771,8.2471,8.234,8.2163,8.1792,8.1423,8.1177,8.1222,8.1284,8.1508,8.1855,8.1672,8.1755,8.2426,8.29,8.348,8.4249,8.5013,8.5642,8.6055,8.6094,8.6094,8.6094,8.6094,8.6094,8.6094,8.6094,8.6094,8.6094,8.6094,8.6094,8.6094,8.6094,8.6094,5.5632,5.5602,5.5741,5.4073,5.5126,5.6149,5.4525,5.4692,5.5184,5.5184,5.5173,0.0,0.0,0.0,5.5536,5.5771,0.0,5.8341,5.8466,5.996,6.1726,6.3559,6.5118,6.7214,7.0267,7.2657,7.4049,7.4131,7.3834,7.3956,7.4548,7.4797,7.5095,7.5466,7.5132,7.5095,7.5466,7.5095,7.4983,7.5132,7.5392,7.5355,7.5132,7.5132,7.528,7.5466,7.5466,7.5963,7.6821,7.7044,7.7585,7.8227,7.8491,7.8853,7.9293,7.9795,8.0209,8.0549,8.0693,8.0893,8.1093,8.1093,8.1093,8.1093,8.1093,8.1093,8.1093,8.1093,8.1093,8.1093,8.1093,8.1093,8.1093,8.1093,8.1093,8.1246,8.1823,8.1977,8.2009,8.2069,8.2047,8.1855,8.1428,8.1256,8.1236,8.1277,8.1347,8.1394,8.1394,8.1453,8.1497,8.1497,8.2206,8.2989,8.3722,8.4527,8.5328,8.6055,8.6094,8.6094,8.6094,8.6094,8.6094,8.6094,8.6094,8.6094,8.6094,8.6094,8.6094,8.6094,8.6094,8.6094,6.0067,5.7967,5.6468,5.64,5.5536,5.4651,5.46,5.46,5.4634,5.4634,5.4161,5.3769,5.3785,5.3934,5.4065,0.0,5.4132,0.0,0.0,5.4346,5.6592,6.278,6.4931,6.5647,6.4936,6.7222,6.9353,7.0851,7.1831,7.3026,7.4498,7.5355,7.5429,7.4649,7.5392,7.5392,7.4649,7.5392,7.4983,7.3497,7.4277,7.424,7.3497,7.3497,7.3906,7.4649,7.4649,7.5161,7.6098,7.6955,7.7369,7.7625,7.8539,7.9103,7.9422,7.9789,8.0121,8.0485,8.0926,8.1085,8.1093,8.1093,8.1093,8.1093,8.1093,8.1093,8.1093,8.1093,8.1093,8.1093,8.1093,8.1093,8.1093,8.1093,8.1093,8.1093,8.1131,8.1131,8.1177,8.1294,8.1238,8.1192,8.1446,8.1319,8.1236,8.1277,8.1347,8.1394,8.1394,8.1453,8.1497,8.1497,8.2206,8.2989,8.3722,8.4527,8.5328,8.6055,8.6094,8.6094,8.6094,8.6094,8.6094,8.6094,8.6094,8.6094,8.6094,8.6094,8.6094,8.6094,8.6094,8.6094,5.9827,6.025,6.0193,5.7099,5.7284,5.7452,5.4381,5.3771,5.4279,5.5737,5.4718,5.404,5.5657,5.4777,5.3849,0.0,0.0,5.4159,0.0,5.4271,5.5078,5.7124,6.0172,6.2277,6.2568,6.6957,7.006,7.0814,7.2915,7.4489,7.5217,7.554,7.5841,7.6246,7.5949,7.5689,7.5392,7.5132,7.4463,7.3385,7.3683,7.3645,7.3385,7.3385,7.3534,7.3794,7.3794,7.4356,7.5254,7.5515,7.6091,7.688,7.7987,7.8537,7.8817,7.9458,8.004,8.0576,8.0959,8.1093,8.1093,8.1093,8.1093,8.1093,8.1093,8.1093,8.1093,8.1093,8.1093,8.1093,8.1093,8.1093,8.1093,8.1093,8.1093,8.1093,8.1093,8.1093,8.1139,8.1256,8.1244,8.1258,8.1459,8.14,8.1347,8.142,8.1446,8.1466,8.1466,8.1485,8.1497,8.1497,8.1749,8.2418,8.369,8.4982,8.581,8.6094,8.6094,8.6094,8.6094,8.6094,8.6094,8.6094,8.6094,8.6094,8.6094,8.6094,8.6094,8.6094,8.6094,8.6094,6.2175,6.2717,6.256,5.9512,5.9437,5.9309,5.6311,5.5733,5.6257,5.7679,5.6206,5.5173,5.6709,5.5168,5.3734,0.0,0.0,0.0,0.0,5.4335,5.4415,5.4223,5.6861,5.9315,6.0917,6.3948,6.6653,6.8669,7.0866,7.2496,7.3518,7.4584,7.5611,7.6536,7.6071,7.5801,7.5801,7.528,7.4612,7.3831,7.3534,7.3385,7.3385,7.3385,7.3411,7.345,7.345,7.385,7.4537,7.4835,7.5371,7.6154,7.7206,7.7817,7.8262,7.9516,8.0316,8.0826,8.1037,8.1093,8.1093,8.1093,8.1093,8.1093,8.1093,8.1093,8.1208,8.1823,8.1554,8.1246,8.1823,8.1554,8.11,8.1131,8.1139,8.1147,8.1169,8.1177,8.1214,8.1305,8.127,8.1277,8.1466,8.144,8.142,8.1485,8.1497,8.1497,8.1497,8.1497,8.1497,8.1497,8.1497,8.2136,8.3652,8.5228,8.6094,8.6094,8.6094,8.6094,8.6094,8.6094,8.6401,8.7017,8.6709,8.6709,8.7017,8.6709,8.6401,8.6094,8.6094,8.6094]}]]